[[{"header":{"parameterUnit":"m.s-1","parameterCategory":1,"la1":31.0,"la2":29.5877,"lo1":-88.7671,"lo2":-86.6584,"dy":0.0162,"dx":0.0185,"nx":115,"ny":88,"refTime":"2023-10-01T06:00:00:Z","depth":0,"parameterNumber":2,"parameterNumberName":"U-component_of_WINDS"},"data":[0.0,0.0,0.0,0.0,0.0,0.0,0.0,0.0,0.0,0.0,0.0,0.0,0.0,0.0,0.0,0.0,0.0,0.0,0.0,0.0,0.0,0.0,0.0,0.0,0.0,0.0,0.0,0.0,0.0,0.0,0.0,0.0,0.0,0.0,0.0,0.0,0.0,0.0,0.0,0.0,0.0,0.0,0.0,0.0,0.0,0.0,0.0,0.0,0.0,0.0,0.0,0.0,0.0,0.0,0.0,0.0,0.0,0.0,0.0,0.0,0.0,0.0,0.0,0.0,0.0,0.0,0.0,0.0,0.0,0.0,0.0,0.0,0.0,0.0,0.0,0.0,0.0,0.0,0.0,0.0,0.0,0.0,0.0,0.0,0.0,0.0,0.0,0.0,0.0,0.0,0.0,0.0,0.0,0.0,0.0,0.0,0.0,0.0,0.0,0.0,0.0,0.0,0.0,0.0,0.0,0.0,0.0,0.0,0.0,0.0,0.0,0.0,0.0,0.0,0.0,0.0,0.0,0.0,0.0,0.0,0.0,0.0,0.0,0.0,0.0,0.0,0.0,0.0,0.0,0.0,0.0,0.0,0.0,0.0,0.0,0.0,0.0,0.0,0.0,0.0,0.0,0.0,0.0,0.0,0.0,0.0,0.0,0.0,0.0,0.0,0.0,0.0,0.0,0.0,0.0,0.0,0.0,0.0,0.0,0.0,0.0,0.0,0.0,0.0,0.0,0.0,0.0,0.0,0.0,0.0,0.0,0.0,0.0,0.0,0.0,0.0,0.0,0.0,0.0,0.0,0.0,0.0,0.0,0.0,0.0,0.0,0.0,0.0,0.0,0.0,0.0,0.0,0.0,0.0,0.0,0.0,0.0,0.0,0.0,0.0,0.0,0.0,0.0,0.0,0.0,0.0,0.0,0.0,0.0,0.0,0.0,0.0,0.0,0.0,0.0,0.0,0.0,0.0,0.0,0.0,0.0,0.0,0.0,0.0,0.0,0.0,0.0,0.0,0.0,0.0,0.0,0.0,0.0,0.0,0.0,0.0,0.0,0.0,0.0,0.0,0.0,0.0,0.0,0.0,0.0,0.0,0.0,0.0,0.0,0.0,0.0,0.0,0.0,0.0,0.0,0.0,0.0,0.0,0.0,0.0,0.0,0.0,0.0,0.0,0.0,0.0,0.0,0.0,0.0,0.0,0.0,0.0,0.0,0.0,0.0,0.0,0.0,0.0,0.0,0.0,0.0,0.0,0.0,0.0,0.0,0.0,0.0,0.0,0.0,0.0,0.0,0.0,0.0,0.0,0.0,0.0,0.0,0.0,0.0,0.0,0.0,0.0,0.0,0.0,0.0,0.0,0.0,0.0,0.0,0.0,0.0,0.0,0.0,0.0,0.0,0.0,0.0,0.0,0.0,0.0,0.0,0.0,0.0,0.0,0.0,0.0,0.0,0.0,0.0,0.0,0.0,0.0,0.0,0.0,0.0,0.0,0.0,0.0,0.0,0.0,0.0,0.0,0.0,0.0,0.0,0.0,0.0,0.0,0.0,0.0,0.0,0.0,0.0,0.0,0.0,0.0,0.0,0.0,0.0,0.0,0.0,0.0,0.0,0.0,0.0,0.0,0.0,0.0,0.0,0.0,0.0,0.0,0.0,0.0,0.0,0.0,0.0,0.0,0.0,0.0,0.0,0.0,0.0,0.0,0.0,0.0,0.0,0.0,0.0,0.0,0.0,0.0,0.0,0.0,0.0,0.0,0.0,0.0,0.0,0.0,0.0,0.0,0.0,0.0,0.0,0.0,0.0,0.0,0.0,0.0,0.0,0.0,0.0,0.0,0.0,0.0,0.0,0.0,0.0,0.0,0.0,0.0,0.0,0.0,0.0,0.0,0.0,0.0,0.0,0.0,0.0,0.0,0.0,0.0,0.0,0.0,0.0,0.0,0.0,0.0,0.0,0.0,0.0,0.0,0.0,0.0,0.0,0.0,0.0,0.0,0.0,0.0,0.0,0.0,0.0,0.0,0.0,0.0,0.0,0.0,0.0,0.0,0.0,0.0,0.0,0.0,0.0,0.0,0.0,0.0,0.0,0.0,0.0,0.0,0.0,0.0,0.0,0.0,0.0,0.0,0.0,0.0,0.0,0.0,0.0,0.0,0.0,0.0,0.0,0.0,0.0,0.0,0.0,0.0,0.0,0.0,0.0,0.0,0.0,0.0,0.0,0.0,0.0,0.0,0.0,0.0,0.0,0.0,0.0,0.0,0.0,0.0,0.0,0.0,0.0,0.0,0.0,0.0,0.0,0.0,0.0,0.0,0.0,0.0,0.0,0.0,0.0,0.0,0.0,0.0,0.0,0.0,0.0,0.0,0.0,0.0,0.0,0.0,0.0,0.0,0.0,0.0,0.0,0.0,0.0,0.0,0.0,0.0,0.0,0.0,0.0,0.0,0.0,0.0,0.0,0.0,0.0,0.0,0.0,0.0,0.0,0.0,0.0,0.0,0.0,0.0,0.0,0.0,0.0,0.0,0.0,0.0,0.0,0.0,0.0,0.0,0.0,0.0,0.0,0.0,0.0,0.0,0.0,0.0,0.0,0.0,0.0,0.0,0.0,0.0,0.0,0.0,0.0,0.0,0.0,0.0,0.0,0.0,0.0,0.0,0.0,0.0,0.0,0.0,0.0,0.0,0.0,0.0,0.0,0.0,0.0,0.0,0.0,0.0,0.0,0.0,0.0,0.0,0.0,0.0,0.0,0.0,0.0,0.0,0.0,0.0,0.0,0.0,0.0,0.0,0.0,0.0,0.0,0.0,0.0,0.0,0.0,0.0,0.0,0.0,0.0,0.0,0.0,0.0,0.0,0.0,0.0,0.0,0.0,0.0,0.0,0.0,0.0,0.0,0.0,0.0,0.0,0.0,0.0,0.0,0.0,0.0,0.0,0.0,0.0,0.0,0.0,0.0,0.0,0.0,0.0,0.0,0.0,0.0,0.0,0.0,0.0,0.0,0.0,0.0,0.0,0.0,0.0,0.0,0.0,0.0,0.0,0.0,0.0,0.0,0.0,0.0,0.0,0.0,0.0,0.0,0.0,0.0,0.0,0.0,0.0,0.0,0.0,0.0,0.0,0.0,0.0,0.0,0.0,0.0,0.0,0.0,0.0,0.0,0.0,0.0,0.0,0.0,0.0,0.0,0.0,0.0,0.0,0.0,0.0,0.0,0.0,0.0,0.0,0.0,0.0,0.0,0.0,0.0,0.0,0.0,0.0,0.0,0.0,0.0,0.0,0.0,0.0,0.0,0.0,0.0,0.0,0.0,0.0,0.0,0.0,0.0,0.0,0.0,0.0,0.0,0.0,0.0,0.0,0.0,0.0,0.0,0.0,0.0,0.0,0.0,0.0,0.0,0.0,0.0,0.0,0.0,0.0,0.0,0.0,0.0,0.0,0.0,0.0,0.0,0.0,0.0,0.0,0.0,0.0,0.0,0.0,0.0,0.0,0.0,0.0,0.0,0.0,0.0,0.0,0.0,0.0,0.0,0.0,0.0,0.0,0.0,0.0,0.0,0.0,0.0,0.0,0.0,0.0,0.0,0.0,0.0,0.0,0.0,0.0,0.0,0.0,0.0,0.0,0.0,0.0,0.0,0.0,0.0,0.0,0.0,0.0,0.0,0.0,0.0,0.0,0.0,0.0,0.0,0.0,0.0,0.0,0.0,0.0,0.0,0.0,0.0,0.0,0.0,0.0,0.0,0.0,0.0,0.0,0.0,0.0,0.0,0.0,0.0,0.0,0.0,0.0,0.0,0.0,0.0,0.0,0.0,0.0,0.0,0.0,0.0,0.0,0.0,0.0,0.0,0.0,0.0,0.0,0.0,0.0,0.0,0.0,0.0,0.0,0.0,0.0,0.0,0.0,0.0,0.0,0.0,0.0,0.0,0.0,0.0,0.0,0.0,0.0,0.0,0.0,0.0,0.0,0.0,0.0,0.0,0.0,0.0,0.0,0.0,0.0,0.0,0.0,0.0,0.0,0.0,0.0,0.0,0.0,0.0,0.0,0.0,0.0,0.0,0.0,0.0,0.0,0.0,0.0,0.0,0.0,0.0,0.0,0.0,0.0,0.0,0.0,0.0,0.0,0.0,0.0,0.0,0.0,0.0,0.0,0.0,0.0,0.0,0.0,0.0,0.0,0.0,0.0,0.0,0.0,0.0,0.0,0.0,0.0,0.0,0.0,0.0,0.0,0.0,0.0,0.0,0.0,0.0,0.0,0.0,0.0,0.0,4.0099,0.0,0.0,0.0,0.0,0.0,0.0,0.0,0.0,0.0,0.0,0.0,0.0,0.0,0.0,0.0,0.0,0.0,0.0,0.0,0.0,0.0,0.0,0.0,0.0,0.0,0.0,0.0,0.0,0.0,0.0,0.0,0.0,0.0,0.0,0.0,0.0,0.0,0.0,0.0,0.0,0.0,0.0,0.0,0.0,0.0,0.0,0.0,0.0,0.0,0.0,0.0,0.0,0.0,0.0,0.0,0.0,0.0,0.0,0.0,0.0,0.0,0.0,0.0,0.0,0.0,0.0,0.0,0.0,0.0,0.0,0.0,0.0,0.0,0.0,0.0,0.0,0.0,0.0,0.0,0.0,0.0,0.0,0.0,0.0,0.0,0.0,0.0,0.0,0.0,0.0,0.0,0.0,0.0,0.0,0.0,0.0,0.0,0.0,0.0,0.0,0.0,0.0,0.0,0.0,0.0,0.0,0.0,0.0,0.0,0.0,4.0059,3.9173,3.5967,3.5775,3.8912,0.0,0.0,0.0,0.0,0.0,0.0,0.0,0.0,0.0,0.0,0.0,0.0,0.0,0.0,0.0,0.0,0.0,0.0,0.0,0.0,0.0,0.0,0.0,0.0,0.0,0.0,0.0,0.0,0.0,0.0,0.0,0.0,0.0,0.0,0.0,0.0,0.0,0.0,0.0,0.0,0.0,0.0,0.0,0.0,0.0,0.0,0.0,0.0,0.0,0.0,0.0,0.0,0.0,0.0,0.0,0.0,0.0,0.0,0.0,0.0,0.0,0.0,0.0,0.0,0.0,0.0,0.0,0.0,0.0,0.0,0.0,0.0,0.0,0.0,0.0,0.0,0.0,0.0,0.0,0.0,0.0,0.0,0.0,0.0,0.0,0.0,0.0,0.0,0.0,0.0,0.0,0.0,0.0,0.0,0.0,0.0,0.0,0.0,0.0,0.0,0.0,0.0,0.0,0.0,0.0,0.0,0.0,0.0,0.0,0.0,0.0,0.0,2.7274,2.7481,3.2687,0.0,0.0,0.0,0.0,0.0,0.0,0.0,0.0,0.0,0.0,0.0,0.0,0.0,0.0,0.0,0.0,0.0,0.0,0.0,0.0,0.0,0.0,0.0,0.0,0.0,0.0,0.0,0.0,0.0,0.0,0.0,0.0,0.0,0.0,0.0,0.0,0.0,0.0,0.0,0.0,0.0,0.0,0.0,0.0,0.0,0.0,0.0,0.0,0.0,0.0,0.0,0.0,0.0,0.0,0.0,0.0,0.0,0.0,0.0,0.0,0.0,0.0,0.0,0.0,0.0,0.0,0.0,0.0,0.0,0.0,0.0,0.0,0.0,0.0,0.0,0.0,0.0,0.0,0.0,0.0,0.0,0.0,0.0,0.0,0.0,0.0,0.0,0.0,0.0,0.0,0.0,0.0,0.0,0.0,0.0,0.0,0.0,0.0,0.0,0.0,0.0,0.0,0.0,0.0,0.0,0.0,0.0,0.0,0.0,0.0,1.3411,1.2564,1.2607,0.0,1.779,0.0,0.0,0.0,0.0,0.0,0.0,0.0,0.0,0.0,0.0,0.0,0.0,0.0,0.0,0.0,0.0,0.0,0.0,0.0,0.0,0.0,0.0,0.0,0.0,0.0,0.0,0.0,0.0,0.0,0.0,0.0,0.0,0.0,0.0,0.0,0.0,0.0,0.0,0.0,0.0,0.0,0.0,0.0,0.0,0.0,0.0,0.0,0.0,0.0,0.0,0.0,0.0,0.0,0.0,0.0,0.0,0.0,0.0,0.0,0.0,0.0,0.0,0.0,0.0,0.0,0.0,0.0,0.0,0.0,0.0,0.0,0.0,0.0,0.0,0.0,0.0,0.0,0.0,0.0,0.0,0.0,0.0,0.0,0.0,0.0,0.0,0.0,0.0,0.0,0.0,0.0,0.0,0.0,0.0,0.0,0.0,0.0,0.0,0.0,0.0,0.0,0.0,0.0,0.0,0.0,0.0,0.0,0.0,0.0,0.0,0.7496,0.9587,0.9864,0.9671,0.0,0.0,0.0,0.0,0.0,0.0,0.0,0.0,0.0,0.0,0.0,0.0,0.0,0.0,0.0,0.0,0.0,0.0,0.0,0.0,0.0,0.0,0.0,0.0,0.0,0.0,0.0,0.0,0.0,0.0,0.0,0.0,0.0,0.0,0.0,0.0,0.0,0.0,0.0,0.0,0.0,0.0,0.0,0.0,0.0,0.0,0.0,0.0,0.0,0.0,0.0,0.0,0.0,0.0,0.0,0.0,0.0,0.0,0.0,0.0,0.0,0.0,0.0,0.0,0.0,0.0,0.0,0.0,0.0,0.0,0.0,0.0,0.0,0.0,0.0,0.0,0.0,0.0,0.0,0.0,0.0,0.0,0.0,0.0,0.0,0.0,0.0,0.0,0.0,0.0,0.0,0.0,0.0,0.0,0.0,0.0,0.0,0.0,0.0,0.0,0.0,0.0,0.0,0.0,0.0,0.0,0.0,0.0,0.0,0.0,-0.1297,-0.1652,0.1372,0.2069,0.1405,-0.0552,0.0,0.0,0.0,0.0,0.0,0.0,0.0,0.0,0.0,0.0,0.0,0.0,0.0,0.0,0.0,0.0,0.0,0.0,0.0,0.0,0.0,0.0,0.0,0.0,0.0,0.0,0.0,0.0,0.0,0.0,0.0,0.0,0.0,0.0,0.0,0.0,0.0,0.0,0.0,0.0,0.0,0.0,0.0,0.0,0.0,0.0,0.0,0.0,0.0,0.0,0.0,0.0,0.0,0.0,0.0,0.0,0.0,0.0,0.0,0.0,0.0,0.0,0.0,0.0,0.0,0.0,0.0,0.0,0.0,0.0,0.0,0.0,0.0,0.0,0.0,0.0,0.0,0.0,0.0,0.0,0.0,0.0,0.0,0.0,0.0,0.0,0.0,0.0,0.0,0.0,0.0,0.0,0.0,0.0,0.0,0.0,0.0,0.0,0.0,0.0,0.0,0.0,0.0,0.0,0.0,0.0,0.0,0.0,-0.965,-1.5493,-1.8479,-1.745,-1.6025,-1.4287,0.0,0.0,0.0,0.0,0.0,0.0,0.0,0.0,0.0,0.0,0.0,0.0,0.0,0.0,0.0,0.0,0.0,0.0,0.0,0.0,0.0,0.0,0.0,0.0,0.0,0.0,0.0,0.0,0.0,0.0,0.0,0.0,0.0,0.0,0.0,0.0,0.0,0.0,0.0,0.0,0.0,0.0,0.0,0.0,0.0,0.0,0.0,0.0,0.0,0.0,0.0,0.0,0.0,0.0,0.0,0.0,0.0,0.0,0.0,0.0,0.0,0.0,0.0,0.0,0.0,0.0,0.0,0.0,0.0,0.0,0.0,0.0,0.0,0.0,0.0,0.0,0.0,0.0,0.0,0.0,0.0,0.0,0.0,0.0,0.0,0.0,0.0,0.0,0.0,0.0,0.0,0.0,0.0,0.0,0.0,0.0,0.0,0.0,0.0,0.0,0.0,0.0,0.0,0.0,0.0,0.0,0.0,0.0,0.0,-2.0754,-2.1757,-2.3391,-2.592,-2.2644,-2.1002,0.0,0.0,0.0,0.0,0.0,0.0,0.0,0.0,0.0,0.0,0.0,0.0,0.0,0.0,0.0,0.0,0.0,0.0,0.0,0.0,0.0,0.0,0.0,0.0,0.0,0.0,0.0,0.0,0.0,0.0,0.0,0.0,0.0,0.0,0.0,0.0,0.0,0.0,0.0,0.0,0.0,0.0,0.0,0.0,0.0,0.0,0.0,0.0,0.0,0.0,0.0,0.0,0.0,0.0,0.0,0.0,0.0,0.0,0.0,0.0,0.0,0.0,0.0,0.0,0.0,0.0,0.0,0.0,0.0,0.0,0.0,0.0,0.0,0.0,0.0,0.0,0.0,0.0,0.0,0.0,0.0,0.0,0.0,0.0,0.0,0.0,0.0,0.0,0.0,0.0,0.0,0.0,0.0,0.0,0.0,0.0,0.0,0.0,0.0,0.0,0.0,0.0,0.0,0.0,0.0,0.0,0.0,0.0,0.0,-2.7183,0.0,-2.6274,-2.8663,-2.6422,-2.5037,0.0,0.0,0.0,0.0,0.0,0.0,0.0,0.0,0.0,0.0,0.0,0.0,0.0,0.0,0.0,0.0,0.0,0.0,0.0,0.0,0.0,0.0,0.0,0.0,0.0,0.0,0.0,0.0,0.0,0.0,0.0,0.0,0.0,0.0,0.0,0.0,0.0,0.0,0.0,0.0,0.0,0.0,0.0,0.0,0.0,0.0,0.0,0.0,0.0,0.0,0.0,0.0,0.0,0.0,0.0,0.0,0.0,0.0,0.0,0.0,0.0,0.0,0.0,0.0,0.0,0.0,0.0,0.0,0.0,0.0,0.0,0.0,0.0,0.0,0.0,0.0,0.0,0.0,0.0,0.0,0.0,0.0,0.0,0.0,0.0,0.0,0.0,0.0,0.0,0.0,0.0,0.0,0.0,0.0,0.0,0.0,0.0,0.0,0.0,0.0,0.0,0.0,0.0,0.0,0.0,0.0,0.0,0.0,-3.0226,-2.8216,-2.8234,-2.7726,-2.6491,-2.7715,-2.6815,0.0,0.0,0.0,0.0,0.0,0.0,0.0,0.0,0.0,0.0,0.0,0.0,0.0,0.0,0.0,0.0,0.0,0.0,0.0,0.0,0.0,0.0,0.0,0.0,0.0,0.0,0.0,0.0,0.0,0.0,0.0,0.0,0.0,0.0,0.0,0.0,0.0,0.0,0.0,0.0,0.0,0.0,0.0,0.0,0.0,0.0,0.0,0.0,0.0,0.0,0.0,0.0,0.0,0.0,0.0,0.0,0.0,0.0,0.0,0.0,0.0,0.0,0.0,0.0,0.0,0.0,0.0,0.0,0.0,0.0,0.0,0.0,0.0,0.0,0.0,0.0,0.0,0.0,0.0,0.0,0.0,0.0,0.0,0.0,0.0,0.0,0.0,0.0,0.0,0.0,0.0,0.0,0.0,0.0,0.0,0.0,0.0,0.0,0.0,0.0,0.0,0.0,0.0,0.0,0.0,0.0,0.0,0.0,0.0,-2.9251,-2.9066,-2.9114,-2.9242,-2.8389,-2.7367,0.0,0.0,0.0,0.0,0.0,0.0,0.0,0.0,0.0,0.0,0.0,0.0,0.0,0.0,0.0,0.0,0.0,0.0,0.0,0.0,0.0,0.0,0.0,0.0,0.0,0.0,0.0,0.0,0.0,0.0,0.0,0.0,0.0,0.0,0.0,0.0,0.0,0.0,0.0,0.0,0.0,0.0,0.0,0.0,0.0,0.0,0.0,0.0,0.0,0.0,0.0,0.0,0.0,0.0,0.0,0.0,0.0,0.0,0.0,0.0,0.0,0.0,0.0,0.0,0.0,0.0,0.0,0.0,0.0,0.0,0.0,0.0,0.0,0.0,0.0,0.0,0.0,0.0,0.0,0.0,0.0,0.0,0.0,0.0,0.0,0.0,0.0,0.0,0.0,0.0,0.0,0.0,0.0,0.0,0.0,0.0,0.0,0.0,0.0,0.0,0.0,0.0,0.0,0.0,0.0,0.0,0.0,0.0,0.0,-3.0526,-3.0498,-3.0881,-3.1734,-2.9737,-2.8248,-2.752,0.0,0.0,0.0,0.0,0.0,0.0,0.0,0.0,0.0,0.0,0.0,0.0,0.0,0.0,0.0,0.0,0.0,0.0,0.0,0.0,0.0,0.0,0.0,0.0,0.0,0.0,0.0,0.0,0.0,0.0,0.0,0.0,0.0,0.0,0.0,0.0,0.0,0.0,0.0,0.0,0.0,0.0,0.0,0.0,0.0,0.0,0.0,0.0,0.0,0.0,0.0,0.0,0.0,0.0,0.0,0.0,0.0,0.0,0.0,0.0,0.0,0.0,0.0,0.0,0.0,0.0,0.0,0.0,0.0,0.0,0.0,0.0,0.0,0.0,0.0,0.0,0.0,0.0,0.0,0.0,0.0,0.0,0.0,0.0,0.0,0.0,0.0,0.0,0.0,0.0,0.0,0.0,0.0,0.0,0.0,0.0,0.0,0.0,0.0,0.0,0.0,0.0,0.0,0.0,0.0,0.0,0.0,0.0,-3.1845,-3.2302,-3.2786,-3.329,-3.1353,-2.9402,0.0,0.0,0.0,0.0,0.0,0.0,0.0,0.0,0.0,0.0,0.0,0.0,0.0,0.0,0.0,0.0,0.0,0.0,0.0,0.0,0.0,0.0,0.0,0.0,0.0,0.0,0.0,0.0,0.0,0.0,0.0,0.0,0.0,0.0,0.0,0.0,0.0,0.0,0.0,0.0,0.0,0.0,0.0,0.0,0.0,0.0,0.0,0.0,0.0,0.0,0.0,0.0,0.0,0.0,0.0,0.0,0.0,0.0,0.0,0.0,0.0,0.0,0.0,0.0,0.0,0.0,0.0,0.0,0.0,0.0,0.0,0.0,0.0,0.0,0.0,0.0,0.0,0.0,0.0,0.0,0.0,0.0,0.0,0.0,0.0,0.0,0.0,0.0,0.0,0.0,0.0,0.0,0.0,0.0,0.0,0.0,0.0,0.0,0.0,0.0,0.0,0.0,0.0,0.0,0.0,0.0,0.0,0.0,0.0,-3.311,-3.2452,-3.1754,-3.1117,-3.0086,-2.8366,0.0,0.0,0.0,0.0,0.0,0.0,0.0,0.0,0.0,0.0,0.0,0.0,0.0,0.0,0.0,0.0,0.0,0.0,0.0,0.0,0.0,0.0,0.0,0.0,0.0,0.0,0.0,0.0,0.0,0.0,0.0,0.0,0.0,0.0,0.0,0.0,0.0,0.0,0.0,0.0,0.0,0.0,0.0,0.0,0.0,0.0,0.0,0.0,0.0,0.0,0.0,0.0,0.0,0.0,0.0,0.0,0.0,0.0,0.0,0.0,0.0,0.0,0.0,0.0,0.0,0.0,0.0,0.0,0.0,0.0,0.0,0.0,0.0,0.0,0.0,0.0,0.0,0.0,0.0,0.0,0.0,0.0,0.0,0.0,0.0,0.0,0.0,0.0,0.0,0.0,0.0,0.0,0.0,0.0,0.0,0.0,0.0,0.0,0.0,0.0,0.0,0.0,0.0,0.0,0.0,0.0,0.0,0.0,-3.3073,-3.3201,-3.2287,-3.126,-3.0107,-2.9666,-2.7967,0.0,0.0,0.0,0.0,0.0,0.0,0.0,0.0,0.0,0.0,0.0,0.0,0.0,0.0,0.0,0.0,0.0,0.0,0.0,0.0,0.0,0.0,0.0,0.0,0.0,0.0,0.0,0.0,0.0,0.0,0.0,0.0,0.0,0.0,0.0,0.0,0.0,0.0,0.0,0.0,0.0,0.0,0.0,0.0,0.0,0.0,0.0,0.0,0.0,0.0,0.0,0.0,0.0,0.0,0.0,0.0,0.0,0.0,0.0,0.0,0.0,0.0,0.0,0.0,0.0,0.0,0.0,0.0,0.0,0.0,0.0,0.0,0.0,0.0,0.0,0.0,0.0,0.0,0.0,0.0,0.0,0.0,0.0,0.0,0.0,0.0,0.0,0.0,0.0,0.0,0.0,0.0,0.0,0.0,0.0,0.0,0.0,0.0,0.0,0.0,0.0,0.0,0.0,0.0,0.0,0.0,0.0,0.0,-3.3256,-3.2899,-3.2287,-3.1325,-3.0159,-2.9758,-2.7983,0.0,0.0,0.0,0.0,0.0,0.0,0.0,0.0,0.0,0.0,0.0,0.0,0.0,0.0,0.0,0.0,0.0,0.0,0.0,0.0,0.0,0.0,0.0,0.0,0.0,0.0,0.0,0.0,0.0,0.0,0.0,0.0,0.0,0.0,0.0,0.0,0.0,0.0,0.0,0.0,0.0,0.0,0.0,0.0,0.0,0.0,0.0,0.0,0.0,0.0,0.0,0.0,0.0,0.0,0.0,0.0,0.0,0.0,0.0,0.0,0.0,0.0,0.0,0.0,0.0,0.0,0.0,0.0,0.0,0.0,0.0,0.0,0.0,0.0,0.0,0.0,0.0,0.0,0.0,0.0,0.0,0.0,0.0,0.0,0.0,0.0,0.0,0.0,0.0,0.0,0.0,0.0,0.0,0.0,0.0,0.0,0.0,0.0,0.0,0.0,0.0,0.0,0.0,0.0,0.0,0.0,0.0,0.0,-3.4494,-3.4364,-3.3607,-3.244,-3.0834,-2.9483,-2.7278,0.0,0.0,0.0,0.0,0.0,0.0,0.0,0.0,0.0,0.0,0.0,0.0,0.0,0.0,0.0,0.0,0.0,0.0,0.0,0.0,0.0,0.0,0.0,0.0,0.0,0.0,0.0,0.0,0.0,0.0,0.0,0.0,0.0,0.0,0.0,0.0,0.0,0.0,0.0,0.0,0.0,0.0,0.0,0.0,0.0,0.0,0.0,0.0,-4.0914,0.0,0.0,0.0,0.0,0.0,0.0,0.0,0.0,0.0,0.0,0.0,0.0,0.0,0.0,0.0,0.0,0.0,0.0,0.0,0.0,0.0,0.0,0.0,0.0,0.0,0.0,0.0,0.0,0.0,0.0,0.0,0.0,0.0,0.0,0.0,0.0,0.0,0.0,0.0,0.0,0.0,0.0,0.0,0.0,0.0,0.0,0.0,0.0,0.0,0.0,0.0,0.0,0.0,0.0,0.0,0.0,0.0,0.0,0.0,-3.4833,-3.526,-3.4055,-3.2897,-3.1858,-3.0254,-2.761,0.0,0.0,0.0,0.0,0.0,0.0,0.0,0.0,0.0,0.0,0.0,0.0,0.0,0.0,0.0,0.0,0.0,0.0,0.0,0.0,0.0,0.0,0.0,0.0,0.0,0.0,0.0,0.0,0.0,0.0,0.0,0.0,0.0,0.0,0.0,0.0,0.0,0.0,0.0,0.0,0.0,0.0,0.0,0.0,0.0,0.0,0.0,0.0,0.0,0.0,0.0,0.0,0.0,0.0,0.0,0.0,0.0,0.0,0.0,0.0,0.0,0.0,0.0,0.0,0.0,0.0,0.0,0.0,0.0,0.0,0.0,0.0,0.0,0.0,0.0,0.0,0.0,0.0,0.0,0.0,0.0,0.0,0.0,0.0,0.0,0.0,0.0,0.0,0.0,0.0,0.0,0.0,0.0,0.0,0.0,0.0,0.0,0.0,0.0,0.0,0.0,0.0,0.0,0.0,0.0,0.0,0.0,-3.5477,-3.5063,-3.5982,-3.4439,-3.3331,-3.2848,-3.1317,-2.8556,-2.4385,0.0,0.0,0.0,0.0,0.0,0.0,0.0,0.0,0.0,0.0,0.0,0.0,0.0,0.0,0.0,0.0,0.0,0.0,0.0,0.0,0.0,0.0,0.0,0.0,0.0,0.0,0.0,0.0,0.0,0.0,0.0,0.0,0.0,0.0,0.0,0.0,0.0,0.0,-3.9189,-3.9683,0.0,0.0,0.0,0.0,0.0,0.0,0.0,0.0,-4.1069,0.0,0.0,0.0,0.0,0.0,0.0,0.0,0.0,0.0,0.0,0.0,0.0,0.0,0.0,0.0,0.0,0.0,0.0,0.0,0.0,0.0,0.0,0.0,0.0,0.0,0.0,0.0,0.0,0.0,0.0,0.0,0.0,0.0,0.0,0.0,0.0,0.0,0.0,0.0,0.0,0.0,0.0,0.0,0.0,0.0,0.0,0.0,0.0,0.0,0.0,0.0,0.0,0.0,0.0,0.0,0.0,-3.8701,-3.7101,-3.6502,-3.6947,-3.5983,-3.4567,-3.2735,-3.2055,-2.9686,-2.5417,0.0,0.0,0.0,0.0,0.0,0.0,0.0,0.0,0.0,0.0,0.0,0.0,0.0,0.0,0.0,0.0,0.0,0.0,0.0,0.0,0.0,0.0,0.0,0.0,0.0,0.0,0.0,0.0,0.0,0.0,0.0,0.0,0.0,0.0,0.0,0.0,0.0,0.0,0.0,-3.9848,-3.9977,0.0,0.0,0.0,0.0,0.0,0.0,0.0,0.0,-4.1182,0.0,0.0,0.0,0.0,0.0,0.0,0.0,0.0,0.0,0.0,0.0,0.0,0.0,0.0,0.0,0.0,0.0,0.0,0.0,0.0,0.0,0.0,0.0,0.0,0.0,0.0,0.0,0.0,0.0,0.0,0.0,0.0,0.0,0.0,0.0,0.0,0.0,0.0,0.0,0.0,0.0,0.0,0.0,0.0,0.0,0.0,0.0,0.0,0.0,0.0,0.0,0.0,0.0,0.0,0.0,-3.8825,-3.8012,-3.7699,-3.7809,-3.6105,-3.4802,-3.4066,-3.2194,-2.9778,0.0,0.0,0.0,0.0,0.0,0.0,0.0,0.0,0.0,0.0,0.0,0.0,0.0,0.0,0.0,0.0,0.0,0.0,0.0,0.0,0.0,0.0,0.0,0.0,0.0,0.0,0.0,0.0,0.0,0.0,0.0,0.0,0.0,0.0,0.0,0.0,0.0,0.0,0.0,0.0,-4.0287,-3.9934,-3.8155,0.0,0.0,0.0,0.0,0.0,0.0,-4.1658,-4.1675,0.0,0.0,0.0,0.0,0.0,0.0,0.0,0.0,0.0,0.0,0.0,0.0,0.0,0.0,0.0,0.0,0.0,0.0,0.0,0.0,0.0,0.0,0.0,0.0,0.0,0.0,0.0,0.0,0.0,0.0,0.0,0.0,0.0,0.0,0.0,0.0,0.0,0.0,0.0,0.0,0.0,0.0,0.0,0.0,0.0,0.0,0.0,0.0,0.0,0.0,0.0,0.0,0.0,0.0,0.0,-3.8808,-3.8509,-3.838,-3.8309,-3.6027,-3.4802,-3.4898,-3.2083,-2.9457,0.0,0.0,0.0,0.0,0.0,0.0,0.0,0.0,0.0,0.0,0.0,0.0,0.0,0.0,0.0,0.0,0.0,0.0,0.0,0.0,0.0,0.0,0.0,0.0,0.0,0.0,0.0,0.0,0.0,0.0,0.0,0.0,0.0,0.0,0.0,0.0,0.0,0.0,0.0,0.0,0.0,-3.9054,-3.6274,-3.847,0.0,0.0,0.0,0.0,-4.1507,-4.2121,0.0,0.0,0.0,0.0,0.0,0.0,0.0,0.0,0.0,0.0,0.0,0.0,0.0,0.0,0.0,0.0,0.0,0.0,0.0,0.0,0.0,0.0,0.0,0.0,0.0,0.0,0.0,0.0,0.0,0.0,0.0,0.0,0.0,0.0,0.0,0.0,0.0,0.0,0.0,0.0,0.0,0.0,0.0,0.0,0.0,0.0,0.0,0.0,0.0,0.0,0.0,0.0,0.0,0.0,0.0,0.0,-3.9133,-3.8581,-3.8214,-3.7899,-3.6384,-3.4861,-3.3478,-3.1735,-2.9149,0.0,0.0,0.0,0.0,0.0,0.0,0.0,0.0,0.0,0.0,0.0,0.0,0.0,0.0,0.0,0.0,0.0,0.0,0.0,0.0,0.0,0.0,0.0,0.0,0.0,0.0,0.0,0.0,0.0,0.0,0.0,0.0,0.0,0.0,0.0,0.0,0.0,0.0,0.0,0.0,0.0,-3.6181,-3.5799,-3.6111,-3.6275,0.0,0.0,-4.2071,-4.2751,-4.3251,0.0,0.0,0.0,0.0,0.0,0.0,0.0,0.0,0.0,0.0,0.0,0.0,0.0,0.0,0.0,0.0,0.0,0.0,0.0,0.0,0.0,0.0,0.0,0.0,0.0,0.0,0.0,0.0,0.0,0.0,0.0,0.0,0.0,0.0,0.0,0.0,0.0,0.0,0.0,0.0,0.0,0.0,0.0,0.0,0.0,0.0,0.0,0.0,0.0,0.0,0.0,0.0,0.0,0.0,0.0,-4.004,-3.9193,-3.9306,-3.9058,-3.8381,-3.6167,-3.4883,-3.4551,-3.1937,-2.9525,0.0,0.0,0.0,0.0,0.0,0.0,0.0,0.0,0.0,0.0,0.0,0.0,0.0,0.0,0.0,0.0,0.0,0.0,0.0,0.0,0.0,0.0,0.0,0.0,0.0,0.0,0.0,0.0,0.0,0.0,0.0,0.0,0.0,0.0,0.0,0.0,0.0,0.0,0.0,0.0,0.0,0.0,-3.3634,-3.5153,0.0,0.0,0.0,-4.2388,-4.233,0.0,0.0,0.0,0.0,0.0,0.0,0.0,0.0,0.0,0.0,0.0,0.0,0.0,0.0,0.0,0.0,0.0,0.0,0.0,0.0,0.0,0.0,0.0,0.0,0.0,0.0,0.0,0.0,0.0,0.0,0.0,0.0,0.0,0.0,0.0,0.0,0.0,0.0,0.0,0.0,0.0,0.0,0.0,0.0,0.0,0.0,0.0,0.0,0.0,0.0,0.0,0.0,0.0,0.0,0.0,0.0,0.0,-3.9133,-3.9714,-3.9631,-3.8778,-3.5919,-3.4707,-3.5165,-3.1942,0.0,0.0,0.0,0.0,0.0,0.0,0.0,0.0,0.0,0.0,0.0,0.0,0.0,0.0,0.0,0.0,0.0,0.0,0.0,0.0,0.0,0.0,0.0,0.0,0.0,0.0,0.0,-4.0479,0.0,0.0,0.0,0.0,0.0,0.0,0.0,0.0,0.0,0.0,0.0,0.0,0.0,0.0,-3.3902,-3.0463,-3.2403,-3.367,0.0,0.0,-4.1769,-4.22,-4.3683,-4.4206,0.0,0.0,0.0,0.0,0.0,0.0,0.0,0.0,0.0,0.0,0.0,0.0,0.0,0.0,0.0,0.0,0.0,0.0,0.0,0.0,0.0,0.0,0.0,0.0,0.0,0.0,0.0,0.0,0.0,0.0,0.0,0.0,0.0,0.0,0.0,0.0,0.0,0.0,0.0,0.0,0.0,0.0,0.0,0.0,0.0,0.0,0.0,0.0,0.0,0.0,0.0,0.0,0.0,0.0,0.0,-3.9228,-3.9426,-3.9291,-3.8739,-3.5873,-3.4278,-3.4161,-3.1382,-2.8807,0.0,0.0,0.0,0.0,0.0,0.0,0.0,0.0,0.0,0.0,0.0,0.0,0.0,0.0,0.0,0.0,0.0,0.0,0.0,0.0,0.0,0.0,0.0,0.0,0.0,0.0,0.0,0.0,0.0,0.0,0.0,0.0,0.0,0.0,0.0,0.0,0.0,0.0,0.0,0.0,0.0,-2.9068,-2.6163,-2.5946,-2.7615,0.0,0.0,-3.95,-4.3161,-4.4677,-4.4976,-4.3357,0.0,0.0,0.0,0.0,0.0,0.0,0.0,0.0,0.0,0.0,0.0,0.0,0.0,0.0,0.0,0.0,0.0,0.0,0.0,0.0,0.0,0.0,0.0,0.0,0.0,0.0,0.0,0.0,0.0,0.0,0.0,0.0,0.0,0.0,0.0,0.0,0.0,0.0,0.0,0.0,0.0,0.0,0.0,0.0,0.0,0.0,0.0,0.0,0.0,0.0,0.0,0.0,0.0,-3.923,-3.8384,-3.9056,-3.906,-3.823,-3.6183,-3.505,-3.502,-3.3231,-3.1514,0.0,0.0,0.0,0.0,0.0,0.0,0.0,0.0,0.0,0.0,0.0,0.0,0.0,0.0,0.0,0.0,0.0,0.0,0.0,0.0,0.0,0.0,0.0,0.0,0.0,0.0,0.0,0.0,-4.1613,-4.1447,-3.9963,0.0,0.0,0.0,0.0,0.0,0.0,0.0,0.0,0.0,0.0,-2.5791,-2.4895,-2.5253,0.0,0.0,-3.209,-3.5183,-3.644,-3.9231,-4.0756,-3.9309,-4.0844,0.0,0.0,0.0,0.0,0.0,0.0,0.0,0.0,0.0,0.0,0.0,0.0,0.0,0.0,0.0,0.0,0.0,0.0,0.0,0.0,0.0,0.0,0.0,0.0,0.0,0.0,0.0,0.0,0.0,0.0,0.0,0.0,0.0,0.0,0.0,0.0,0.0,0.0,0.0,0.0,0.0,0.0,0.0,0.0,0.0,0.0,0.0,0.0,0.0,0.0,0.0,0.0,-3.8799,-3.7878,-3.9024,-3.932,-3.8701,-3.7137,-3.6307,-3.6383,-3.485,-3.3647,0.0,0.0,0.0,0.0,0.0,0.0,0.0,0.0,0.0,0.0,0.0,0.0,0.0,0.0,0.0,0.0,0.0,0.0,0.0,0.0,0.0,0.0,0.0,0.0,0.0,0.0,0.0,0.0,-4.1427,-4.1111,-3.9561,0.0,0.0,0.0,0.0,0.0,0.0,0.0,0.0,0.0,0.0,-2.4186,-2.3917,-2.4751,-2.6034,-2.7618,-3.0866,-3.3566,-3.4793,-3.673,-3.7733,-3.6844,0.0,0.0,0.0,0.0,0.0,0.0,0.0,0.0,0.0,0.0,0.0,0.0,0.0,0.0,0.0,0.0,0.0,0.0,0.0,0.0,0.0,0.0,0.0,0.0,0.0,0.0,0.0,0.0,0.0,0.0,0.0,0.0,0.0,0.0,0.0,0.0,0.0,0.0,0.0,0.0,0.0,0.0,0.0,0.0,0.0,0.0,0.0,0.0,0.0,0.0,0.0,0.0,0.0,-3.8429,-3.7925,-3.9353,-4.0201,-4.0353,-3.8705,-3.7981,-3.8155,-3.5615,-3.4394,-3.4798,0.0,0.0,0.0,0.0,0.0,0.0,0.0,0.0,0.0,0.0,0.0,0.0,0.0,0.0,0.0,0.0,0.0,0.0,0.0,0.0,0.0,0.0,0.0,0.0,0.0,0.0,-4.0646,-4.0469,-4.0155,0.0,0.0,0.0,0.0,0.0,0.0,0.0,0.0,0.0,0.0,-2.5517,-2.4359,-2.2756,-2.3577,-2.6118,-3.1264,-3.2977,-3.5474,-4.0178,-3.8779,-3.7071,0.0,0.0,0.0,0.0,0.0,0.0,0.0,0.0,0.0,0.0,0.0,0.0,0.0,0.0,0.0,0.0,0.0,0.0,0.0,0.0,0.0,0.0,0.0,0.0,0.0,0.0,0.0,-3.3257,-3.3804,0.0,0.0,0.0,0.0,0.0,0.0,0.0,0.0,0.0,0.0,0.0,-2.256,-1.9143,0.0,0.0,0.0,0.0,0.0,0.0,0.0,0.0,0.0,0.0,0.0,0.0,-3.8916,-3.7789,-3.9598,-4.0466,-4.0161,-3.9172,-3.8661,-3.8764,-3.7898,-3.694,-3.5975,0.0,0.0,0.0,0.0,0.0,0.0,0.0,0.0,0.0,0.0,0.0,0.0,0.0,0.0,0.0,0.0,0.0,0.0,0.0,0.0,0.0,0.0,0.0,0.0,0.0,-4.174,0.0,0.0,0.0,0.0,0.0,0.0,0.0,0.0,0.0,0.0,0.0,-2.6987,-2.5265,-2.2917,-2.0976,-2.0234,-2.1049,-2.2563,0.0,0.0,0.0,0.0,0.0,0.0,0.0,0.0,0.0,0.0,0.0,0.0,0.0,0.0,-4.2252,-4.1691,-4.2004,-4.2403,-4.2576,0.0,0.0,0.0,0.0,0.0,0.0,0.0,0.0,0.0,0.0,0.0,0.0,0.0,0.0,0.0,0.0,-2.9121,0.0,0.0,0.0,0.0,0.0,0.0,0.0,0.0,-1.9295,-1.6451,-1.594,-1.2594,-1.2632,0.0,-1.6738,-1.9577,0.0,0.0,0.0,0.0,0.0,0.0,0.0,0.0,-3.6092,-3.3208,-3.5396,-3.6387,-3.5843,-3.5578,-3.5335,-3.5173,-3.5317,-3.4737,-3.3285,-2.9824,-2.8907,0.0,0.0,0.0,0.0,0.0,0.0,0.0,0.0,0.0,0.0,0.0,0.0,0.0,0.0,0.0,0.0,0.0,0.0,0.0,0.0,0.0,0.0,0.0,-3.8983,0.0,0.0,0.0,0.0,0.0,0.0,0.0,0.0,0.0,-3.115,-2.7197,-2.4261,-2.4122,-2.1669,-2.007,-2.0641,0.0,0.0,0.0,0.0,0.0,0.0,0.0,-2.8587,-2.5612,-2.746,-3.0429,-3.3529,-3.7626,-4.1,-4.2473,0.0,0.0,-4.2489,-4.2773,-4.3102,-4.2946,-4.2823,-4.2563,-4.2085,-4.1879,-4.1677,0.0,0.0,0.0,0.0,0.0,0.0,0.0,0.0,-2.2693,-2.2895,0.0,-2.3416,0.0,0.0,0.0,0.0,0.0,0.0,0.0,0.0,-0.9429,-0.5632,-0.4094,-0.4572,-0.3905,-0.2349,-0.4551,-0.7418,-1.1015,-1.8522,0.0,0.0,0.0,0.0,0.0,0.0,-3.0158,-2.4912,-2.7328,-2.839,-2.8104,-2.8319,-2.8262,-2.7965,-2.8358,-2.8143,-2.7153,-2.6591,-2.579,-2.4713,-2.7162,0.0,0.0,0.0,0.0,0.0,0.0,0.0,0.0,0.0,0.0,0.0,0.0,0.0,0.0,0.0,0.0,0.0,0.0,0.0,0.0,-3.4461,0.0,0.0,0.0,0.0,0.0,0.0,0.0,0.0,0.0,0.0,-2.7067,-2.4895,-2.3145,-2.3366,0.0,0.0,0.0,0.0,-2.5777,-2.6193,-2.7059,-2.8014,-2.9192,-2.726,-2.5542,-2.5169,0.0,0.0,-3.0318,-3.384,-3.7272,-4.1768,-4.3088,-4.3694,-4.3323,-4.3421,-4.3218,-4.2381,-4.2235,-4.2041,-4.1956,-4.1994,-4.1848,-1.1884,0.0,0.0,0.0,0.0,-2.2029,-2.1484,-1.8815,-1.9202,-1.9526,-1.974,-1.9775,0.0,0.0,0.0,0.0,0.0,0.0,-1.4703,-1.2674,-1.1089,-0.7193,-0.1495,-0.2694,-0.1991,0.0297,-0.2472,-0.3264,-0.2531,-0.6705,-1.3574,-2.2768,0.0,0.0,0.0,0.0,-2.6881,-2.4847,-2.489,-2.5562,-2.6766,-2.395,-2.3072,-2.4257,-2.4431,-2.497,-2.5958,-2.284,-2.1932,-2.3693,-2.1776,0.0,0.0,0.0,0.0,0.0,0.0,0.0,0.0,0.0,0.0,0.0,0.0,0.0,0.0,0.0,0.0,0.0,0.0,0.0,-3.9795,-3.631,-3.4124,0.0,0.0,0.0,0.0,0.0,0.0,0.0,0.0,0.0,-2.3921,-2.1849,-2.0857,0.0,0.0,-2.0104,-2.198,-2.2268,-2.2313,-2.2292,0.0,0.0,0.0,-2.6186,-2.5978,-2.308,-2.3385,-2.4743,-2.6517,-3.0028,-3.4023,-3.8415,-3.9545,-4.0773,-4.3824,-4.4595,-4.4434,-4.3906,-4.4122,-4.4091,-4.305,-4.3052,-4.3158,-0.4528,-0.8517,-1.1915,-1.3029,-1.2785,-1.575,-1.5478,-1.2979,-1.324,-1.348,-1.348,-1.3597,-1.4695,-1.6644,-1.9067,0.0,0.0,0.0,-1.0355,-0.7943,-0.6918,-0.4027,0.02,0.02,0.11,0.2993,0.0,0.0,0.2697,-0.0198,-0.5811,-1.4179,0.0,0.0,-1.7069,-1.9627,-1.9768,-1.7522,-1.7223,-1.7683,-1.8643,-1.6017,-1.5137,-1.6332,-1.6409,-1.6937,-1.8013,-1.5851,-1.5418,-1.7115,-1.6995,-1.7734,0.0,0.0,0.0,0.0,0.0,0.0,0.0,0.0,0.0,0.0,0.0,-4.1226,-4.1237,0.0,0.0,0.0,-3.4881,-3.4539,-3.4652,-3.1587,0.0,0.0,0.0,0.0,0.0,0.0,0.0,-2.4948,-2.3145,-2.1599,-2.0434,-1.902,-1.8791,-2.0714,-1.948,-1.8966,-2.0498,0.0,-2.0227,-2.0426,-2.1289,-2.202,-2.2399,-2.3885,-2.4193,-2.1813,-2.2056,-2.3491,-2.5118,-2.7147,-3.0691,-3.6112,-3.8018,-3.9608,-4.4173,-4.5094,-4.4934,-4.44,-4.4666,-4.4666,-4.3703,-4.3826,-4.3924,0.1594,-0.0298,-0.5583,-0.6611,-0.5034,-0.7324,-0.7421,-0.6014,-0.6111,-0.5958,-0.5866,-0.6069,-0.629,-0.6935,-1.1204,0.0,-0.3837,-0.6928,-0.5857,-0.1602,0.0898,0.2099,0.2103,0.3692,0.4986,0.5797,0.2865,0.2867,0.5198,0.253,0.0576,-0.0766,-0.6827,-0.8544,-0.6196,-1.0548,-1.0595,-0.617,-0.6837,-0.6905,-0.6533,-0.6153,-0.6051,-0.6309,-0.6235,-0.6412,-0.6524,-0.7429,-0.776,-0.7628,-1.2499,-1.5499,-1.5909,0.0,0.0,0.0,0.0,0.0,0.0,0.0,0.0,0.0,0.0,0.0,0.0,0.0,0.0,0.0,-2.7195,0.0,-2.458,-2.3382,0.0,0.0,0.0,-2.7104,-2.6681,-2.4641,-2.3289,-2.308,0.0,0.0,-1.7403,0.0,-1.7406,-1.9451,-1.8493,-1.8087,-1.9288,-1.9221,-1.923,-1.9785,-1.9524,-1.9611,-2.0862,-2.1255,-2.1296,-2.0941,-1.9694,-2.0334,-2.3746,-2.4135,-2.7358,-3.4697,-3.6793,-3.8336,-4.3254,-4.3521,-4.379,-4.3808,-4.4192,-4.4327,-4.4192,-4.4268,-4.4325,0.4403,0.4597,0.2265,-0.0197,-0.2486,-0.3472,-0.3479,-0.28,-0.3196,-0.3086,-0.2772,-0.3587,-0.3978,-0.4126,-0.404,-0.3025,-0.1284,-0.1415,-0.0476,0.1402,0.2402,0.3704,0.5211,0.5103,0.6297,0.8297,0.5487,0.4993,0.6907,0.4872,0.3641,0.31,0.1569,-0.164,-0.6276,-0.6943,-0.6744,-0.5724,-0.4101,-0.2567,-0.1204,-0.2104,-0.2701,-0.2798,-0.2599,-0.3196,-0.4595,-0.4895,-0.5298,-0.6098,-0.7966,-0.9345,-1.0248,-1.9385,0.0,0.0,0.0,0.0,0.0,0.0,0.0,0.0,0.0,-3.6083,-3.6215,0.0,-3.7299,0.0,-2.1147,-2.1045,-2.7758,-2.4553,0.0,0.0,-2.5191,-2.5001,-2.1798,-2.2737,-2.2859,-2.0717,-2.0458,-2.03,-1.9738,-1.9178,-1.8981,-1.9384,-1.7658,-1.7102,-1.9064,-1.8885,-1.8489,-1.8311,-1.9103,-2.0117,-2.0477,-2.0495,-2.0201,-1.9341,-1.8345,-1.8118,-1.9324,-1.8892,-2.0242,-2.5495,-2.6634,-2.9583,-3.6788,-3.5437,-3.6144,-4.1819,-4.441,-4.494,-4.44,-4.4689,-4.5093,0.8096,0.81,0.7489,0.5681,0.3087,0.0998,0.03,0.0499,-0.03,-0.02,0.0498,-0.0599,-0.13,-0.1703,-0.0803,0.0402,0.1902,0.2404,0.3108,0.4214,0.5404,0.6305,0.6918,0.7307,0.8598,1.0592,0.8693,0.8396,0.9296,0.8195,0.6961,0.5718,0.5716,0.3303,-0.133,-0.1608,-0.1805,-0.2305,-0.0194,0.1675,0.3213,0.2405,0.1595,0.099,0.168,0.1181,-0.0488,-0.078,-0.1657,-0.331,-0.4776,-0.6217,-0.778,-1.4133,-1.74,0.0,0.0,0.0,0.0,0.0,0.0,0.0,0.0,0.0,0.0,0.0,-3.2469,-2.3306,-1.9102,-1.8948,-2.3775,-2.1825,-2.068,-2.1718,-2.2382,-2.2073,-2.0218,-2.1067,-2.1355,-2.0105,-2.0307,-2.0357,-1.9539,-1.9144,-1.8828,-1.8583,-1.7313,-1.6939,-1.8171,-1.8004,-1.758,-1.7584,-1.8163,-1.8757,-1.9358,-1.9589,-1.9445,-1.8846,-1.7969,-1.7359,-1.7262,-1.6538,-1.7383,-2.1276,-2.2667,-2.5034,-3.1466,-3.1429,-3.1746,-3.5718,-3.7926,-3.9756,-4.3695,-4.4997,-4.5322,1.1663,1.0951,1.1049,1.0547,0.9449,0.5874,0.4189,0.3892,0.2899,0.2899,0.3598,0.2602,0.1705,0.0804,0.0804,0.251,0.532,0.542,0.6019,0.7114,0.8806,0.9103,0.8301,0.9903,1.1189,1.2073,1.1878,1.1775,1.178,1.1375,0.9968,0.7773,0.7579,0.6721,0.5147,0.4017,0.3041,0.2188,0.3774,0.5114,0.6281,0.6273,0.5625,0.4374,0.5429,0.5487,0.4175,0.3693,0.2359,0.0094,-0.2073,-0.4256,-0.6361,-0.8274,-1.0573,0.0,-1.5908,0.0,0.0,0.0,0.0,0.0,0.0,0.0,0.0,-2.7941,-2.6331,-2.2986,-1.9218,-1.7064,-1.7401,-1.8081,-1.8553,-1.8848,-1.8889,-1.9379,-2.0314,-1.9903,-1.9704,-2.0076,-1.9941,-1.9318,-1.8398,-1.8048,-1.78,-1.7766,-1.7459,-1.7382,-1.7552,-1.7162,-1.6916,-1.7579,-1.7036,-1.7242,-1.7777,-1.8395,-1.8668,-1.8394,-1.7675,-1.7206,-1.6704,-1.5972,-1.6431,-1.9487,-2.0794,-2.309,-2.7427,-2.8104,-2.8364,-3.0108,-2.9798,-3.2158,-4.0831,-4.3599,-4.4438,1.3465,1.3459,1.2893,1.2506,1.2302,1.0947,0.9371,0.7779,0.7486,0.6799,0.5815,0.5615,0.5413,0.5216,0.5216,0.6509,0.8693,0.8693,0.928,1.0258,1.1244,1.1633,1.1429,1.2231,1.2732,1.2834,1.264,1.2441,1.2441,1.1663,1.0891,1.0158,0.9388,0.8247,0.6862,0.0,0.0,0.0,0.4159,0.4785,0.5664,0.5307,0.5253,0.5693,0.5797,0.0,0.65,0.5761,0.4714,0.3563,0.1785,0.0,0.0,0.0,0.0,0.0,0.0,0.0,0.0,0.0,0.0,0.0,-2.1641,-2.269,-2.2302,-1.9751,-1.9367,-2.2321,-1.9537,-1.7354,-1.7383,-1.7972,-1.8446,-1.8509,-1.8967,-1.9455,-1.9521,-1.9877,-1.9886,-1.9155,-1.8839,-1.8499,-1.8217,-1.7922,-1.7776,-1.7936,-1.7811,-1.778,-1.8104,-1.7286,-1.6754,-1.6884,-1.7274,-1.7235,-1.6738,-1.7258,-1.7205,-1.6089,-1.5772,-1.5735,-1.5611,-1.5342,-1.5022,-1.6234,-1.5833,-1.7106,-2.1007,-1.9503,-2.0041,-2.6786,-2.5893,-2.6968,-3.659,-3.869,-3.993,1.5305,0.0,1.5114,1.5019,0.0,1.4746,1.3753,1.2174,1.0445,0.9072,0.798,0.8477,0.8379,0.7977,0.798,0.8867,1.0351,1.0821,1.1696,1.2673,1.3532,1.4005,1.4005,1.4214,1.4601,1.5076,1.4981,1.4702,1.4244,1.3765,1.294,1.1793,1.0826,0.9908,0.9236,0.9328,0.842,0.6432,0.6497,0.704,0.7973,0.8201,0.8112,0.7834,0.0,0.0,0.0,0.0,0.0,0.0,0.0,0.0,0.0,0.0,0.0,-0.4055,-0.7285,-0.9533,-1.0391,-1.184,-1.2834,-1.3157,-1.5105,-1.6777,-1.7861,-1.6458,-1.6629,-1.9113,-1.788,-1.6937,-1.6919,-1.7629,-1.8115,-1.7861,-1.8116,-1.8377,-1.854,-1.8548,-1.8361,-1.7784,-1.7609,-1.7486,-1.6953,-1.6837,-1.6922,-1.7076,-1.6905,-1.6767,-1.6926,-1.7195,-1.7274,-1.7307,-1.7454,-1.7518,-1.6888,-1.6742,-1.6639,-1.5721,-1.5528,-1.5339,-1.5079,-1.4917,-1.4647,-1.4104,-1.4037,-1.5082,-1.6204,-1.5363,-1.5634,-1.9056,-1.8718,-2.0775,-3.0149,-3.4899,-3.7825,1.6965,1.6958,1.7138,1.7131,1.7138,1.7138,1.6741,1.5765,0.0,0.0,0.0,1.139,1.1288,1.0493,1.0586,1.1172,1.2261,1.3008,1.4064,1.5227,1.5886,1.6355,1.6441,1.6268,1.6649,1.7502,1.7509,1.7059,1.6236,1.6135,1.5095,1.3204,1.2231,1.1653,1.1463,1.1463,1.0692,0.9188,0.936,0.9996,1.0933,1.1681,1.1461,1.0207,1.2114,1.2587,1.1431,1.0997,1.0057,0.8513,0.573,0.3495,0.2087,0.057,-0.0567,-0.1303,-0.2412,-0.3485,-0.4578,-0.6435,-0.7757,-0.8253,-1.0763,-1.3028,-1.4754,-1.5357,-1.5708,-1.5941,-1.6267,-1.6422,-1.6566,-1.7219,-1.7548,-1.7087,-1.7072,-1.7159,-1.7406,-1.7049,-1.6647,-1.6309,-1.6357,-1.6219,-1.5548,-1.5536,-1.5711,-1.5801,-1.5726,-1.5665,-1.5807,-1.6822,-1.7778,-1.8135,-1.8137,-1.7803,-1.7374,-1.7086,-1.6634,-1.6183,-1.6063,-1.5663,-1.5186,-1.4807,-1.4353,-1.3662,-1.4139,-1.4376,-1.3876,-1.4136,-1.3998,-1.2995,-1.3391,-1.6028,-2.4476,-3.2238,-3.7479,1.828,1.845,1.7878,1.7598,1.7591,1.6951,1.677,1.6648,1.4613,1.364,1.3634,1.4189,1.4374,1.4266,1.4634,1.5396,1.6348,1.6535,1.7387,0.0,1.8564,1.8656,1.9182,1.8656,1.8403,1.8596,1.8588,1.8319,1.7755,1.7245,1.6209,1.474,1.404,1.3363,1.2533,1.2533,1.2318,1.2088,1.1808,1.2104,1.3008,1.2516,1.2481,1.2991,1.3003,1.3259,1.3755,1.3036,1.2102,1.1151,0.9965,0.8554,0.6981,0.5627,0.4357,0.2702,0.0965,-0.0952,-0.3221,-0.5216,-0.742,-0.9927,-1.1311,-1.2546,-1.3783,-1.4853,-1.5595,-1.5857,-1.5929,-1.6372,-1.7113,-1.6727,-1.6558,-1.6858,-1.6873,-1.6529,-1.5874,-1.6132,-1.6037,-1.5349,-1.496,-1.4843,-1.4715,-1.4327,-1.4398,-1.4999,-1.4965,-1.5234,-1.6088,-1.6783,-1.7712,-1.8937,-1.9074,-1.8637,-1.8002,-1.7972,-1.7305,-1.6535,-1.635,-1.6209,-1.5833,-1.536,-1.4943,-1.4798,-1.4696,-1.44,-1.3779,-1.4322,-1.4184,-1.3431,-1.6132,-2.0542,-2.3214,-3.1056,-3.8751,1.8373,1.8566,1.8272,1.8172,1.8257,1.7986,1.7893,1.7885,1.7102,1.6337,1.5967,1.6135,1.6236,1.6236,1.6511,1.6793,1.7274,1.7817,1.8732,1.9943,2.0232,2.0773,2.1489,2.0782,2.0421,2.0331,1.9812,1.9163,1.8511,1.8211,1.7461,1.6278,1.5114,1.3765,1.263,1.3578,1.425,1.4339,1.3093,1.2661,1.3048,1.3772,1.4359,1.4823,1.5555,1.6028,1.5879,1.5015,1.408,1.3157,1.1062,0.9581,0.889,0.7223,0.5422,0.3514,0.2537,0.1056,-0.1295,-0.3281,-0.5573,-0.8436,-0.9387,-1.0595,-1.2328,-1.3366,-1.4128,-1.4525,-1.4747,-1.5088,-1.5526,-1.538,-1.5234,-1.5247,-1.5154,-1.4895,-1.4549,-1.4722,-1.4809,-1.4562,-1.4276,-1.4111,-1.4018,-1.3822,-1.3822,-1.4257,-1.4137,-1.4509,-1.5588,-1.585,-1.6528,-1.7985,-1.8026,-1.7666,-1.739,-1.6937,-1.6404,-1.5825,-1.5644,-1.5629,-1.5642,-1.5363,-1.5153,-1.5216,-1.514,-1.486,-1.4196,-1.4286,-1.389,-1.3228,-1.416,-1.7716,-2.3815,-3.379,-4.1891,1.8819,1.902,1.9012,1.9196,1.9363,1.9371,1.9371,1.9455,1.9455,1.8988,1.8334,1.7971,1.7792,1.7792,1.7978,1.7978,1.8064,1.8796,1.9695,2.0773,2.115,2.1971,2.2765,2.1872,2.1436,2.1347,2.0645,1.982,1.9072,1.9155,1.8796,1.7684,1.6082,1.4651,1.3482,1.5095,1.6142,1.6243,1.4816,1.4058,1.4148,1.567,1.6425,1.6612,1.794,1.8419,1.7692,1.6908,1.5866,1.4663,1.2308,1.0751,0.9981,0.8403,0.6569,0.4622,0.3931,0.2418,-0.028,-0.2176,-0.4283,-0.6681,-0.7643,-0.8769,-1.0418,-1.1305,-1.2351,-1.3326,-1.3668,-1.3885,-1.4338,-1.4183,-1.4045,-1.3919,-1.3815,-1.3678,-1.3489,-1.3652,-1.3737,-1.3822,-1.3561,-1.3483,-1.3646,-1.3542,-1.3502,-1.3716,-1.3705,-1.3989,-1.4656,-1.4917,-1.5558,-1.6282,-1.6662,-1.6741,-1.6574,-1.6197,-1.5717,-1.5248,-1.4962,-1.5064,-1.5159,-1.507,-1.4962,-1.5026,-1.5134,-1.5051,-1.4734,-1.4644,-1.4088,-1.3278,-1.4422,-1.8133,-2.8199,-3.626,-4.376,2.0447,2.0727,2.0637,2.0898,2.0979,2.0979,2.1159,2.1338,2.1427,2.1418,2.097,1.9985,1.9363,1.9455,1.9828,1.9911,2.0011,2.0102,2.0979,2.212,2.1078,2.1257,2.257,2.1257,2.0473,2.0464,2.0382,2.0011,1.9546,2.0266,2.0175,1.9255,1.7777,1.6943,1.6842,1.749,1.7855,1.7855,1.8133,1.8218,1.8218,1.8411,1.8511,1.8511,1.8696,1.8788,1.8703,1.8603,1.7654,1.5866,1.5285,1.3945,1.1453,1.0872,0.978,0.7595,0.5695,0.2756,-0.1426,-0.3383,-0.473,-0.6325,-0.7207,-0.8006,-0.8707,-0.8886,-1.0443,-1.2863,-1.3319,-1.3411,-1.4636,-1.3574,-1.3162,-1.3964,-1.3711,-1.3392,-1.2796,-1.3476,-1.3737,-1.2875,-1.2839,-1.2966,-1.3338,-1.2942,-1.2875,-1.341,-1.3586,-1.3743,-1.4007,-1.4327,-1.4512,-1.514,-1.6089,-1.664,-1.6278,-1.6393,-1.5913,-1.5439,-1.5153,-1.4968,-1.4796,-1.4592,-1.4382,-1.4835,-1.4848,-1.4975,-1.507,-1.5255,-1.533,-1.5052,-1.8029,-2.4564,-3.3556,-3.7604,-4.0208,2.0447,2.0727,2.0727,2.0898,2.1078,2.1168,2.1168,2.1257,2.1427,2.1418,2.1418,2.0979,2.0799,2.0898,2.1069,2.1087,2.1078,2.1078,2.1784,2.2824,2.2217,2.2589,2.3551,2.258,2.1961,2.1784,2.0889,2.0184,1.9994,1.982,1.9271,1.8519,1.8064,1.7785,1.7598,1.8603,1.9247,1.9422,2.0167,2.0538,2.0439,1.9985,1.9704,1.9704,2.0257,2.0257,1.9704,1.9338,1.8596,1.7188,1.5866,1.4543,1.3301,1.2247,1.0681,0.8294,0.5398,0.2702,0.0095,-0.1281,-0.2771,-0.4641,-0.5176,-0.6062,-0.7478,-0.7837,-0.8877,-1.0682,-1.0778,-1.0956,-1.1632,-1.1219,-1.1128,-1.1718,-1.1643,-1.1397,-1.1413,-1.1886,-1.2139,-1.2057,-1.201,-1.2032,-1.2085,-1.1761,-1.1722,-1.2133,-1.2434,-1.2764,-1.2692,-1.2885,-1.3022,-1.2942,-1.3494,-1.4351,-1.4949,-1.5248,-1.507,-1.4796,-1.4406,-1.4124,-1.4666,-1.4527,-1.4388,-1.4841,-1.5242,-1.5547,-1.5662,-1.5527,-1.5657,-1.6483,-1.9668,-2.5668,-3.217,-3.519,-3.8676,2.0808,2.1168,2.1266,2.1436,2.1704,2.1704,2.1704,2.1793,2.1961,2.1971,2.205,2.2236,2.2403,2.2325,2.1961,2.1695,2.1695,2.1695,2.2217,2.3008,2.2833,2.3193,2.4003,2.3193,2.2746,2.2482,2.132,2.061,2.0348,1.9271,1.8542,1.8249,1.8434,1.8342,1.8156,1.9255,1.9894,2.0175,2.0907,2.1284,2.1195,2.0817,2.0529,2.0529,2.1177,2.1096,2.0348,1.9712,1.898,1.7963,1.6163,1.4841,1.437,1.313,1.117,0.8474,0.5446,0.2961,0.1519,0.0184,-0.1351,-0.3312,-0.3669,-0.4559,-0.6334,-0.6691,-0.7214,-0.8261,-0.8269,-0.8448,-0.9401,-0.9575,-0.9662,-0.9749,-0.974,-0.9937,-1.0022,-1.0336,-1.0786,-1.086,-1.0706,-1.0755,-1.078,-1.089,-1.1237,-1.1336,-1.1517,-1.1622,-1.1738,-1.1961,-1.2063,-1.1873,-1.1858,-1.2441,-1.3619,-1.3709,-1.363,-1.3955,-1.3756,-1.3846,-1.4522,-1.4545,-1.449,-1.5045,-1.5818,-1.6473,-1.6756,-1.6532,-1.7179,-1.8696,-2.1104,-2.4798,-3.0425,-3.3047,-3.6745,2.2432,2.2706,2.2882,2.3047,2.3329,2.3319,2.3406,2.3396,2.358,2.3657,2.357,2.3851,2.4024,2.3851,2.2501,2.1784,2.1784,2.1872,2.2306,2.3096,2.2306,2.2306,2.3096,2.2217,2.1872,2.2138,2.1863,2.1427,2.0898,1.9546,1.9104,1.9455,1.9096,1.8827,1.8819,1.9363,1.9646,1.9828,2.0192,2.0382,2.0464,2.0727,2.0907,2.0907,2.0997,2.0826,2.0283,1.9621,1.878,1.7785,1.6828,1.5596,1.3896,1.342,1.1741,0.8769,0.6298,0.4062,0.1995,0.0372,-0.1369,-0.3053,-0.3044,-0.3849,-0.5544,-0.5097,-0.5184,-0.6337,-0.6428,-0.7041,-0.8607,-0.9048,-0.9235,-0.9152,-0.9396,-0.9138,-0.8591,-0.9444,-0.9691,-0.9284,-0.9169,-0.9245,-0.9387,-1.0729,-1.115,-1.1347,-1.1616,-1.1745,-1.1633,-1.1945,-1.195,-1.1955,-1.1955,-1.215,-1.1868,-1.2446,-1.2764,-1.3186,-1.3568,-1.3522,-1.4328,-1.4923,-1.4987,-1.5242,-1.5974,-1.6807,-1.7647,-1.8792,-2.0142,-2.0916,-2.0476,-2.3766,-2.9658,-3.0391,-3.379,2.2362,2.253,2.2794,2.2979,2.3067,2.3144,2.3309,2.3406,2.358,2.358,2.3677,2.3851,2.3927,2.3937,2.3299,2.3202,2.3474,2.3474,2.3647,2.3917,2.3647,2.3647,2.3907,2.3647,2.3474,2.3387,2.2931,2.2217,2.1436,2.0889,2.0439,2.0175,2.0175,1.9911,1.9554,1.9828,2.0011,2.0102,2.0201,2.0292,2.0292,2.0464,2.0464,2.0184,2.1006,2.1275,2.0736,2.0175,1.9355,1.8156,1.7124,1.6001,1.4758,1.3017,1.1458,0.9866,0.7287,0.5133,0.3896,0.2051,0.0366,-0.1076,-0.1701,-0.2509,-0.3671,-0.3671,-0.3671,-0.4204,-0.4917,-0.5625,-0.5974,-0.6946,-0.7521,-0.7606,-0.7628,-0.7677,-0.766,-0.8045,-0.8324,-0.8189,-0.8013,-0.7924,-0.8044,-0.8564,-0.9087,-0.947,-0.9751,-0.9998,-1.0212,-1.0404,-1.0596,-1.04,-1.0301,-1.0404,-1.09,-1.196,-1.2845,-1.3077,-1.3471,-1.3709,-1.428,-1.4496,-1.4573,-1.5967,-1.6605,-1.7796,-1.8945,-2.1007,-2.2464,-2.2834,-2.233,-2.4482,-2.951,-3.0043,-3.2699,2.2185,2.2353,2.253,2.2706,2.2706,2.2882,2.2969,2.3057,2.3242,2.3416,2.3406,2.358,2.3667,2.3754,2.3754,2.3927,2.4282,2.4282,2.4368,2.4454,2.4454,2.4454,2.4454,2.455,2.455,2.4272,2.3193,2.2306,2.1695,2.1069,2.0439,1.9803,2.0175,1.9994,1.9463,1.9646,1.9837,1.9837,1.9828,1.9837,1.9828,2.0019,1.9911,1.982,2.0645,2.0916,2.0365,1.9729,1.8996,1.787,1.6756,1.5818,1.4956,1.292,1.1365,1.0565,0.8112,0.6152,0.5181,0.3203,0.1479,0.0271,-0.0539,-0.1435,-0.2777,-0.2688,-0.2688,-0.3132,-0.3757,-0.4204,-0.4204,-0.4914,-0.5662,-0.6195,-0.6303,-0.6444,-0.6665,-0.689,-0.7093,-0.7271,-0.7394,-0.7233,-0.688,-0.7039,-0.7239,-0.7403,-0.7915,-0.8421,-0.8528,-0.9229,-0.9533,-0.9331,-0.9624,-1.0015,-1.0605,-1.1673,-1.2775,-1.3202,-1.346,-1.3794,-1.4297,-1.4423,-1.5089,-1.6483,-1.7888,-1.9036,-2.0788,-2.2935,-2.4055,-2.4625,-2.525,-2.6698,-2.894,-2.9709,-3.2154,2.2106,2.2097,2.2353,2.2432,2.2441,2.2706,2.2794,2.2891,2.3057,2.3144,2.3232,2.3406,2.3493,2.3503,2.3667,2.3754,2.3841,2.3841,2.4013,2.4378,2.4292,2.4282,2.4454,2.4454,2.4454,2.4368,2.2668,2.1784,2.1695,2.0167,1.9271,1.9004,1.9096,1.9188,1.8835,1.892,1.892,1.892,1.892,1.892,1.892,1.9371,1.9554,1.9554,2.0011,1.9837,1.892,1.8342,1.7692,1.677,1.5913,1.5057,1.4292,1.3028,1.2047,1.0578,0.8682,0.7042,0.5569,0.3454,0.1785,0.0828,0.0272,-0.0718,-0.2238,-0.188,-0.1792,-0.2861,-0.3309,-0.34,-0.322,-0.3578,-0.4214,-0.5382,-0.5502,-0.5549,-0.5736,-0.5925,-0.617,-0.6243,-0.6572,-0.6617,-0.6121,-0.6095,-0.6291,-0.5912,-0.662,-0.7518,-0.7521,-0.8421,-0.9229,-0.9232,-0.9324,-0.9513,-1.0502,-1.1492,-1.2412,-1.3224,-1.346,-1.3782,-1.4886,-1.533,-1.6037,-1.74,-1.9428,-2.0721,-2.223,-2.4255,-2.5618,-2.6358,-2.7348,-2.7995,-2.9103,-3.0104,-3.0882,2.1544,2.183,2.2097,2.2176,2.2176,2.2441,2.2618,2.2803,2.2891,2.2979,2.3144,2.3144,2.3222,2.3232,2.3319,2.3406,2.358,2.3406,2.357,2.3927,2.3937,2.3927,2.4013,2.4013,2.4013,2.3841,2.2755,2.2217,2.1952,2.1051,2.024,1.9712,1.9712,1.9363,1.8651,1.8743,1.8735,1.8658,1.8743,1.8827,1.8827,1.9012,1.9004,1.9104,1.9188,1.9104,1.8827,1.8904,1.8257,1.6683,1.6001,1.4949,1.3431,1.2262,1.1179,1.0002,0.8718,0.7372,0.6074,0.442,0.292,0.2124,0.1631,0.0628,-0.0806,-0.0179,-0.009,-0.1075,-0.1703,-0.206,-0.2151,-0.2686,-0.3239,-0.383,-0.3839,-0.3954,-0.4208,-0.435,-0.4393,-0.4436,-0.4743,-0.4694,-0.4678,-0.498,-0.5053,-0.4997,-0.5807,-0.641,-0.6614,-0.7394,-0.7922,-0.7932,-0.8319,-0.9166,-1.0206,-1.1101,-1.2019,-1.3121,-1.3601,-1.4096,-1.5219,-1.6155,-1.6948,-1.8467,-2.0531,-2.23,-2.3879,-2.5307,-2.6586,-2.7385,-2.783,-2.8795,-2.9859,-3.06,-3.1185,2.1006,2.1454,2.1642,2.182,2.2008,2.2185,2.2353,2.2539,2.2627,2.2696,2.2882,2.2969,2.2969,2.2969,2.3057,2.3232,2.3319,2.3144,2.3222,2.3484,2.3677,2.3754,2.3754,2.3841,2.3841,2.3657,2.2843,2.2394,2.2306,2.1221,2.0331,1.9977,1.972,1.9279,1.8658,1.8743,1.8735,1.8651,1.8735,1.8827,1.8827,1.8827,1.8827,1.8827,1.8827,1.8827,1.8819,1.9104,1.8627,1.7138,1.5994,1.4663,1.3147,1.2273,1.1189,0.9792,0.8856,0.7902,0.6454,0.4869,0.3932,0.3318,0.2625,0.1792,0.1075,0.1524,0.1256,0.0538,-0.009,-0.0627,-0.0897,-0.1524,-0.1984,-0.1913,-0.2643,-0.2947,-0.3275,-0.3385,-0.3592,-0.3801,-0.3906,-0.3751,-0.3489,-0.3808,-0.3878,-0.3912,-0.4812,-0.5613,-0.5811,-0.6603,-0.7009,-0.7508,-0.8275,-0.9115,-0.987,-1.073,-1.1636,-1.2777,-1.3933,-1.4637,-1.5514,-1.6446,-1.7308,-1.9316,-2.1387,-2.2737,-2.4302,-2.6035,-2.736,-2.7846,-2.8176,-2.9231,-3.0146,-3.0474,-3.0977,2.0555,2.0997,2.0997,2.1365,2.1731,2.2008,2.2097,2.2185,2.2264,2.2441,2.253,2.2706,2.2803,2.2794,2.2969,2.3047,2.3144,2.3144,2.3135,2.3222,2.3406,2.358,2.3667,2.3667,2.3667,2.357,2.2755,2.2315,2.2217,2.0692,1.9712,1.9812,1.9279,1.8658,1.8743,1.8735,1.8727,1.8743,1.8735,1.8827,1.8827,1.8735,1.8735,1.8735,1.8735,1.8735,1.8735,1.8735,1.8357,1.7412,1.5609,1.428,1.3437,1.2958,1.1575,0.9674,0.9425,0.8201,0.6588,0.5197,0.4436,0.4143,0.3259,0.2327,0.2418,0.2239,0.206,0.1435,0.1164,0.0806,0.0269,-0.0179,-0.018,-0.018,-0.144,-0.2448,-0.3121,-0.304,-0.3059,-0.3385,-0.3693,-0.3501,-0.2628,-0.3025,-0.2932,-0.284,-0.3901,-0.4691,-0.5363,-0.6154,-0.7187,-0.7777,-0.82,-0.8859,-0.9686,-1.0705,-1.1598,-1.2762,-1.3854,-1.4689,-1.5634,-1.6639,-1.8255,-2.0236,-2.1588,-2.3029,-2.4568,-2.6107,-2.7087,-2.7311,-2.8079,-2.9355,-2.9981,-3.0092,-3.062,2.0555,2.0988,2.1365,2.1553,2.1731,2.183,2.1919,2.2097,2.2176,2.2264,2.2353,2.2432,2.2618,2.2803,2.2882,2.2969,2.3057,2.3144,2.3144,2.3144,2.3135,2.3232,2.3309,2.3309,2.3319,2.3135,2.2403,2.1872,2.1872,2.0872,2.015,1.9621,1.9629,1.9288,1.8751,1.8743,1.8743,1.8658,1.8743,1.8827,1.8735,1.8658,1.8566,1.8574,1.8365,1.8272,1.8272,1.8272,1.7606,1.6365,1.493,1.3601,1.2559,1.197,1.0919,0.9336,0.8787,0.8034,0.6498,0.5428,0.4798,0.4324,0.416,0.3578,0.2148,0.2774,0.2685,0.215,0.188,0.188,0.1971,0.1522,0.1343,0.1165,0.009,-0.0809,-0.0993,-0.1175,-0.154,-0.1821,-0.2283,-0.2385,-0.2405,-0.2602,-0.2991,-0.3014,-0.3686,-0.4641,-0.5279,-0.5911,-0.7018,-0.7349,-0.7757,-0.8586,-0.9477,-1.0481,-1.1568,-1.2768,-1.3748,-1.4631,-1.5592,-1.656,-1.8789,-2.1201,-2.156,-2.2677,-2.4168,-2.5681,-2.613,-2.6788,-2.7903,-2.9103,-2.9134,-2.932,-3.0033,2.1168,2.1606,2.1971,2.2255,2.2451,2.2264,2.2274,2.2274,2.2087,2.1998,2.2176,2.2353,2.2432,2.2627,2.2794,2.2969,2.3057,2.3144,2.3144,2.3144,2.3135,2.3144,2.3135,2.3135,2.3144,2.296,2.2138,2.1784,2.1507,2.0602,1.9886,1.953,1.9438,1.9088,1.8566,1.8566,1.8558,1.8373,1.8465,1.8558,1.8458,1.8373,1.8381,1.8288,1.8179,1.8087,1.8087,1.8087,1.7318,1.5886,1.4644,1.3499,1.216,1.14,1.0426,0.9148,0.874,0.7854,0.6656,0.5807,0.5199,0.491,0.5037,0.448,0.3758,0.3937,0.3757,0.2953,0.2953,0.2865,0.2597,0.2417,0.2597,0.2865,0.1972,0.1076,0.0806,0.0538,0.009,-0.0359,-0.0808,-0.126,-0.146,-0.2191,-0.2753,-0.3233,-0.4152,-0.4896,-0.5537,-0.615,-0.6778,-0.7464,-0.8197,-0.9169,-0.9979,-1.0977,-1.1926,-1.3015,-1.4005,-1.4748,-1.5718,-1.6796,-1.8626,-2.0617,-2.1352,-2.2313,-2.3888,-2.5273,-2.6155,-2.6962,-2.7909,-2.8504,-2.8698,-2.8875,-2.9606,2.205,2.2394,2.2648,2.3028,2.3329,2.3057,2.2794,2.2715,2.2185,2.182,2.182,2.2167,2.2255,2.2353,2.2706,2.296,2.3057,2.3057,2.3057,2.3057,2.3144,2.3144,2.3047,2.2872,2.2784,2.2687,2.1961,2.1507,2.1051,1.9778,1.9247,1.9255,1.8719,1.8357,1.8373,1.8473,1.8381,1.8179,1.8179,1.8179,1.8179,1.8087,1.8087,1.8087,1.7986,1.7893,1.7994,1.7893,1.7124,1.5311,1.4841,1.3674,1.2216,1.1264,1.0469,0.9613,0.8826,0.8029,0.7054,0.6245,0.5741,0.5563,0.5198,0.5191,0.5102,0.4921,0.4385,0.3669,0.4117,0.376,0.3221,0.3044,0.3671,0.43,0.3673,0.2865,0.2237,0.1969,0.1522,0.0538,0.0359,0.009,-0.0628,-0.1523,-0.2601,-0.3272,-0.4174,-0.4904,-0.5623,-0.6326,-0.72,-0.8267,-0.9037,-0.9951,-1.0835,-1.1618,-1.241,-1.3272,-1.4304,-1.5228,-1.6049,-1.7163,-1.8473,-1.973,-2.0769,-2.2039,-2.3682,-2.4822,-2.5612,-2.6526,-2.7092,-2.7882,-2.8488,-2.8811,-2.9288,2.2306,2.2403,2.3047,2.3406,2.3493,2.356,2.3299,2.2803,2.2618,2.2185,2.182,2.182,2.1998,2.2185,2.2362,2.253,2.2794,2.2882,2.2969,2.3144,2.3144,2.3144,2.2872,2.2413,2.205,2.1784,2.1051,2.0503,2.0322,2.0141,1.9786,1.918,1.8996,1.8812,1.828,1.8187,1.8187,1.8087,1.8087,1.8087,1.7994,1.79,1.7815,1.7815,1.7613,1.752,1.752,1.752,1.656,1.5121,1.4435,1.3689,1.205,1.1191,1.0444,0.9653,0.9158,0.8297,0.7207,0.6716,0.6254,0.5819,0.5371,0.501,0.5099,0.4832,0.4476,0.4208,0.4569,0.475,0.4656,0.4924,0.5104,0.5196,0.4835,0.4206,0.3758,0.2862,0.1879,0.0896,0.0448,0.009,-0.0806,-0.1613,-0.2506,-0.3312,-0.4115,-0.4832,-0.5716,-0.6514,-0.7573,-0.8636,-0.9414,-1.0269,-1.1391,-1.2266,-1.3124,-1.3802,-1.4727,-1.5401,-1.6221,-1.7139,-1.8258,-1.929,-2.0346,-2.1679,-2.3012,-2.3464,-2.4033,-2.5153,-2.627,-2.6873,-2.7533,-2.8131,-2.8712,2.3018,2.3377,2.356,2.3907,2.4262,2.4337,2.4079,2.3657,2.3057,2.2627,2.2264,2.1998,2.2008,2.2106,2.2185,2.2441,2.253,2.2618,2.2618,2.2794,2.2794,2.2784,2.2608,2.1882,2.1436,2.1427,2.024,1.9604,1.9513,1.9239,1.8696,1.8542,1.8627,1.8365,1.8001,1.79,1.78,1.7707,1.7707,1.7707,1.7699,1.7613,1.7527,1.7527,1.7333,1.7333,1.7333,1.7333,1.6195,1.4785,1.4175,1.3377,1.1716,1.0899,1.0306,0.9867,0.9255,0.8746,0.7944,0.7129,0.6602,0.6257,0.5725,0.528,0.5102,0.4924,0.4746,0.4569,0.4931,0.5473,0.5646,0.5644,0.5733,0.573,0.5371,0.4832,0.4295,0.34,0.2506,0.1434,0.1076,0.0538,-0.0179,-0.1343,-0.2329,-0.3133,-0.4741,-0.5547,-0.6254,-0.7051,-0.7845,-0.8727,-0.951,-1.0549,-1.1837,-1.2863,-1.3886,-1.4566,-1.5151,-1.5658,-1.6154,-1.6992,-1.784,-1.8789,-1.954,-2.0752,-2.1875,-2.2105,-2.2828,-2.4357,-2.5419,-2.5891,-2.6329,-2.6812,-2.7406,2.382,2.4444,2.3983,2.4231,2.484,2.468,2.4413,2.4155,2.3309,2.2706,2.253,2.2185,2.2008,2.2097,2.2176,2.2264,2.2353,2.2441,2.2441,2.2441,2.253,2.252,2.2255,2.1624,2.1266,2.1338,1.9704,1.888,1.8603,1.7878,1.7792,1.7621,1.7621,1.7714,1.7621,1.7621,1.752,1.7419,1.7426,1.7426,1.7326,1.7333,1.7333,1.7333,1.7326,1.7333,1.7311,1.7066,1.6185,1.4179,1.3902,1.2653,1.1263,1.0513,1.0244,1.0225,0.9522,0.9095,0.864,0.7834,0.7217,0.6953,0.6343,0.5899,0.5719,0.5722,0.5458,0.5104,0.5196,0.5471,0.5557,0.5557,0.5644,0.5638,0.5191,0.4567,0.4119,0.3494,0.2601,0.2063,0.1524,0.1165,0.009,-0.0986,-0.1971,-0.3133,-0.483,-0.6169,-0.6789,-0.7319,-0.7937,-0.8636,-0.9419,-1.0885,-1.226,-1.2613,-1.3717,-1.4734,-1.5409,-1.5658,-1.5997,-1.691,-1.7669,-1.7924,-1.8766,-1.9916,-2.0782,-2.1222,-2.2167,-2.3685,-2.4392,-2.4638,-2.5062,-2.5495,-2.6091,2.4358,2.4454,2.379,2.3617,2.3704,2.3531,2.3173,2.257,2.2775,2.2441,2.1909,2.182,2.183,2.183,2.182,2.1909,2.2176,2.2264,2.2353,2.2353,2.2353,2.2344,2.2167,2.1535,2.1266,2.0799,1.9613,1.8796,1.8519,1.7885,1.7333,1.7333,1.7426,1.7426,1.7426,1.7326,1.7426,1.7326,1.7333,1.7333,1.7333,1.7333,1.7333,1.7333,1.7333,1.7311,1.7245,1.6977,1.5971,1.3932,1.3266,1.1923,1.0543,1.012,1.0182,1.006,0.9814,0.9423,0.8982,0.8715,0.8185,0.7746,0.7129,0.7044,0.7041,0.6779,0.6251,0.5897,0.5455,0.5285,0.5112,0.5377,0.5196,0.5013,0.4567,0.3855,0.3494,0.2778,0.2153,0.1705,0.1703,0.1344,0.009,-0.1165,-0.2329,-0.3312,-0.4563,-0.5633,-0.6254,-0.6874,-0.7496,-0.8281,-0.9148,-1.0956,-1.2845,-1.2693,-1.3124,-1.4391,-1.5068,-1.5484,-1.5982,-1.6894,-1.7425,-1.7474,-1.8051,-1.9103,-1.979,-2.0373,-2.1299,-2.2621,-2.3047,-2.3347,-2.4039,-2.4648,-2.4829,2.409,2.4454,2.3704,2.3434,2.3434,2.3444,2.2999,2.2287,2.2315,2.2236,2.1882,2.1722,2.1731,2.1731,2.1731,2.1741,2.1919,2.2008,2.1998,2.2008,2.1998,2.1998,2.2087,2.1544,2.1544,2.1266,2.0257,1.9163,1.8703,1.7707,1.7239,1.7333,1.7333,1.7333,1.7333,1.7333,1.7333,1.7333,1.7333,1.7333,1.7333,1.7333,1.7333,1.7333,1.7311,1.7245,1.7069,1.6974,1.5756,1.3839,1.3123,1.1794,1.0573,0.9837,0.9888,0.98,0.9781,0.9777,0.9419,0.9157,0.8711,0.836,0.7742,0.739,0.7305,0.7044,0.6871,0.6602,0.6602,0.6254,0.6169,0.5994,0.608,0.5899,0.5186,0.4563,0.4028,0.2956,0.2151,0.1434,0.0896,0.0358,-0.0448,-0.1613,-0.2686,-0.3669,-0.4474,-0.5186,-0.5897,-0.6694,-0.7408,-0.8197,-0.9069,-1.0361,-1.2077,-1.2345,-1.2613,-1.3795,-1.4559,-1.4894,-1.5304,-1.5884,-1.646,-1.6804,-1.759,-1.833,-1.9305,-2.0043,-2.0826,-2.1575,-2.1924,-2.2501,-2.3193,-2.3704,-2.3877,2.3454,2.3917,2.327,2.2999,2.2814,2.3086,2.2639,2.1924,2.1676,2.1596,2.1596,2.1454,2.1374,2.1463,2.1463,2.1553,2.1553,2.1642,2.1741,2.1741,2.1741,2.1741,2.1741,2.1741,2.1741,2.1731,2.0447,1.9803,1.9072,1.7978,1.7426,1.7333,1.7333,1.7239,1.7239,1.7239,1.7333,1.7239,1.7333,1.7333,1.7333,1.7333,1.7333,1.7304,1.7274,1.7106,1.6824,1.6577,1.5479,1.3926,1.3019,1.229,1.0584,0.9864,0.9689,0.9685,0.9607,0.9689,0.9602,0.9336,0.8982,0.8982,0.8368,0.7925,0.7746,0.7749,0.7404,0.7224,0.7136,0.7048,0.6697,0.6874,0.6786,0.6605,0.6068,0.5534,0.4648,0.3667,0.2417,0.1522,0.0448,-0.0358,-0.0896,-0.1254,-0.2239,-0.3669,-0.4563,-0.5455,-0.6166,-0.6962,-0.7672,-0.8292,-0.9078,-0.9937,-1.0971,-1.1666,-1.2095,-1.3112,-1.3542,-1.388,-1.421,-1.4538,-1.5115,-1.5718,-1.6737,-1.7584,-1.8634,-1.9573,-2.0254,-2.0829,-2.1114,-2.1562,-2.2059,-2.2482,-2.2658,2.2658,2.205,2.1952,2.1418,2.0881,2.1248,2.0808,2.0076,2.0365,2.0464,2.0546,2.0564,2.0564,2.0654,2.0907,2.1087,2.1186,2.1275,2.1365,2.1365,2.1365,2.1365,2.1553,2.1731,2.1463,2.1365,1.9894,1.9521,1.9063,1.8342,1.7792,1.7333,1.7239,1.7246,1.716,1.7246,1.7246,1.716,1.7246,1.7239,1.7239,1.7239,1.7239,1.7166,1.6999,1.6817,1.6476,1.6056,1.5033,1.3692,1.3182,1.2386,1.1235,1.0289,1.012,0.9946,0.9777,0.9345,0.9437,0.9257,0.9253,0.934,0.9161,0.9423,0.9069,0.8544,0.8017,0.7489,0.7401,0.7136,0.6874,0.6609,0.6428,0.6248,0.598,0.5359,0.465,0.3935,0.2864,0.197,0.0985,-0.009,-0.0987,-0.1255,-0.1702,-0.3221,-0.465,-0.5453,-0.6346,-0.7054,-0.7764,-0.8384,-0.8907,-0.9685,-1.0202,-1.0895,-1.1494,-1.2345,-1.2607,-1.2863,-1.3118,-1.3451,-1.3866,-1.4628,-1.5626,-1.6699,-1.7916,-1.8836,-1.9573,-2.0056,-2.0404,-2.0654,-2.0835,-2.1177,-2.1516,2.2824,2.2482,2.2482,2.1587,2.0439,2.0529,2.0085,1.9371,1.9646,1.992,1.992,2.0201,2.0292,2.0283,2.0546,2.0555,2.0546,2.0447,2.0257,2.0257,2.0167,1.9886,1.9786,1.9977,2.0175,2.0076,1.9338,1.8703,1.8519,1.7785,1.7059,1.7153,1.7153,1.7153,1.7066,1.716,1.7066,1.6979,1.6965,1.6857,1.6857,1.6864,1.6857,1.6943,1.6643,1.633,1.597,1.5658,1.4767,1.3595,1.2894,1.1918,1.0895,0.9946,0.9432,0.9428,0.9082,0.8999,0.9262,0.9262,0.9345,0.9345,0.9432,0.9345,0.9345,0.9078,0.8727,0.8204,0.8113,0.7845,0.7492,0.7404,0.7312,0.6956,0.6337,0.5983,0.5184,0.3937,0.3132,0.2327,0.1522,0.0448,-0.0628,-0.1255,-0.1702,-0.2774,-0.4024,-0.4736,-0.5897,-0.7054,-0.7764,-0.848,-0.8911,-0.934,-0.9772,-1.0289,-1.0722,-1.1408,-1.1677,-1.1935,-1.2106,-1.2443,-1.2863,-1.3351,-1.4064,-1.5383,-1.6925,-1.7884,-1.8418,-1.9101,-1.9729,-1.992,-2.0192,-2.0473,-2.0907,2.2833,2.2385,2.2658,2.1765,2.0339,2.0257,1.972,1.8912,1.9188,1.9363,1.9463,1.9737,1.9928,2.0019,2.0011,2.011,2.0093,1.9621,1.9338,1.9147,1.8872,1.8772,1.8864,1.878,1.8888,1.8796,1.8519,1.8149,1.7505,1.677,1.6501,1.6885,1.6878,1.6871,1.6965,1.7066,1.7073,1.7059,1.6958,1.6864,1.6777,1.677,1.6626,1.6493,1.6169,1.5861,1.5471,1.5151,1.4419,1.3284,1.2631,1.1923,1.0895,0.9946,0.9428,0.9257,0.8999,0.874,0.9003,0.9091,0.9174,0.9174,0.9257,0.9257,0.9087,0.9174,0.9091,0.8652,0.8472,0.838,0.8288,0.8113,0.7848,0.7496,0.7228,0.6966,0.6343,0.4739,0.3401,0.2686,0.1881,0.1076,0.0,-0.1075,-0.1792,-0.2508,-0.331,-0.4111,-0.5267,-0.6694,-0.7404,-0.8028,-0.8652,-0.8907,-0.9257,-0.9685,-1.0028,-1.0463,-1.0824,-1.1084,-1.1332,-1.1505,-1.1757,-1.2273,-1.2817,-1.3754,-1.517,-1.6265,-1.7266,-1.8164,-1.8827,-1.9279,-1.9546,-1.9828,-2.0292,2.2031,2.052,2.1418,2.1239,2.0257,2.0257,1.972,1.8827,1.8827,1.892,1.892,1.892,1.9012,1.9104,1.9463,1.9646,1.9646,2.0011,1.953,1.9247,1.9255,1.8596,1.8226,1.8226,1.8511,1.8419,1.7777,1.7419,1.7145,1.6298,1.6305,1.6581,1.6588,1.6501,1.6501,1.6784,1.6878,1.6965,1.6951,1.6871,1.6878,1.6756,1.6563,1.6176,1.5875,1.5464,1.4991,1.4545,1.3874,1.2705,1.2443,1.21,1.1154,1.0381,0.9946,0.9602,0.9345,0.8999,0.8828,0.8744,0.8828,0.8911,0.9087,0.9174,0.9174,0.8999,0.8911,0.8828,0.856,0.8292,0.8113,0.8028,0.7852,0.7499,0.7143,0.6609,0.5988,0.501,0.376,0.2956,0.2151,0.1345,0.0718,-0.0358,-0.1165,-0.1792,-0.2777,-0.358,-0.4734,-0.598,-0.6691,-0.7401,-0.8204,-0.856,-0.8648,-0.9082,-0.9602,-0.9951,-1.0212,-1.0467,-1.0636,-1.0809,-1.1073,-1.1494,-1.2093,-1.2769,-1.3411,-1.4669,-1.5917,-1.7145,-1.7916,-1.8071,-1.8527,-1.8988,-1.9546,2.2648,2.1933,2.115,2.0257,1.9363,1.9363,1.9188,1.8827,1.8827,1.8827,1.8827,1.8827,1.8827,1.8827,1.892,1.9096,1.9096,1.8711,1.8342,1.7692,1.7311,1.6936,1.6655,1.6749,1.6749,1.6936,1.6574,1.6393,1.6298,1.5927,1.5927,1.6116,1.6305,1.64,1.6501,1.6407,1.6501,1.64,1.6386,1.6298,1.6305,1.6292,1.6067,1.5681,1.5382,1.4721,1.3905,1.3531,1.2735,1.2186,1.1923,1.1666,1.1408,1.0895,1.0463,1.0115,0.9946,0.9689,0.8828,0.8656,0.8652,0.8828,0.8915,0.8915,0.8999,0.8823,0.874,0.8564,0.838,0.8201,0.8028,0.776,0.758,0.7231,0.6789,0.6343,0.5544,0.4565,0.3762,0.2868,0.2152,0.1436,0.0897,0.0359,-0.0359,-0.1076,-0.2061,-0.3136,-0.4202,-0.509,-0.58,-0.6511,-0.7312,-0.7848,-0.8025,-0.8552,-0.9257,-0.9432,-0.9607,-0.9864,-1.0202,-1.0549,-1.0824,-1.1065,-1.143,-1.2154,-1.2774,-1.3514,-1.4527,-1.5812,-1.6414,-1.6473,-1.7217,-1.8056,-1.8711,2.2736,2.212,2.0881,1.9903,1.9279,1.892,1.8827,1.8827,1.8827,1.8827,1.8827,1.8827,1.8827,1.8827,1.8827,1.8827,1.8727,1.835,1.7699,1.7138,1.6669,1.5825,1.5452,1.5452,1.573,1.5547,1.5642,1.573,1.5825,1.5737,1.5832,1.5927,1.5927,1.6116,1.6211,1.6218,1.6123,1.6116,1.6021,1.5927,1.6021,1.592,1.5691,1.5409,1.514,1.4559,1.3828,1.3481,1.2894,1.2277,1.1843,1.1585,1.1408,1.1235,1.089,1.0809,1.0722,1.0641,0.9777,0.8828,0.874,0.874,0.874,0.874,0.874,0.8652,0.8568,0.8472,0.8204,0.8025,0.7856,0.7496,0.7319,0.6969,0.6435,0.5902,0.5097,0.4206,0.3494,0.2601,0.2063,0.1436,0.0807,0.0269,-0.0269,-0.0896,-0.1524,-0.242,-0.3135,-0.4024,-0.4734,-0.5445,-0.6245,-0.6779,-0.7309,-0.7929,-0.8552,-0.9003,-0.9174,-0.9432,-0.9777,-1.0125,-1.0559,-1.0942,-1.13,-1.1667,-1.2194,-1.2808,-1.3622,-1.4539,-1.5006,-1.5547,-1.6183,-1.7023,-1.7591,2.2031,2.043,2.0339,2.0158,1.9985,1.918,1.8827,1.8827,1.8827,1.8827,1.8827,1.8827,1.8827,1.8827,1.8827,1.8827,1.8827,1.8643,1.8265,1.7505,1.685,1.6386,1.5825,1.5356,1.5172,1.5178,1.5363,1.5452,1.554,1.5642,1.5737,1.5825,1.5825,1.592,1.5832,1.6123,1.6312,1.6494,1.6494,1.6305,1.6116,1.6021,1.5644,1.5241,1.5003,1.4553,1.3754,1.3598,1.3047,1.2353,1.2428,1.2187,1.1788,1.1738,1.1629,1.1451,1.1446,1.1435,1.1154,0.9602,0.9087,0.9087,0.9262,0.9174,0.8828,0.8744,0.8823,0.8903,0.8464,0.8025,0.7676,0.7323,0.7231,0.6704,0.6169,0.5544,0.4741,0.3939,0.3226,0.2511,0.1884,0.1256,0.0628,0.009,-0.0448,-0.0897,-0.1256,-0.1704,-0.242,-0.2956,-0.3757,-0.4469,-0.527,-0.5802,-0.6422,-0.7221,-0.7845,-0.8296,-0.8761,-0.913,-0.9306,-0.9574,-1.0086,-1.0671,-1.0944,-1.1174,-1.1596,-1.1985,-1.2662,-1.334,-1.4346,-1.4904,-1.554,-1.5893,-1.6365,2.1418,2.0257,1.9538,1.9271,1.9271,1.9012,1.8827,1.8827,1.8827,1.8827,1.8827,1.8827,1.8827,1.8827,1.8827,1.8827,1.8827,1.8735,1.845,1.7692,1.7138,1.6393,1.5832,1.5261,1.4981,1.5077,1.5267,1.5356,1.5547,1.5547,1.5737,1.573,1.5825,1.5825,1.5825,1.5927,1.6021,1.6015,1.6015,1.6021,1.5927,1.5893,1.5665,1.5017,1.499,1.4533,1.3519,1.3595,1.3225,1.2703,1.279,1.2937,1.2827,1.2979,1.3033,1.2859,1.2859,1.2954,1.2336,1.1154,1.0467,1.0381,1.0207,1.012,1.0207,1.0212,1.0033,0.9767,0.9423,0.8986,0.8632,0.8101,0.7749,0.6792,0.6171,0.5455,0.4652,0.3762,0.2959,0.2332,0.1705,0.1166,0.0628,0.0179,-0.0359,-0.0628,-0.0897,-0.1346,-0.1973,-0.2242,-0.2868,-0.3491,-0.4202,-0.4825,-0.5447,-0.6245,-0.7132,-0.7757,-0.8351,-0.8779,-0.9042,-0.9168,-0.9425,-1.0008,-1.0282,-1.0658,-1.107,-1.137,-1.1564,-1.2216,-1.3147,-1.3852,-1.4196,-1.4567,-1.4949,2.1418,2.0257,1.9621,1.9096,1.8827,1.8827,1.8827,1.8827,1.8827,1.8827,1.8827,1.8827,1.8827,1.8827,1.8827,1.8827,1.8827,1.8827,1.8735,1.7978,1.7326,1.6763,1.6109,1.5255,1.4975,1.4879,1.4981,1.5077,1.5166,1.5356,1.5452,1.5635,1.573,1.573,1.573,1.5832,1.5832,1.5825,1.5825,1.5825,1.5825,1.5765,1.5605,1.5271,1.4987,1.4628,1.3875,1.3567,1.3508,1.3242,1.3361,1.3862,1.411,1.4179,1.4187,1.3986,1.3857,1.3926,1.318,1.2619,1.21,1.21,1.1671,1.116,1.0982,1.0727,1.0549,1.0376,1.0467,0.9854,0.9152,0.8707,0.8185,0.7316,0.6254,0.5539,0.483,0.4028,0.3048,0.2422,0.1884,0.1256,0.0538,0.0179,-0.0269,-0.0449,-0.0628,-0.1077,-0.1525,-0.1794,-0.2063,-0.2599,-0.3135,-0.3758,-0.4467,-0.5267,-0.6154,-0.7132,-0.7731,-0.8169,-0.8755,-0.887,-0.9059,-0.927,-0.9543,-0.9933,-1.0386,-1.0761,-1.109,-1.1468,-1.1903,-1.2489,-1.2942,-1.3227,-1.3516,2.1943,2.043,2.0257,1.9629,1.892,1.8827,1.8827,1.8827,1.8827,1.8827,1.8827,1.8827,1.8827,1.8827,1.8827,1.8735,1.8735,1.8735,1.855,1.8365,1.7512,1.6951,1.6292,1.5534,1.4867,1.4586,1.4592,1.479,1.479,1.5077,1.5261,1.5445,1.5445,1.5642,1.5737,1.573,1.573,1.5825,1.5825,1.5825,1.5825,1.5812,1.5631,1.5404,1.5284,1.5137,1.4757,1.4648,1.4777,1.4701,1.4894,1.4907,1.4917,1.4696,1.4596,1.4389,1.4223,1.4031,1.3907,1.3474,1.3404,1.3064,1.21,1.1413,1.1246,1.1327,1.1241,1.0982,1.0895,1.0197,0.9497,0.9235,0.8886,0.783,0.6599,0.5891,0.5272,0.4383,0.3315,0.2599,0.2153,0.1524,0.0718,0.0269,-0.009,-0.018,-0.0449,-0.0628,-0.1076,-0.1346,-0.1525,-0.1615,-0.2151,-0.2598,-0.34,-0.4378,-0.5087,-0.5885,-0.6732,-0.732,-0.7901,-0.85,-0.8621,-0.8763,-0.8853,-0.9234,-0.991,-1.0412,-1.0858,-1.1114,-1.1025,-1.1413,-1.197,-1.1873,-1.216,2.1418,2.0257,1.9538,1.9096,1.8819,1.8827,1.8827,1.8827,1.8827,1.8827,1.8827,1.8827,1.8827,1.8827,1.8827,1.845,1.8357,1.835,1.7893,1.752,1.7145,1.648,1.5818,1.5146,1.458,1.4394,1.44,1.4496,1.4694,1.4981,1.5166,1.5445,1.5261,1.5452,1.5547,1.5635,1.5737,1.5737,1.573,1.5825,1.5825,1.5825,1.5651,1.5511,1.5444,1.5284,1.513,1.5106,1.5153,1.5271,1.5081,1.514,1.5551,1.5137,1.4836,1.453,1.4327,1.405,1.4037,1.3857,1.3687,1.3613,1.2808,1.2705,1.2448,1.2192,1.202,1.1757,1.1585,1.1058,1.0366,0.9932,0.941,0.8273,0.7217,0.6511,0.5891,0.5184,0.4115,0.3489,0.3042,0.1793,0.0987,0.0269,0.0,-0.009,-0.018,-0.0449,-0.0628,-0.0987,-0.1166,-0.1256,-0.1525,-0.2062,-0.2599,-0.3491,-0.4022,-0.4648,-0.5568,-0.6302,-0.6989,-0.7517,-0.7916,-0.8349,-0.8631,-0.9023,-0.9482,-0.9947,-1.0301,-1.0113,-1.0126,-1.0516,-1.0909,-1.0904,-1.1096,2.0619,1.972,1.9096,1.8827,1.8827,1.8827,1.8827,1.8827,1.8827,1.8827,1.8827,1.8827,1.8827,1.8827,1.8735,1.845,1.7785,1.8071,1.7707,1.6965,1.6588,1.6103,1.5432,1.4962,1.4675,1.449,1.4298,1.4394,1.4592,1.4688,1.4873,1.5064,1.4981,1.5166,1.5363,1.5452,1.554,1.5547,1.5642,1.573,1.5825,1.5825,1.5705,1.5605,1.5558,1.5431,1.5324,1.5212,1.5345,1.5558,1.5371,1.5271,1.5404,1.4929,1.45,1.4219,1.4063,1.3946,1.386,1.3828,1.3707,1.3519,1.323,1.2973,1.2912,1.2619,1.2619,1.2534,1.2443,1.2272,1.1408,1.0626,0.9763,0.8811,0.8013,0.7221,0.6602,0.5983,0.5359,0.4732,0.3664,0.233,0.1346,0.0628,0.009,0.009,0.0,-0.018,-0.0359,-0.0718,-0.0808,-0.0987,-0.1256,-0.1705,-0.2241,-0.2599,-0.3132,-0.3755,-0.4393,-0.5203,-0.5899,-0.6612,-0.7255,-0.7904,-0.85,-0.8784,-0.8859,-0.9271,-0.9517,-0.9422,-0.9426,-0.9821,-1.022,-1.022,-1.0413,1.9812,1.9004,1.8835,1.8827,1.8827,1.8827,1.8827,1.8827,1.8827,1.8827,1.8827,1.8827,1.8827,1.8827,1.8827,1.8357,1.7878,1.7785,1.7318,1.6494,1.6305,1.5913,1.5343,1.5248,1.4675,1.4394,1.4298,1.4298,1.4298,1.4394,1.4586,1.4682,1.4626,1.4816,1.5166,1.5184,1.5184,1.5267,1.5458,1.5642,1.5737,1.5737,1.573,1.5717,1.571,1.5684,1.5697,1.5717,1.5717,1.5704,1.5549,1.533,1.4826,1.4334,1.3947,1.3799,1.3754,1.3806,1.3758,1.3686,1.3504,1.3275,1.3114,1.2948,1.2851,1.279,1.2705,1.2619,1.2534,1.21,1.1408,1.089,1.0111,0.9336,0.8632,0.8017,0.7577,0.6871,0.6157,0.5442,0.4465,0.3132,0.242,0.1704,0.0896,0.0628,0.0269,0.009,-0.018,-0.0449,-0.0538,-0.0628,-0.0987,-0.1256,-0.1436,-0.1792,-0.2329,-0.2865,-0.3323,-0.3948,-0.4656,-0.5628,-0.6596,-0.7052,-0.743,-0.7948,-0.8204,-0.8627,-0.9,-0.9027,-0.913,-0.9327,-0.943,-0.9624,-0.9821,2.0167,1.9894,1.9096,1.8827,1.8827,1.8827,1.8827,1.8827,1.8827,1.8827,1.8827,1.8827,1.8827,1.8827,1.8827,1.845,1.7878,1.7591,1.6842,1.6103,1.5825,1.5439,1.4771,1.4675,1.449,1.4394,1.4298,1.4298,1.4298,1.4298,1.4388,1.4561,1.445,1.4389,1.4918,1.4899,1.4741,1.4912,1.5222,1.5235,1.5261,1.5452,1.5547,1.5363,1.5267,1.5363,1.5261,1.5153,1.5018,1.4897,1.4765,1.4485,1.4116,1.3875,1.3698,1.3548,1.3559,1.3629,1.363,1.3555,1.3386,1.3213,1.3083,1.2887,1.2723,1.2711,1.2619,1.2534,1.2277,1.1843,1.1408,1.0977,1.0458,0.9772,0.9165,0.8727,0.838,0.7669,0.6868,0.6068,0.5179,0.4289,0.3491,0.2686,0.1879,0.1254,0.0628,0.0269,0.009,-0.018,-0.0269,-0.0449,-0.0628,-0.0897,-0.0897,-0.108,-0.162,-0.1711,-0.2076,-0.2792,-0.3506,-0.4474,-0.5356,-0.5838,-0.6184,-0.686,-0.76,-0.824,-0.8568,-0.8583,-0.8829,-0.9031,-0.9027,-0.9126,-0.9324,1.9629,1.9538,1.9004,1.8827,1.8827,1.8827,1.8827,1.8827,1.8827,1.8827,1.8827,1.8827,1.8827,1.8827,1.8827,1.845,1.7878,1.7684,1.6749,1.5812,1.533,1.4962,1.458,1.4286,1.4298,1.4298,1.4298,1.4298,1.428,1.4298,1.4388,1.4429,1.4139,1.4141,1.4571,1.4291,1.426,1.4489,1.4823,1.488,1.486,1.507,1.5267,1.5083,1.5077,1.507,1.5019,1.4886,1.4703,1.4568,1.4251,1.3935,1.3686,1.343,1.3361,1.3343,1.3349,1.3436,1.3467,1.3397,1.3224,1.312,1.3157,1.291,1.2637,1.2619,1.2357,1.2186,1.1843,1.1413,1.1068,1.0636,1.0289,0.9689,0.9345,0.8995,0.8556,0.7937,0.7492,0.7136,0.6157,0.5176,0.4289,0.3042,0.2325,0.1878,0.1254,0.0538,0.0269,0.018,0.0,-0.018,-0.036,-0.0539,-0.0628,-0.0722,-0.0999,-0.0999,-0.1093,-0.1827,-0.2746,-0.3517,-0.4119,-0.4591,-0.5265,-0.6165,-0.6898,-0.7372,-0.7976,-0.8192,-0.8459,-0.8832,-0.873,-0.8726,-0.8928,1.8827,1.8827,1.8827,1.8827,1.8827,1.8827,1.8827,1.8827,1.8827,1.8827,1.8827,1.8827,1.8827,1.8827,1.8735,1.8357,1.7978,1.7785,1.6749,1.6075,1.5468,1.5102,1.4727,1.4345,1.425,1.4244,1.4232,1.4214,1.4189,1.4147,1.4081,1.4129,1.4008,1.3839,1.3896,1.3903,1.3982,1.4166,1.4383,1.4514,1.4595,1.4777,1.4848,1.4943,1.493,1.4918,1.4804,1.4678,1.4507,1.4254,1.3792,1.3492,1.3262,1.3022,1.2967,1.3022,1.3028,1.3071,1.3133,1.3237,1.3083,1.2972,1.3019,1.2871,1.2582,1.2277,1.2015,1.1757,1.1413,1.1154,1.0722,1.0467,1.0033,0.9689,0.9345,0.9087,0.8648,0.8208,0.794,0.7764,0.6959,0.5977,0.5085,0.384,0.295,0.2503,0.179,0.1075,0.0538,0.0449,0.0269,0.009,-0.009,-0.018,-0.0271,-0.0546,-0.0643,-0.074,-0.0836,-0.1398,-0.1954,-0.2474,-0.2991,-0.361,-0.428,-0.5038,-0.575,-0.6255,-0.6816,-0.7514,-0.768,-0.7957,-0.8435,-0.8432,-0.8531,1.8827,1.8827,1.8827,1.8827,1.8827,1.8827,1.8827,1.8827,1.8819,1.8827,1.8812,1.8819,1.8827,1.8819,1.8827,1.8611,1.8364,1.801,1.777,1.7203,1.5937,1.535,1.4911,1.4251,1.423,1.4123,1.4063,1.399,1.396,1.3803,1.3682,1.3701,1.3441,1.3483,1.3821,1.3811,1.375,1.4023,1.4224,1.4297,1.4435,1.4453,1.4438,1.437,1.4172,1.3938,1.3799,1.3811,1.3646,1.3325,1.31,1.2948,1.2881,1.2845,1.2808,1.279,1.2875,1.2875,1.296,1.2942,1.2801,1.2928,1.2976,1.2739,1.2363,1.1843,1.1671,1.1413,1.1068,1.0809,1.0463,1.0294,0.9951,0.9432,0.9087,0.8911,0.8564,0.8208,0.7944,0.7676,0.7316,0.6779,0.6422,0.5176,0.3931,0.3218,0.2059,0.1344,0.0718,0.0628,0.0538,0.0362,0.0273,0.0092,0.0,-0.0277,-0.0466,-0.047,-0.0568,-0.0949,-0.1228,-0.1211,-0.1752,-0.2376,-0.2899,-0.3534,-0.4227,-0.5134,-0.5797,-0.6376,-0.6529,-0.689,-0.7575,-0.8137,-0.8336]},{"header":{"parameterUnit":"m.s-1","parameterCategory":1,"la1":31.0,"la2":29.5877,"lo1":-88.7671,"lo2":-86.6584,"dy":0.0162,"dx":0.0185,"nx":115,"ny":88,"refTime":"2023-10-01T06:00:00:Z","depth":0,"parameterNumber":3,"parameterNumberName":"V-component_of_WINDS"},"data":[0.0,0.0,0.0,0.0,0.0,0.0,0.0,0.0,0.0,0.0,0.0,0.0,0.0,0.0,0.0,0.0,0.0,0.0,0.0,0.0,0.0,0.0,0.0,0.0,0.0,0.0,0.0,0.0,0.0,0.0,0.0,0.0,0.0,0.0,0.0,0.0,0.0,0.0,0.0,0.0,0.0,0.0,0.0,0.0,0.0,0.0,0.0,0.0,0.0,0.0,0.0,0.0,0.0,0.0,0.0,0.0,0.0,0.0,0.0,0.0,0.0,0.0,0.0,0.0,0.0,0.0,0.0,0.0,0.0,0.0,0.0,0.0,0.0,0.0,0.0,0.0,0.0,0.0,0.0,0.0,0.0,0.0,0.0,0.0,0.0,0.0,0.0,0.0,0.0,0.0,0.0,0.0,0.0,0.0,0.0,0.0,0.0,0.0,0.0,0.0,0.0,0.0,0.0,0.0,0.0,0.0,0.0,0.0,0.0,0.0,0.0,0.0,0.0,0.0,0.0,0.0,0.0,0.0,0.0,0.0,0.0,0.0,0.0,0.0,0.0,0.0,0.0,0.0,0.0,0.0,0.0,0.0,0.0,0.0,0.0,0.0,0.0,0.0,0.0,0.0,0.0,0.0,0.0,0.0,0.0,0.0,0.0,0.0,0.0,0.0,0.0,0.0,0.0,0.0,0.0,0.0,0.0,0.0,0.0,0.0,0.0,0.0,0.0,0.0,0.0,0.0,0.0,0.0,0.0,0.0,0.0,0.0,0.0,0.0,0.0,0.0,0.0,0.0,0.0,0.0,0.0,0.0,0.0,0.0,0.0,0.0,0.0,0.0,0.0,0.0,0.0,0.0,0.0,0.0,0.0,0.0,0.0,0.0,0.0,0.0,0.0,0.0,0.0,0.0,0.0,0.0,0.0,0.0,0.0,0.0,0.0,0.0,0.0,0.0,0.0,0.0,0.0,0.0,0.0,0.0,0.0,0.0,0.0,0.0,0.0,0.0,0.0,0.0,0.0,0.0,0.0,0.0,0.0,0.0,0.0,0.0,0.0,0.0,0.0,0.0,0.0,0.0,0.0,0.0,0.0,0.0,0.0,0.0,0.0,0.0,0.0,0.0,0.0,0.0,0.0,0.0,0.0,0.0,0.0,0.0,0.0,0.0,0.0,0.0,0.0,0.0,0.0,0.0,0.0,0.0,0.0,0.0,0.0,0.0,0.0,0.0,0.0,0.0,0.0,0.0,0.0,0.0,0.0,0.0,0.0,0.0,0.0,0.0,0.0,0.0,0.0,0.0,0.0,0.0,0.0,0.0,0.0,0.0,0.0,0.0,0.0,0.0,0.0,0.0,0.0,0.0,0.0,0.0,0.0,0.0,0.0,0.0,0.0,0.0,0.0,0.0,0.0,0.0,0.0,0.0,0.0,0.0,0.0,0.0,0.0,0.0,0.0,0.0,0.0,0.0,0.0,0.0,0.0,0.0,0.0,0.0,0.0,0.0,0.0,0.0,0.0,0.0,0.0,0.0,0.0,0.0,0.0,0.0,0.0,0.0,0.0,0.0,0.0,0.0,0.0,0.0,0.0,0.0,0.0,0.0,0.0,0.0,0.0,0.0,0.0,0.0,0.0,0.0,0.0,0.0,0.0,0.0,0.0,0.0,0.0,0.0,0.0,0.0,0.0,0.0,0.0,0.0,0.0,0.0,0.0,0.0,0.0,0.0,0.0,0.0,0.0,0.0,0.0,0.0,0.0,0.0,0.0,0.0,0.0,0.0,0.0,0.0,0.0,0.0,0.0,0.0,0.0,0.0,0.0,0.0,0.0,0.0,0.0,0.0,0.0,0.0,0.0,0.0,0.0,0.0,0.0,0.0,0.0,0.0,0.0,0.0,0.0,0.0,0.0,0.0,0.0,0.0,0.0,0.0,0.0,0.0,0.0,0.0,0.0,0.0,0.0,0.0,0.0,0.0,0.0,0.0,0.0,0.0,0.0,0.0,0.0,0.0,0.0,0.0,0.0,0.0,0.0,0.0,0.0,0.0,0.0,0.0,0.0,0.0,0.0,0.0,0.0,0.0,0.0,0.0,0.0,0.0,0.0,0.0,0.0,0.0,0.0,0.0,0.0,0.0,0.0,0.0,0.0,0.0,0.0,0.0,0.0,0.0,0.0,0.0,0.0,0.0,0.0,0.0,0.0,0.0,0.0,0.0,0.0,0.0,0.0,0.0,0.0,0.0,0.0,0.0,0.0,0.0,0.0,0.0,0.0,0.0,0.0,0.0,0.0,0.0,0.0,0.0,0.0,0.0,0.0,0.0,0.0,0.0,0.0,0.0,0.0,0.0,0.0,0.0,0.0,0.0,0.0,0.0,0.0,0.0,0.0,0.0,0.0,0.0,0.0,0.0,0.0,0.0,0.0,0.0,0.0,0.0,0.0,0.0,0.0,0.0,0.0,0.0,0.0,0.0,0.0,0.0,0.0,0.0,0.0,0.0,0.0,0.0,0.0,0.0,0.0,0.0,0.0,0.0,0.0,0.0,0.0,0.0,0.0,0.0,0.0,0.0,0.0,0.0,0.0,0.0,0.0,0.0,0.0,0.0,0.0,0.0,0.0,0.0,0.0,0.0,0.0,0.0,0.0,0.0,0.0,0.0,0.0,0.0,0.0,0.0,0.0,0.0,0.0,0.0,0.0,0.0,0.0,0.0,0.0,0.0,0.0,0.0,0.0,0.0,0.0,0.0,0.0,0.0,0.0,0.0,0.0,0.0,0.0,0.0,0.0,0.0,0.0,0.0,0.0,0.0,0.0,0.0,0.0,0.0,0.0,0.0,0.0,0.0,0.0,0.0,0.0,0.0,0.0,0.0,0.0,0.0,0.0,0.0,0.0,0.0,0.0,0.0,0.0,0.0,0.0,0.0,0.0,0.0,0.0,0.0,0.0,0.0,0.0,0.0,0.0,0.0,0.0,0.0,0.0,0.0,0.0,0.0,0.0,0.0,0.0,0.0,0.0,0.0,0.0,0.0,0.0,0.0,0.0,0.0,0.0,0.0,0.0,0.0,0.0,0.0,0.0,0.0,0.0,0.0,0.0,0.0,0.0,0.0,0.0,0.0,0.0,0.0,0.0,0.0,0.0,0.0,0.0,0.0,0.0,0.0,0.0,0.0,0.0,0.0,0.0,0.0,0.0,0.0,0.0,0.0,0.0,0.0,0.0,0.0,0.0,0.0,0.0,0.0,0.0,0.0,0.0,0.0,0.0,0.0,0.0,0.0,0.0,0.0,0.0,0.0,0.0,0.0,0.0,0.0,0.0,0.0,0.0,0.0,0.0,0.0,0.0,0.0,0.0,0.0,0.0,0.0,0.0,0.0,0.0,0.0,0.0,0.0,0.0,0.0,0.0,0.0,0.0,0.0,0.0,0.0,0.0,0.0,0.0,0.0,0.0,0.0,0.0,0.0,0.0,0.0,0.0,0.0,0.0,0.0,0.0,0.0,0.0,0.0,0.0,0.0,0.0,0.0,0.0,0.0,0.0,0.0,0.0,0.0,0.0,0.0,0.0,0.0,0.0,0.0,0.0,0.0,0.0,0.0,0.0,0.0,0.0,0.0,0.0,0.0,0.0,0.0,0.0,0.0,0.0,0.0,0.0,0.0,0.0,0.0,0.0,0.0,0.0,0.0,0.0,0.0,0.0,0.0,0.0,0.0,0.0,0.0,0.0,0.0,0.0,0.0,0.0,0.0,0.0,0.0,0.0,0.0,0.0,0.0,0.0,0.0,0.0,0.0,0.0,0.0,0.0,0.0,0.0,0.0,0.0,0.0,0.0,0.0,0.0,0.0,0.0,0.0,0.0,0.0,0.0,0.0,0.0,0.0,0.0,0.0,0.0,0.0,0.0,0.0,0.0,0.0,0.0,0.0,0.0,0.0,0.0,0.0,0.0,0.0,0.0,0.0,0.0,0.0,0.0,0.0,0.0,0.0,0.0,0.0,0.0,0.0,0.0,0.0,0.0,0.0,0.0,0.0,0.0,0.0,0.0,0.0,0.0,0.0,0.0,0.0,0.0,0.0,0.0,0.0,0.0,0.0,0.0,0.0,0.0,0.0,0.0,0.0,0.0,0.0,0.0,0.0,0.0,0.0,0.0,0.0,0.0,0.0,0.0,0.0,0.0,0.0,0.0,0.0,0.0,0.0,0.0,0.0,0.0,0.0,0.0,0.0,0.0,0.0,0.0,0.0,0.0,0.0,0.0,0.0,0.0,0.0,0.0,0.0,0.0,0.0,-0.8341,0.0,0.0,0.0,0.0,0.0,0.0,0.0,0.0,0.0,0.0,0.0,0.0,0.0,0.0,0.0,0.0,0.0,0.0,0.0,0.0,0.0,0.0,0.0,0.0,0.0,0.0,0.0,0.0,0.0,0.0,0.0,0.0,0.0,0.0,0.0,0.0,0.0,0.0,0.0,0.0,0.0,0.0,0.0,0.0,0.0,0.0,0.0,0.0,0.0,0.0,0.0,0.0,0.0,0.0,0.0,0.0,0.0,0.0,0.0,0.0,0.0,0.0,0.0,0.0,0.0,0.0,0.0,0.0,0.0,0.0,0.0,0.0,0.0,0.0,0.0,0.0,0.0,0.0,0.0,0.0,0.0,0.0,0.0,0.0,0.0,0.0,0.0,0.0,0.0,0.0,0.0,0.0,0.0,0.0,0.0,0.0,0.0,0.0,0.0,0.0,0.0,0.0,0.0,0.0,0.0,0.0,0.0,0.0,0.0,0.0,-0.8241,-1.0313,-1.3447,-1.3733,-1.0974,0.0,0.0,0.0,0.0,0.0,0.0,0.0,0.0,0.0,0.0,0.0,0.0,0.0,0.0,0.0,0.0,0.0,0.0,0.0,0.0,0.0,0.0,0.0,0.0,0.0,0.0,0.0,0.0,0.0,0.0,0.0,0.0,0.0,0.0,0.0,0.0,0.0,0.0,0.0,0.0,0.0,0.0,0.0,0.0,0.0,0.0,0.0,0.0,0.0,0.0,0.0,0.0,0.0,0.0,0.0,0.0,0.0,0.0,0.0,0.0,0.0,0.0,0.0,0.0,0.0,0.0,0.0,0.0,0.0,0.0,0.0,0.0,0.0,0.0,0.0,0.0,0.0,0.0,0.0,0.0,0.0,0.0,0.0,0.0,0.0,0.0,0.0,0.0,0.0,0.0,0.0,0.0,0.0,0.0,0.0,0.0,0.0,0.0,0.0,0.0,0.0,0.0,0.0,0.0,0.0,0.0,0.0,0.0,0.0,0.0,0.0,0.0,-1.9276,-1.9693,-1.6031,0.0,0.0,0.0,0.0,0.0,0.0,0.0,0.0,0.0,0.0,0.0,0.0,0.0,0.0,0.0,0.0,0.0,0.0,0.0,0.0,0.0,0.0,0.0,0.0,0.0,0.0,0.0,0.0,0.0,0.0,0.0,0.0,0.0,0.0,0.0,0.0,0.0,0.0,0.0,0.0,0.0,0.0,0.0,0.0,0.0,0.0,0.0,0.0,0.0,0.0,0.0,0.0,0.0,0.0,0.0,0.0,0.0,0.0,0.0,0.0,0.0,0.0,0.0,0.0,0.0,0.0,0.0,0.0,0.0,0.0,0.0,0.0,0.0,0.0,0.0,0.0,0.0,0.0,0.0,0.0,0.0,0.0,0.0,0.0,0.0,0.0,0.0,0.0,0.0,0.0,0.0,0.0,0.0,0.0,0.0,0.0,0.0,0.0,0.0,0.0,0.0,0.0,0.0,0.0,0.0,0.0,0.0,0.0,0.0,0.0,-2.075,-2.0705,-2.1837,0.0,-2.308,0.0,0.0,0.0,0.0,0.0,0.0,0.0,0.0,0.0,0.0,0.0,0.0,0.0,0.0,0.0,0.0,0.0,0.0,0.0,0.0,0.0,0.0,0.0,0.0,0.0,0.0,0.0,0.0,0.0,0.0,0.0,0.0,0.0,0.0,0.0,0.0,0.0,0.0,0.0,0.0,0.0,0.0,0.0,0.0,0.0,0.0,0.0,0.0,0.0,0.0,0.0,0.0,0.0,0.0,0.0,0.0,0.0,0.0,0.0,0.0,0.0,0.0,0.0,0.0,0.0,0.0,0.0,0.0,0.0,0.0,0.0,0.0,0.0,0.0,0.0,0.0,0.0,0.0,0.0,0.0,0.0,0.0,0.0,0.0,0.0,0.0,0.0,0.0,0.0,0.0,0.0,0.0,0.0,0.0,0.0,0.0,0.0,0.0,0.0,0.0,0.0,0.0,0.0,0.0,0.0,0.0,0.0,0.0,0.0,0.0,-1.9529,-2.2049,-2.2418,-2.4088,0.0,0.0,0.0,0.0,0.0,0.0,0.0,0.0,0.0,0.0,0.0,0.0,0.0,0.0,0.0,0.0,0.0,0.0,0.0,0.0,0.0,0.0,0.0,0.0,0.0,0.0,0.0,0.0,0.0,0.0,0.0,0.0,0.0,0.0,0.0,0.0,0.0,0.0,0.0,0.0,0.0,0.0,0.0,0.0,0.0,0.0,0.0,0.0,0.0,0.0,0.0,0.0,0.0,0.0,0.0,0.0,0.0,0.0,0.0,0.0,0.0,0.0,0.0,0.0,0.0,0.0,0.0,0.0,0.0,0.0,0.0,0.0,0.0,0.0,0.0,0.0,0.0,0.0,0.0,0.0,0.0,0.0,0.0,0.0,0.0,0.0,0.0,0.0,0.0,0.0,0.0,0.0,0.0,0.0,0.0,0.0,0.0,0.0,0.0,0.0,0.0,0.0,0.0,0.0,0.0,0.0,0.0,0.0,0.0,0.0,-2.0467,-2.2909,-2.6175,-2.6286,-2.7972,-3.1636,0.0,0.0,0.0,0.0,0.0,0.0,0.0,0.0,0.0,0.0,0.0,0.0,0.0,0.0,0.0,0.0,0.0,0.0,0.0,0.0,0.0,0.0,0.0,0.0,0.0,0.0,0.0,0.0,0.0,0.0,0.0,0.0,0.0,0.0,0.0,0.0,0.0,0.0,0.0,0.0,0.0,0.0,0.0,0.0,0.0,0.0,0.0,0.0,0.0,0.0,0.0,0.0,0.0,0.0,0.0,0.0,0.0,0.0,0.0,0.0,0.0,0.0,0.0,0.0,0.0,0.0,0.0,0.0,0.0,0.0,0.0,0.0,0.0,0.0,0.0,0.0,0.0,0.0,0.0,0.0,0.0,0.0,0.0,0.0,0.0,0.0,0.0,0.0,0.0,0.0,0.0,0.0,0.0,0.0,0.0,0.0,0.0,0.0,0.0,0.0,0.0,0.0,0.0,0.0,0.0,0.0,0.0,0.0,-2.3886,-3.0904,-3.5123,-3.5384,-3.5367,-3.581,0.0,0.0,0.0,0.0,0.0,0.0,0.0,0.0,0.0,0.0,0.0,0.0,0.0,0.0,0.0,0.0,0.0,0.0,0.0,0.0,0.0,0.0,0.0,0.0,0.0,0.0,0.0,0.0,0.0,0.0,0.0,0.0,0.0,0.0,0.0,0.0,0.0,0.0,0.0,0.0,0.0,0.0,0.0,0.0,0.0,0.0,0.0,0.0,0.0,0.0,0.0,0.0,0.0,0.0,0.0,0.0,0.0,0.0,0.0,0.0,0.0,0.0,0.0,0.0,0.0,0.0,0.0,0.0,0.0,0.0,0.0,0.0,0.0,0.0,0.0,0.0,0.0,0.0,0.0,0.0,0.0,0.0,0.0,0.0,0.0,0.0,0.0,0.0,0.0,0.0,0.0,0.0,0.0,0.0,0.0,0.0,0.0,0.0,0.0,0.0,0.0,0.0,0.0,0.0,0.0,0.0,0.0,0.0,0.0,-2.6565,-3.1805,-3.3406,-3.1027,-3.3257,-3.4272,0.0,0.0,0.0,0.0,0.0,0.0,0.0,0.0,0.0,0.0,0.0,0.0,0.0,0.0,0.0,0.0,0.0,0.0,0.0,0.0,0.0,0.0,0.0,0.0,0.0,0.0,0.0,0.0,0.0,0.0,0.0,0.0,0.0,0.0,0.0,0.0,0.0,0.0,0.0,0.0,0.0,0.0,0.0,0.0,0.0,0.0,0.0,0.0,0.0,0.0,0.0,0.0,0.0,0.0,0.0,0.0,0.0,0.0,0.0,0.0,0.0,0.0,0.0,0.0,0.0,0.0,0.0,0.0,0.0,0.0,0.0,0.0,0.0,0.0,0.0,0.0,0.0,0.0,0.0,0.0,0.0,0.0,0.0,0.0,0.0,0.0,0.0,0.0,0.0,0.0,0.0,0.0,0.0,0.0,0.0,0.0,0.0,0.0,0.0,0.0,0.0,0.0,0.0,0.0,0.0,0.0,0.0,0.0,0.0,-2.8026,0.0,-3.1036,-2.8789,-3.0936,-3.2191,0.0,0.0,0.0,0.0,0.0,0.0,0.0,0.0,0.0,0.0,0.0,0.0,0.0,0.0,0.0,0.0,0.0,0.0,0.0,0.0,0.0,0.0,0.0,0.0,0.0,0.0,0.0,0.0,0.0,0.0,0.0,0.0,0.0,0.0,0.0,0.0,0.0,0.0,0.0,0.0,0.0,0.0,0.0,0.0,0.0,0.0,0.0,0.0,0.0,0.0,0.0,0.0,0.0,0.0,0.0,0.0,0.0,0.0,0.0,0.0,0.0,0.0,0.0,0.0,0.0,0.0,0.0,0.0,0.0,0.0,0.0,0.0,0.0,0.0,0.0,0.0,0.0,0.0,0.0,0.0,0.0,0.0,0.0,0.0,0.0,0.0,0.0,0.0,0.0,0.0,0.0,0.0,0.0,0.0,0.0,0.0,0.0,0.0,0.0,0.0,0.0,0.0,0.0,0.0,0.0,0.0,0.0,0.0,-2.593,-2.8463,-2.8856,-2.9345,-3.0075,-2.9462,-3.0309,0.0,0.0,0.0,0.0,0.0,0.0,0.0,0.0,0.0,0.0,0.0,0.0,0.0,0.0,0.0,0.0,0.0,0.0,0.0,0.0,0.0,0.0,0.0,0.0,0.0,0.0,0.0,0.0,0.0,0.0,0.0,0.0,0.0,0.0,0.0,0.0,0.0,0.0,0.0,0.0,0.0,0.0,0.0,0.0,0.0,0.0,0.0,0.0,0.0,0.0,0.0,0.0,0.0,0.0,0.0,0.0,0.0,0.0,0.0,0.0,0.0,0.0,0.0,0.0,0.0,0.0,0.0,0.0,0.0,0.0,0.0,0.0,0.0,0.0,0.0,0.0,0.0,0.0,0.0,0.0,0.0,0.0,0.0,0.0,0.0,0.0,0.0,0.0,0.0,0.0,0.0,0.0,0.0,0.0,0.0,0.0,0.0,0.0,0.0,0.0,0.0,0.0,0.0,0.0,0.0,0.0,0.0,0.0,0.0,-2.8248,-2.8438,-2.8361,-2.8116,-2.9142,-2.9997,0.0,0.0,0.0,0.0,0.0,0.0,0.0,0.0,0.0,0.0,0.0,0.0,0.0,0.0,0.0,0.0,0.0,0.0,0.0,0.0,0.0,0.0,0.0,0.0,0.0,0.0,0.0,0.0,0.0,0.0,0.0,0.0,0.0,0.0,0.0,0.0,0.0,0.0,0.0,0.0,0.0,0.0,0.0,0.0,0.0,0.0,0.0,0.0,0.0,0.0,0.0,0.0,0.0,0.0,0.0,0.0,0.0,0.0,0.0,0.0,0.0,0.0,0.0,0.0,0.0,0.0,0.0,0.0,0.0,0.0,0.0,0.0,0.0,0.0,0.0,0.0,0.0,0.0,0.0,0.0,0.0,0.0,0.0,0.0,0.0,0.0,0.0,0.0,0.0,0.0,0.0,0.0,0.0,0.0,0.0,0.0,0.0,0.0,0.0,0.0,0.0,0.0,0.0,0.0,0.0,0.0,0.0,0.0,0.0,-2.7365,-2.722,-2.6963,-2.6628,-2.822,-2.9251,-2.9511,0.0,0.0,0.0,0.0,0.0,0.0,0.0,0.0,0.0,0.0,0.0,0.0,0.0,0.0,0.0,0.0,0.0,0.0,0.0,0.0,0.0,0.0,0.0,0.0,0.0,0.0,0.0,0.0,0.0,0.0,0.0,0.0,0.0,0.0,0.0,0.0,0.0,0.0,0.0,0.0,0.0,0.0,0.0,0.0,0.0,0.0,0.0,0.0,0.0,0.0,0.0,0.0,0.0,0.0,0.0,0.0,0.0,0.0,0.0,0.0,0.0,0.0,0.0,0.0,0.0,0.0,0.0,0.0,0.0,0.0,0.0,0.0,0.0,0.0,0.0,0.0,0.0,0.0,0.0,0.0,0.0,0.0,0.0,0.0,0.0,0.0,0.0,0.0,0.0,0.0,0.0,0.0,0.0,0.0,0.0,0.0,0.0,0.0,0.0,0.0,0.0,0.0,0.0,0.0,0.0,0.0,0.0,0.0,-2.6251,-2.5465,-2.5385,-2.6009,-2.7016,-2.8147,0.0,0.0,0.0,0.0,0.0,0.0,0.0,0.0,0.0,0.0,0.0,0.0,0.0,0.0,0.0,0.0,0.0,0.0,0.0,0.0,0.0,0.0,0.0,0.0,0.0,0.0,0.0,0.0,0.0,0.0,0.0,0.0,0.0,0.0,0.0,0.0,0.0,0.0,0.0,0.0,0.0,0.0,0.0,0.0,0.0,0.0,0.0,0.0,0.0,0.0,0.0,0.0,0.0,0.0,0.0,0.0,0.0,0.0,0.0,0.0,0.0,0.0,0.0,0.0,0.0,0.0,0.0,0.0,0.0,0.0,0.0,0.0,0.0,0.0,0.0,0.0,0.0,0.0,0.0,0.0,0.0,0.0,0.0,0.0,0.0,0.0,0.0,0.0,0.0,0.0,0.0,0.0,0.0,0.0,0.0,0.0,0.0,0.0,0.0,0.0,0.0,0.0,0.0,0.0,0.0,0.0,0.0,0.0,0.0,-2.7294,-2.6279,-2.6176,-2.7169,-2.7934,-2.9246,0.0,0.0,0.0,0.0,0.0,0.0,0.0,0.0,0.0,0.0,0.0,0.0,0.0,0.0,0.0,0.0,0.0,0.0,0.0,0.0,0.0,0.0,0.0,0.0,0.0,0.0,0.0,0.0,0.0,0.0,0.0,0.0,0.0,0.0,0.0,0.0,0.0,0.0,0.0,0.0,0.0,0.0,0.0,0.0,0.0,0.0,0.0,0.0,0.0,0.0,0.0,0.0,0.0,0.0,0.0,0.0,0.0,0.0,0.0,0.0,0.0,0.0,0.0,0.0,0.0,0.0,0.0,0.0,0.0,0.0,0.0,0.0,0.0,0.0,0.0,0.0,0.0,0.0,0.0,0.0,0.0,0.0,0.0,0.0,0.0,0.0,0.0,0.0,0.0,0.0,0.0,0.0,0.0,0.0,0.0,0.0,0.0,0.0,0.0,0.0,0.0,0.0,0.0,0.0,0.0,0.0,0.0,0.0,-2.5493,-2.7491,-2.7092,-2.7657,-2.9329,-2.8774,-2.96,0.0,0.0,0.0,0.0,0.0,0.0,0.0,0.0,0.0,0.0,0.0,0.0,0.0,0.0,0.0,0.0,0.0,0.0,0.0,0.0,0.0,0.0,0.0,0.0,0.0,0.0,0.0,0.0,0.0,0.0,0.0,0.0,0.0,0.0,0.0,0.0,0.0,0.0,0.0,0.0,0.0,0.0,0.0,0.0,0.0,0.0,0.0,0.0,0.0,0.0,0.0,0.0,0.0,0.0,0.0,0.0,0.0,0.0,0.0,0.0,0.0,0.0,0.0,0.0,0.0,0.0,0.0,0.0,0.0,0.0,0.0,0.0,0.0,0.0,0.0,0.0,0.0,0.0,0.0,0.0,0.0,0.0,0.0,0.0,0.0,0.0,0.0,0.0,0.0,0.0,0.0,0.0,0.0,0.0,0.0,0.0,0.0,0.0,0.0,0.0,0.0,0.0,0.0,0.0,0.0,0.0,0.0,0.0,-2.506,-2.712,-2.7697,-2.9211,-3.1505,-2.9628,-2.9746,0.0,0.0,0.0,0.0,0.0,0.0,0.0,0.0,0.0,0.0,0.0,0.0,0.0,0.0,0.0,0.0,0.0,0.0,0.0,0.0,0.0,0.0,0.0,0.0,0.0,0.0,0.0,0.0,0.0,0.0,0.0,0.0,0.0,0.0,0.0,0.0,0.0,0.0,0.0,0.0,0.0,0.0,0.0,0.0,0.0,0.0,0.0,0.0,0.0,0.0,0.0,0.0,0.0,0.0,0.0,0.0,0.0,0.0,0.0,0.0,0.0,0.0,0.0,0.0,0.0,0.0,0.0,0.0,0.0,0.0,0.0,0.0,0.0,0.0,0.0,0.0,0.0,0.0,0.0,0.0,0.0,0.0,0.0,0.0,0.0,0.0,0.0,0.0,0.0,0.0,0.0,0.0,0.0,0.0,0.0,0.0,0.0,0.0,0.0,0.0,0.0,0.0,0.0,0.0,0.0,0.0,0.0,0.0,-2.5292,-2.7828,-2.7827,-2.9209,-3.221,-3.1204,-3.1797,0.0,0.0,0.0,0.0,0.0,0.0,0.0,0.0,0.0,0.0,0.0,0.0,0.0,0.0,0.0,0.0,0.0,0.0,0.0,0.0,0.0,0.0,0.0,0.0,0.0,0.0,0.0,0.0,0.0,0.0,0.0,0.0,0.0,0.0,0.0,0.0,0.0,0.0,0.0,0.0,0.0,0.0,0.0,0.0,0.0,0.0,0.0,0.0,0.0536,0.0,0.0,0.0,0.0,0.0,0.0,0.0,0.0,0.0,0.0,0.0,0.0,0.0,0.0,0.0,0.0,0.0,0.0,0.0,0.0,0.0,0.0,0.0,0.0,0.0,0.0,0.0,0.0,0.0,0.0,0.0,0.0,0.0,0.0,0.0,0.0,0.0,0.0,0.0,0.0,0.0,0.0,0.0,0.0,0.0,0.0,0.0,0.0,0.0,0.0,0.0,0.0,0.0,0.0,0.0,0.0,0.0,0.0,0.0,-2.5424,-2.7548,-2.8449,-3.0013,-3.2278,-3.2302,-3.3051,0.0,0.0,0.0,0.0,0.0,0.0,0.0,0.0,0.0,0.0,0.0,0.0,0.0,0.0,0.0,0.0,0.0,0.0,0.0,0.0,0.0,0.0,0.0,0.0,0.0,0.0,0.0,0.0,0.0,0.0,0.0,0.0,0.0,0.0,0.0,0.0,0.0,0.0,0.0,0.0,0.0,0.0,0.0,0.0,0.0,0.0,0.0,0.0,0.0,0.0,0.0,0.0,0.0,0.0,0.0,0.0,0.0,0.0,0.0,0.0,0.0,0.0,0.0,0.0,0.0,0.0,0.0,0.0,0.0,0.0,0.0,0.0,0.0,0.0,0.0,0.0,0.0,0.0,0.0,0.0,0.0,0.0,0.0,0.0,0.0,0.0,0.0,0.0,0.0,0.0,0.0,0.0,0.0,0.0,0.0,0.0,0.0,0.0,0.0,0.0,0.0,0.0,0.0,0.0,0.0,0.0,0.0,-2.326,-2.5474,-2.6991,-2.9026,-3.0811,-3.228,-3.2857,-3.3583,-3.4665,0.0,0.0,0.0,0.0,0.0,0.0,0.0,0.0,0.0,0.0,0.0,0.0,0.0,0.0,0.0,0.0,0.0,0.0,0.0,0.0,0.0,0.0,0.0,0.0,0.0,0.0,0.0,0.0,0.0,0.0,0.0,0.0,0.0,0.0,0.0,0.0,0.0,0.0,1.2169,1.0448,0.0,0.0,0.0,0.0,0.0,0.0,0.0,0.0,-0.1434,0.0,0.0,0.0,0.0,0.0,0.0,0.0,0.0,0.0,0.0,0.0,0.0,0.0,0.0,0.0,0.0,0.0,0.0,0.0,0.0,0.0,0.0,0.0,0.0,0.0,0.0,0.0,0.0,0.0,0.0,0.0,0.0,0.0,0.0,0.0,0.0,0.0,0.0,0.0,0.0,0.0,0.0,0.0,0.0,0.0,0.0,0.0,0.0,0.0,0.0,0.0,0.0,0.0,0.0,0.0,0.0,-1.9507,-2.2403,-2.4853,-2.6967,-2.8494,-3.0314,-3.2451,-3.2055,-3.2825,-3.4984,0.0,0.0,0.0,0.0,0.0,0.0,0.0,0.0,0.0,0.0,0.0,0.0,0.0,0.0,0.0,0.0,0.0,0.0,0.0,0.0,0.0,0.0,0.0,0.0,0.0,0.0,0.0,0.0,0.0,0.0,0.0,0.0,0.0,0.0,0.0,0.0,0.0,0.0,0.0,1.012,0.9598,0.0,0.0,0.0,0.0,0.0,0.0,0.0,0.0,-0.297,0.0,0.0,0.0,0.0,0.0,0.0,0.0,0.0,0.0,0.0,0.0,0.0,0.0,0.0,0.0,0.0,0.0,0.0,0.0,0.0,0.0,0.0,0.0,0.0,0.0,0.0,0.0,0.0,0.0,0.0,0.0,0.0,0.0,0.0,0.0,0.0,0.0,0.0,0.0,0.0,0.0,0.0,0.0,0.0,0.0,0.0,0.0,0.0,0.0,0.0,0.0,0.0,0.0,0.0,0.0,-1.9782,-2.2168,-2.4249,-2.6229,-2.8591,-3.0253,-3.1079,-3.1914,-3.2927,0.0,0.0,0.0,0.0,0.0,0.0,0.0,0.0,0.0,0.0,0.0,0.0,0.0,0.0,0.0,0.0,0.0,0.0,0.0,0.0,0.0,0.0,0.0,0.0,0.0,0.0,0.0,0.0,0.0,0.0,0.0,0.0,0.0,0.0,0.0,0.0,0.0,0.0,0.0,0.0,1.0138,1.0794,1.2582,0.0,0.0,0.0,0.0,0.0,0.0,-0.0364,-0.1911,0.0,0.0,0.0,0.0,0.0,0.0,0.0,0.0,0.0,0.0,0.0,0.0,0.0,0.0,0.0,0.0,0.0,0.0,0.0,0.0,0.0,0.0,0.0,0.0,0.0,0.0,0.0,0.0,0.0,0.0,0.0,0.0,0.0,0.0,0.0,0.0,0.0,0.0,0.0,0.0,0.0,0.0,0.0,0.0,0.0,0.0,0.0,0.0,0.0,0.0,0.0,0.0,0.0,0.0,0.0,-1.9987,-2.201,-2.3866,-2.5597,-2.8657,-3.0253,-3.0203,-3.1804,-3.3004,0.0,0.0,0.0,0.0,0.0,0.0,0.0,0.0,0.0,0.0,0.0,0.0,0.0,0.0,0.0,0.0,0.0,0.0,0.0,0.0,0.0,0.0,0.0,0.0,0.0,0.0,0.0,0.0,0.0,0.0,0.0,0.0,0.0,0.0,0.0,0.0,0.0,0.0,0.0,0.0,0.0,1.2973,1.615,1.2872,0.0,0.0,0.0,0.0,0.3084,0.0827,0.0,0.0,0.0,0.0,0.0,0.0,0.0,0.0,0.0,0.0,0.0,0.0,0.0,0.0,0.0,0.0,0.0,0.0,0.0,0.0,0.0,0.0,0.0,0.0,0.0,0.0,0.0,0.0,0.0,0.0,0.0,0.0,0.0,0.0,0.0,0.0,0.0,0.0,0.0,0.0,0.0,0.0,0.0,0.0,0.0,0.0,0.0,0.0,0.0,0.0,0.0,0.0,0.0,0.0,0.0,0.0,-1.9298,-2.1606,-2.3763,-2.5926,-2.8299,-3.0304,-3.1769,-3.1323,-3.2231,0.0,0.0,0.0,0.0,0.0,0.0,0.0,0.0,0.0,0.0,0.0,0.0,0.0,0.0,0.0,0.0,0.0,0.0,0.0,0.0,0.0,0.0,0.0,0.0,0.0,0.0,0.0,0.0,0.0,0.0,0.0,0.0,0.0,0.0,0.0,0.0,0.0,0.0,0.0,0.0,0.0,1.6872,1.7267,1.6839,1.634,0.0,0.0,0.4051,0.4116,0.1605,0.0,0.0,0.0,0.0,0.0,0.0,0.0,0.0,0.0,0.0,0.0,0.0,0.0,0.0,0.0,0.0,0.0,0.0,0.0,0.0,0.0,0.0,0.0,0.0,0.0,0.0,0.0,0.0,0.0,0.0,0.0,0.0,0.0,0.0,0.0,0.0,0.0,0.0,0.0,0.0,0.0,0.0,0.0,0.0,0.0,0.0,0.0,0.0,0.0,0.0,0.0,0.0,0.0,0.0,0.0,-1.6279,-1.9221,-2.1342,-2.3468,-2.5525,-2.8512,-3.019,-3.0568,-3.0977,-3.194,0.0,0.0,0.0,0.0,0.0,0.0,0.0,0.0,0.0,0.0,0.0,0.0,0.0,0.0,0.0,0.0,0.0,0.0,0.0,0.0,0.0,0.0,0.0,0.0,0.0,0.0,0.0,0.0,0.0,0.0,0.0,0.0,0.0,0.0,0.0,0.0,0.0,0.0,0.0,0.0,0.0,0.0,2.1324,1.9086,0.0,0.0,0.0,0.5111,0.5573,0.0,0.0,0.0,0.0,0.0,0.0,0.0,0.0,0.0,0.0,0.0,0.0,0.0,0.0,0.0,0.0,0.0,0.0,0.0,0.0,0.0,0.0,0.0,0.0,0.0,0.0,0.0,0.0,0.0,0.0,0.0,0.0,0.0,0.0,0.0,0.0,0.0,0.0,0.0,0.0,0.0,0.0,0.0,0.0,0.0,0.0,0.0,0.0,0.0,0.0,0.0,0.0,0.0,0.0,0.0,0.0,0.0,-1.9298,-2.1451,-2.3345,-2.5062,-2.8699,-3.0303,-2.977,-3.1252,0.0,0.0,0.0,0.0,0.0,0.0,0.0,0.0,0.0,0.0,0.0,0.0,0.0,0.0,0.0,0.0,0.0,0.0,0.0,0.0,0.0,0.0,0.0,0.0,0.0,0.0,0.0,0.7411,0.0,0.0,0.0,0.0,0.0,0.0,0.0,0.0,0.0,0.0,0.0,0.0,0.0,0.0,2.1702,2.6133,2.3219,2.145,0.0,0.0,0.7741,0.7441,0.546,0.3868,0.0,0.0,0.0,0.0,0.0,0.0,0.0,0.0,0.0,0.0,0.0,0.0,0.0,0.0,0.0,0.0,0.0,0.0,0.0,0.0,0.0,0.0,0.0,0.0,0.0,0.0,0.0,0.0,0.0,0.0,0.0,0.0,0.0,0.0,0.0,0.0,0.0,0.0,0.0,0.0,0.0,0.0,0.0,0.0,0.0,0.0,0.0,0.0,0.0,0.0,0.0,0.0,0.0,0.0,0.0,-1.9239,-2.1854,-2.3725,-2.4798,-2.8663,-3.0729,-3.0624,-3.2497,-3.3728,0.0,0.0,0.0,0.0,0.0,0.0,0.0,0.0,0.0,0.0,0.0,0.0,0.0,0.0,0.0,0.0,0.0,0.0,0.0,0.0,0.0,0.0,0.0,0.0,0.0,0.0,0.0,0.0,0.0,0.0,0.0,0.0,0.0,0.0,0.0,0.0,0.0,0.0,0.0,0.0,0.0,2.7705,3.118,3.1336,2.9743,0.0,0.0,1.293,0.9965,0.7677,0.6121,0.5997,0.0,0.0,0.0,0.0,0.0,0.0,0.0,0.0,0.0,0.0,0.0,0.0,0.0,0.0,0.0,0.0,0.0,0.0,0.0,0.0,0.0,0.0,0.0,0.0,0.0,0.0,0.0,0.0,0.0,0.0,0.0,0.0,0.0,0.0,0.0,0.0,0.0,0.0,0.0,0.0,0.0,0.0,0.0,0.0,0.0,0.0,0.0,0.0,0.0,0.0,0.0,0.0,0.0,-1.8922,-2.0624,-2.2549,-2.4289,-2.5786,-2.8524,-2.9935,-2.991,-3.0718,-3.1241,0.0,0.0,0.0,0.0,0.0,0.0,0.0,0.0,0.0,0.0,0.0,0.0,0.0,0.0,0.0,0.0,0.0,0.0,0.0,0.0,0.0,0.0,0.0,0.0,0.0,0.0,0.0,0.0,0.9894,1.1983,1.4348,0.0,0.0,0.0,0.0,0.0,0.0,0.0,0.0,0.0,0.0,3.1287,3.3037,3.306,0.0,0.0,2.5071,2.0621,1.8868,1.5355,1.2655,1.2112,0.9055,0.0,0.0,0.0,0.0,0.0,0.0,0.0,0.0,0.0,0.0,0.0,0.0,0.0,0.0,0.0,0.0,0.0,0.0,0.0,0.0,0.0,0.0,0.0,0.0,0.0,0.0,0.0,0.0,0.0,0.0,0.0,0.0,0.0,0.0,0.0,0.0,0.0,0.0,0.0,0.0,0.0,0.0,0.0,0.0,0.0,0.0,0.0,0.0,0.0,0.0,0.0,0.0,-1.9876,-2.154,-2.2758,-2.3978,-2.5253,-2.7105,-2.8112,-2.8044,-2.9113,-2.9378,0.0,0.0,0.0,0.0,0.0,0.0,0.0,0.0,0.0,0.0,0.0,0.0,0.0,0.0,0.0,0.0,0.0,0.0,0.0,0.0,0.0,0.0,0.0,0.0,0.0,0.0,0.0,0.0,1.0329,1.2765,1.5583,0.0,0.0,0.0,0.0,0.0,0.0,0.0,0.0,0.0,0.0,3.3752,3.48,3.4381,3.3172,3.1216,2.7188,2.3503,2.1009,1.8816,1.7097,1.6116,0.0,0.0,0.0,0.0,0.0,0.0,0.0,0.0,0.0,0.0,0.0,0.0,0.0,0.0,0.0,0.0,0.0,0.0,0.0,0.0,0.0,0.0,0.0,0.0,0.0,0.0,0.0,0.0,0.0,0.0,0.0,0.0,0.0,0.0,0.0,0.0,0.0,0.0,0.0,0.0,0.0,0.0,0.0,0.0,0.0,0.0,0.0,0.0,0.0,0.0,0.0,0.0,0.0,-2.0541,-2.1457,-2.2265,-2.2629,-2.2599,-2.4303,-2.5139,-2.5016,-2.8329,-2.8988,-2.6581,0.0,0.0,0.0,0.0,0.0,0.0,0.0,0.0,0.0,0.0,0.0,0.0,0.0,0.0,0.0,0.0,0.0,0.0,0.0,0.0,0.0,0.0,0.0,0.0,0.0,0.0,0.7258,1.0372,1.3436,0.0,0.0,0.0,0.0,0.0,0.0,0.0,0.0,0.0,0.0,3.3104,3.5278,3.6954,3.6133,3.313,2.682,2.3959,2.0275,1.4327,1.6261,1.8181,0.0,0.0,0.0,0.0,0.0,0.0,0.0,0.0,0.0,0.0,0.0,0.0,0.0,0.0,0.0,0.0,0.0,0.0,0.0,0.0,0.0,0.0,0.0,0.0,0.0,0.0,0.0,-0.8138,-0.6954,0.0,0.0,0.0,0.0,0.0,0.0,0.0,0.0,0.0,0.0,0.0,1.9268,2.4502,0.0,0.0,0.0,0.0,0.0,0.0,0.0,0.0,0.0,0.0,0.0,0.0,-1.9297,-2.138,-2.15,-2.1743,-2.2261,-2.377,-2.463,-2.4577,-2.5683,-2.6107,-2.5543,0.0,0.0,0.0,0.0,0.0,0.0,0.0,0.0,0.0,0.0,0.0,0.0,0.0,0.0,0.0,0.0,0.0,0.0,0.0,0.0,0.0,0.0,0.0,0.0,0.0,0.6891,0.0,0.0,0.0,0.0,0.0,0.0,0.0,0.0,0.0,0.0,0.0,2.971,3.2484,3.4954,3.7075,3.8459,3.7974,3.682,0.0,0.0,0.0,0.0,0.0,0.0,0.0,0.0,0.0,0.0,0.0,0.0,0.0,0.0,-0.5094,-0.3923,-0.4137,-0.427,-0.3444,0.0,0.0,0.0,0.0,0.0,0.0,0.0,0.0,0.0,0.0,0.0,0.0,0.0,0.0,0.0,0.0,0.3705,0.0,0.0,0.0,0.0,0.0,0.0,0.0,0.0,2.1524,2.6455,2.8031,3.3241,3.3122,0.0,2.7448,2.2422,0.0,0.0,0.0,0.0,0.0,0.0,0.0,0.0,-1.1727,-1.087,-0.9983,-0.992,-1.0617,-1.1218,-1.1652,-1.1769,-1.1646,-1.1961,-1.286,-0.5528,-0.4514,0.0,0.0,0.0,0.0,0.0,0.0,0.0,0.0,0.0,0.0,0.0,0.0,0.0,0.0,0.0,0.0,0.0,0.0,0.0,0.0,0.0,0.0,0.0,1.1363,0.0,0.0,0.0,0.0,0.0,0.0,0.0,0.0,0.0,2.6138,2.9941,3.324,3.4611,3.6787,3.8148,3.782,0.0,0.0,0.0,0.0,0.0,0.0,0.0,2.7247,2.9855,2.734,2.2414,1.5016,0.5372,-0.2777,-0.6632,0.0,0.0,-0.5405,-0.5347,-0.5388,-0.4703,-0.5258,-0.5887,-0.5634,-0.6259,-0.6788,0.0,0.0,0.0,0.0,0.0,0.0,0.0,0.0,1.3234,1.3352,0.0,1.442,0.0,0.0,0.0,0.0,0.0,0.0,0.0,0.0,3.9656,4.5059,4.4558,4.4433,4.4634,4.4821,4.3297,3.861,3.068,2.237,0.0,0.0,0.0,0.0,0.0,0.0,0.1845,0.8578,1.0285,1.1327,1.0718,1.1658,1.1997,1.1441,1.1819,1.1157,1.0084,1.1083,1.1889,1.1656,0.1186,0.0,0.0,0.0,0.0,0.0,0.0,0.0,0.0,0.0,0.0,0.0,0.0,0.0,0.0,0.0,0.0,0.0,0.0,0.0,0.0,1.6715,0.0,0.0,0.0,0.0,0.0,0.0,0.0,0.0,0.0,0.0,3.1412,3.3037,3.4968,3.6501,0.0,0.0,0.0,0.0,3.3593,3.0669,2.9272,2.7892,2.5601,2.8978,3.1967,3.236,0.0,0.0,2.1229,1.1323,0.2606,-0.5499,-0.7695,-0.8592,-0.725,-0.6102,-0.5402,-0.5485,-0.5842,-0.6096,-0.627,-0.7027,-0.7851,3.501,0.0,0.0,0.0,0.0,1.5497,1.7166,2.441,2.4357,2.4548,2.4928,2.5198,0.0,0.0,0.0,0.0,0.0,0.0,2.7508,3.1174,3.3876,3.8812,4.5679,4.5682,4.5601,4.5448,4.5284,4.3922,4.1387,3.9018,2.9959,1.4715,0.0,0.0,0.0,0.0,1.0251,1.1785,1.3095,1.3663,1.3418,1.3072,1.2723,1.2493,1.2583,1.2382,1.1898,1.9421,1.9921,1.2137,1.6114,0.0,0.0,0.0,0.0,0.0,0.0,0.0,0.0,0.0,0.0,0.0,0.0,0.0,0.0,0.0,0.0,0.0,0.0,0.0,0.8913,1.6261,2.0302,0.0,0.0,0.0,0.0,0.0,0.0,0.0,0.0,0.0,3.4322,3.5654,3.6491,0.0,0.0,3.6644,3.4837,3.5463,3.6057,3.6024,0.0,0.0,0.0,3.2627,3.2368,3.571,3.3553,2.9619,2.4945,1.8132,1.0159,0.0503,-0.069,-0.1958,-0.8122,-0.8769,-0.7935,-0.6954,-0.7087,-0.7279,-0.7108,-0.7785,-0.8585,4.4006,4.2335,3.6133,3.3723,3.3524,2.7981,2.9419,3.5661,3.5648,3.5579,3.5579,3.5889,3.2432,2.6125,2.2423,0.0,0.0,0.0,3.2594,3.7368,3.6876,3.9993,4.58,4.5917,4.5807,4.5664,4.5664,4.5703,4.5741,4.5371,3.8884,2.6526,0.0,0.0,2.328,2.1513,2.2149,2.5141,2.6145,2.659,2.6502,2.6011,2.5697,2.5513,2.551,2.5468,2.5488,3.162,3.1964,2.5255,2.7197,2.5445,0.0,0.0,0.0,0.0,0.0,0.0,0.0,0.0,0.0,0.0,0.0,-0.7455,-0.4698,0.0,0.0,0.0,1.184,1.5197,1.9705,2.3802,0.0,0.0,0.0,0.0,0.0,0.0,0.0,3.1789,3.4803,3.6851,3.6864,3.7941,3.8316,3.7177,3.7421,3.7224,3.5864,0.0,3.7644,3.7425,3.6874,3.6829,3.7649,3.5578,3.5037,3.8554,3.6169,3.1892,2.7897,2.4229,1.7188,0.572,0.2575,0.0346,-0.8687,-1.01,-0.9551,-0.8229,-0.8077,-0.8077,-0.7804,-0.8321,-0.8638,4.5656,4.5507,4.3136,4.2951,4.4187,4.3766,4.4344,4.568,4.5647,4.5254,4.4557,4.5338,4.4755,4.2583,3.4228,0.0,4.3856,3.5641,3.698,4.587,4.5753,4.5772,4.587,4.5632,4.5528,4.557,4.5222,4.5261,4.5623,4.4557,4.402,4.3899,3.5959,3.559,4.2085,3.5049,3.5483,4.3904,4.4418,4.4862,4.5056,4.5208,4.5202,4.4891,4.5079,4.4916,4.4998,4.4996,4.5158,4.4983,3.5542,3.0419,3.089,0.0,0.0,0.0,0.0,0.0,0.0,0.0,0.0,0.0,0.0,0.0,0.0,0.0,0.0,0.0,2.2921,0.0,3.767,3.5326,0.0,0.0,0.0,3.0235,3.2223,3.4387,3.5691,3.571,0.0,0.0,3.8859,0.0,4.0032,3.9013,3.9434,3.9235,3.7652,3.8342,3.836,3.644,3.6337,3.6689,3.7251,3.7568,3.8418,4.0227,4.1523,3.8649,3.2091,3.0615,2.3573,0.825,0.4681,0.1339,-0.8506,-0.9151,-0.8611,-0.9112,-0.8991,-0.8616,-0.849,-0.8404,-0.8415,4.5726,4.5648,4.5099,4.5136,4.5538,4.5375,4.5472,4.5774,4.5709,4.556,4.5325,4.5582,4.5471,4.4908,4.2935,4.3254,4.5275,4.3238,4.3591,4.5896,4.5835,4.5788,4.5739,4.5673,4.5524,4.5321,4.551,4.5587,4.5534,4.5403,4.5009,4.4325,4.2275,4.1745,4.2626,4.0939,4.1407,4.4221,4.4636,4.5201,4.5961,4.5889,4.5799,4.5754,4.5766,4.5709,4.5629,4.5617,4.5611,4.5551,4.2979,4.13,4.0722,2.5377,0.0,0.0,0.0,0.0,0.0,0.0,0.0,0.0,0.0,0.0866,0.3328,0.0,0.2772,0.0,3.3515,3.6451,2.9636,3.3486,0.0,0.0,3.3279,3.3787,3.7006,3.7286,3.7486,3.8156,3.9091,3.9415,3.8738,3.9105,3.9353,3.9091,3.9429,3.9099,3.7415,3.7877,3.8332,3.7963,3.7899,3.8035,3.8109,3.8343,3.8807,3.9656,4.0255,3.9757,3.7721,3.831,3.4364,2.1393,2.0345,1.3171,-0.7068,-0.0928,0.2765,-0.7468,-0.9845,-0.8634,-0.8229,-0.8384,-0.8663,4.5337,4.5357,4.5362,4.5447,4.5579,4.5731,4.578,4.5739,4.578,4.5742,4.5661,4.5738,4.5821,4.5886,4.6028,4.6014,4.5859,4.5874,4.5891,4.5861,4.5658,4.5582,4.5611,4.5491,4.5285,4.4981,4.5247,4.5303,4.5186,4.532,4.5229,4.495,4.4931,4.4448,4.3534,4.3349,4.3517,4.3983,4.4472,4.5145,4.5942,4.5894,4.5675,4.538,4.5281,4.5082,4.4763,4.47,4.4657,4.4545,4.451,4.4233,4.3568,3.3911,2.8118,0.0,0.0,0.0,0.0,0.0,0.0,0.0,0.0,0.0,0.0,0.0,1.0864,2.8399,3.7089,3.9065,3.2724,3.5966,3.8088,3.7054,3.6885,3.766,3.9896,3.983,3.9743,4.0106,4.007,3.9738,3.9188,3.9252,3.9253,3.8959,3.9348,3.9191,3.8095,3.839,3.8801,3.8584,3.8294,3.8246,3.8405,3.9076,3.9648,3.9958,4.036,4.0648,4.0668,4.1452,3.7925,2.6274,2.6076,2.3756,0.7482,0.8938,1.1398,0.4465,0.1324,-0.0867,-0.7508,-0.9053,-0.9118,4.4695,4.4754,4.473,4.4791,4.4935,4.5383,4.5589,4.5635,4.5768,4.5768,4.5718,4.5825,4.5945,4.6048,4.6048,4.5967,4.5805,4.5794,4.5719,4.5561,4.5304,4.5246,4.534,4.5137,4.4876,4.4667,4.4719,4.4726,4.4745,4.4789,4.4963,4.5235,4.5288,4.4969,4.4311,4.3722,4.3487,4.3558,4.4253,4.4885,4.5407,4.5349,4.5001,4.4414,4.4219,4.3897,4.3354,4.33,4.3217,4.3066,4.3153,4.3209,4.3206,4.1129,3.6873,0.0,2.8117,0.0,0.0,0.0,0.0,0.0,0.0,0.0,0.0,1.7973,2.1609,2.9158,3.6918,4.1196,4.0502,4.0139,4.0246,4.0884,4.0973,4.1089,4.142,4.1727,4.1778,4.1622,4.0884,4.0275,3.9909,3.9832,3.9516,3.8759,3.8984,3.904,3.8513,3.8774,3.8903,3.8351,3.8039,3.8053,3.8561,3.9673,4.0494,4.0597,4.0894,4.1284,4.1343,4.1882,3.8708,2.9026,2.9287,2.9821,2.6256,2.1957,1.8685,1.5507,1.5512,1.123,-0.3213,-0.7492,-0.8236,4.4042,4.4024,4.4233,4.4344,4.4361,4.4735,4.5051,4.5274,4.5343,4.5491,4.5706,4.5731,4.5735,4.5778,4.5778,4.5592,4.5247,4.5247,4.511,4.4878,4.4681,4.4581,4.4594,4.4482,4.4402,4.4393,4.4448,4.4484,4.4484,4.4695,4.4507,4.3999,4.4169,4.396,4.3327,0.0,0.0,0.0,4.4199,4.4588,4.4524,4.4017,4.3571,4.324,4.3305,0.0,4.285,4.3034,4.3043,4.2879,4.3029,0.0,0.0,0.0,0.0,0.0,0.0,0.0,0.0,0.0,0.0,0.0,2.1641,2.1912,2.5097,3.056,3.3043,3.1148,3.6551,4.0883,4.2226,4.2085,4.1922,4.2065,4.1861,4.1722,4.1864,4.1674,4.1692,4.2032,4.1339,4.0829,4.0677,4.0253,3.9462,3.8465,3.8415,3.8129,3.7325,3.7496,3.763,3.77,3.8125,3.8485,3.8959,3.9691,4.0288,4.0074,4.0557,4.099,4.1204,4.1867,4.2128,3.756,3.9188,4.0055,3.9508,3.8485,3.2386,1.9019,2.2311,2.2033,0.4412,0.0338,-0.1569,4.352,0.0,4.3586,4.3619,0.0,4.3754,4.3953,4.4275,4.4794,4.5093,4.5259,4.5188,4.5207,4.524,4.5259,4.5093,4.4836,4.4645,4.4424,4.4195,4.3919,4.3751,4.3751,4.3745,4.3638,4.3476,4.3509,4.3624,4.3838,4.399,4.4037,4.4014,4.4241,4.4236,4.3922,4.3883,4.3827,4.3689,4.4134,4.4446,4.4645,4.4246,4.3766,4.3321,0.0,0.0,0.0,0.0,0.0,0.0,0.0,0.0,0.0,0.0,0.0,4.211,3.792,3.467,3.3463,3.3206,3.3002,3.277,3.2393,3.2574,3.3416,3.7184,3.8474,3.6136,3.9008,4.1142,4.1614,4.1785,4.1662,4.1325,4.1171,4.1034,4.0918,4.0935,4.0998,4.1145,4.0497,3.9976,4.0183,3.9426,3.8687,3.8128,3.7969,3.7881,3.7574,3.7731,3.8125,3.8645,3.9435,3.9812,3.9787,4.042,4.0926,4.0953,4.1257,4.1577,4.1713,4.2124,4.2239,4.1847,4.2569,4.3494,4.3923,4.3686,4.0464,3.284,3.3594,3.0513,1.3581,0.5762,0.1404,4.3068,4.305,4.2957,4.2939,4.2957,4.2957,4.3051,4.3314,0.0,0.0,0.0,4.4442,4.4448,4.4562,4.452,4.4397,4.421,4.3915,4.3608,4.3299,4.3061,4.2886,4.2832,4.2939,4.2814,4.2515,4.2533,4.2758,4.3139,4.3156,4.3531,4.4223,4.4482,4.4657,4.4726,4.4726,4.4535,4.4172,4.4036,4.4176,4.4678,4.4367,4.392,4.3346,4.2953,4.2491,4.1927,4.2143,4.2297,4.2316,4.2802,4.3199,4.3446,4.3531,4.3277,4.2656,4.2471,4.1945,4.0975,4.0626,4.0375,4.0117,3.9477,3.9221,3.9461,4.0005,4.0393,4.0469,4.1034,4.1161,4.0492,4.0813,4.0843,4.0254,4.0218,4.0181,4.0032,4.0164,4.0438,4.0365,3.9734,3.9157,3.947,3.8697,3.7929,3.7913,3.7966,3.8054,3.8397,3.8688,3.9011,3.9793,4.0499,4.0945,4.0684,4.125,4.196,4.1885,4.2119,4.2457,4.2588,4.2701,4.2588,4.2363,4.3194,4.3918,4.4345,4.416,4.406,4.4224,4.247,3.6861,2.1942,0.9856,0.2128,4.2548,4.2432,4.2634,4.275,4.2732,4.3032,4.3123,4.3087,4.3675,4.3927,4.3908,4.367,4.359,4.3584,4.3421,4.3177,4.2867,4.2796,4.2499,0.0,4.219,4.2149,4.1848,4.2149,4.2324,4.2262,4.2244,4.2382,4.26,4.2683,4.3066,4.3735,4.3862,4.4053,4.4438,4.4438,4.4417,4.4339,4.3686,4.3281,4.3222,4.2594,4.2136,4.1838,4.1875,4.1733,4.1408,4.166,4.186,4.1982,4.2319,4.3005,4.4079,4.4233,4.4239,4.4175,4.4247,4.3622,4.2103,4.1726,4.1034,3.9816,3.9445,3.9193,3.8921,3.8692,3.8842,3.9494,3.9675,3.977,4.0073,4.0384,4.0474,4.0202,4.0238,4.0402,4.0559,4.0436,4.0453,4.0781,4.028,3.9699,3.9621,3.9098,3.851,3.8322,3.8482,3.8922,3.9569,3.9301,3.932,4.0153,4.0671,4.0895,4.1157,4.183,4.23,4.1978,4.2595,4.3066,4.3206,4.3376,4.3398,4.3282,4.3606,4.3992,4.4375,4.4079,4.398,4.393,3.9678,3.2557,2.5669,1.3263,0.1184,4.2508,4.2445,4.253,4.2552,4.2494,4.2631,4.267,4.2652,4.2867,4.3122,4.3281,4.3156,4.3139,4.3139,4.3014,4.2905,4.2755,4.249,4.2073,4.1578,4.1481,4.1213,4.0844,4.123,4.141,4.1455,4.177,4.205,4.232,4.2386,4.268,4.3249,4.3586,4.399,4.4411,4.4069,4.3856,4.3806,4.3849,4.3792,4.3699,4.3025,4.2606,4.2447,4.2164,4.2028,4.2189,4.24,4.2699,4.3034,4.3558,4.4128,4.4691,4.497,4.4967,4.4647,4.4674,4.3991,4.2402,4.1687,4.0951,4.0119,3.9867,3.9542,3.9099,3.8818,3.8817,3.9108,3.9443,3.9564,3.9415,3.9808,3.9947,3.9462,3.9477,3.9575,3.9703,3.9639,3.9607,3.974,3.9491,3.9301,3.9314,3.9031,3.8762,3.8645,3.9105,3.9863,4.0607,4.0757,4.0908,4.1611,4.1956,4.2129,4.2244,4.2722,4.3013,4.2896,4.3275,4.3529,4.3566,4.3686,4.3697,4.3572,4.366,4.3777,4.4017,4.3968,4.4053,4.3951,4.2014,3.5339,2.2798,0.8503,-0.2287,4.2269,4.2222,4.2205,4.2121,4.2002,4.2019,4.2019,4.1959,4.1959,4.2151,4.2418,4.2595,4.2691,4.2691,4.2613,4.2613,4.2555,4.2216,4.176,4.1213,4.1065,4.0676,4.0237,4.0707,4.096,4.1007,4.1408,4.1788,4.2092,4.2032,4.2216,4.2693,4.3301,4.3786,4.4098,4.3531,4.3175,4.3158,4.3647,4.3918,4.3869,4.3348,4.3068,4.2996,4.2523,4.236,4.2711,4.2923,4.3298,4.3823,4.438,4.4782,4.502,4.5341,4.5307,4.4919,4.4926,4.4289,4.2792,4.1525,4.0752,4.0468,4.0257,3.9967,3.9569,3.9427,3.9173,3.8976,3.9416,3.9485,3.8865,3.9234,3.9387,3.8768,3.8743,3.8895,3.8899,3.8822,3.8792,3.8762,3.8833,3.8881,3.8803,3.8778,3.8936,3.9275,4.0085,4.0917,4.1388,4.2124,4.2745,4.2976,4.3124,4.3051,4.3178,4.3321,4.3477,4.3664,4.3763,4.3749,4.3716,4.3767,4.3763,4.3638,4.3642,4.3712,4.3717,4.3767,4.4011,4.4119,4.1883,3.4466,1.6117,0.6149,-0.306,4.1463,4.1346,4.1391,4.1237,4.1174,4.1174,4.1082,4.099,4.0943,4.0926,4.1157,4.1666,4.2002,4.1959,4.1805,4.1744,4.1719,4.1675,4.1174,4.0528,4.1146,4.1053,4.0302,4.1053,4.1515,4.1498,4.156,4.1719,4.1917,4.1552,4.1596,4.2008,4.2655,4.3014,4.3032,4.2752,4.258,4.258,4.2462,4.2404,4.2404,4.2342,4.232,4.232,4.2239,4.2198,4.2257,4.2279,4.2621,4.3298,4.3465,4.3893,4.4688,4.4853,4.5044,4.5384,4.5563,4.5052,4.3551,4.1816,4.0722,4.0505,4.0358,4.0247,4.0101,4.0081,3.9664,3.9008,3.8958,3.8947,3.8378,3.887,3.9053,3.8628,3.8718,3.8892,3.9092,3.8862,3.8792,3.9045,3.9222,3.9036,3.9013,3.8961,3.9333,4.037,4.1505,4.2296,4.2477,4.3132,4.3688,4.366,4.332,4.3069,4.3249,4.3268,4.3426,4.3597,4.3697,4.3781,4.3902,4.3929,4.3936,4.3703,4.374,4.38,4.3767,4.3682,4.3594,4.2802,3.8011,2.8257,1.4071,0.8768,0.4759,4.1463,4.1346,4.1346,4.1237,4.1146,4.11,4.11,4.1053,4.0943,4.0926,4.0926,4.1174,4.1265,4.1237,4.1128,4.1163,4.1146,4.1146,4.0754,4.0136,4.0497,4.0336,3.9782,4.0319,4.0659,4.0754,4.122,4.1613,4.1683,4.1788,4.2044,4.2338,4.2555,4.2673,4.275,4.2279,4.199,4.1888,4.1578,4.1418,4.1445,4.1666,4.1778,4.1778,4.1534,4.1534,4.1778,4.1948,4.2262,4.2811,4.3298,4.3781,4.4194,4.4538,4.4919,4.5302,4.4773,4.4175,4.3574,4.1933,4.0902,4.0732,4.0688,4.0565,4.0348,4.0319,4.0043,3.9519,3.9534,3.9505,3.927,3.9451,3.9457,3.9245,3.9308,3.9421,3.9477,3.9806,4.0016,4.0061,4.0544,4.0619,4.0154,4.0026,4.0546,4.1627,4.2658,4.3091,4.3193,4.3849,4.4318,4.4402,4.4136,4.3844,4.3726,4.3664,4.3767,4.3902,4.4011,4.4123,4.4151,4.4053,4.3955,4.3721,4.3646,4.36,4.3621,4.3545,4.3311,4.1578,3.5301,2.612,1.9908,1.6409,1.109,4.1283,4.11,4.1071,4.096,4.0819,4.0819,4.0819,4.0772,4.0659,4.0676,4.0611,4.0531,4.0417,4.0483,4.0659,4.0802,4.0802,4.0802,4.0497,4.0053,4.0153,3.9969,3.9556,3.9969,4.0203,4.0351,4.0955,4.1338,4.149,4.2044,4.2391,4.2476,4.2396,4.2436,4.2516,4.2008,4.1709,4.1596,4.1255,4.1105,4.1152,4.13,4.1401,4.1401,4.1117,4.118,4.149,4.1796,4.2133,4.2577,4.323,4.3721,4.3899,4.4327,4.48,4.5169,4.4354,4.3708,4.3509,4.2207,4.1267,4.094,4.091,4.0801,4.0563,4.0526,4.0396,4.0155,4.0193,4.0176,3.9924,3.9882,3.9861,3.984,3.9802,3.9854,4.0195,4.07,4.0967,4.125,4.1775,4.1964,4.1312,4.1364,4.1938,4.268,4.336,4.3756,4.3806,4.4252,4.4629,4.47,4.4643,4.4484,4.4199,4.4151,4.4237,4.4258,4.43,4.4251,4.4363,4.4109,4.3942,4.3693,4.3461,4.3196,4.3087,4.3069,4.252,4.0093,3.5124,2.9035,2.5757,2.2606,1.7823,4.0468,4.0337,4.0238,4.0121,4.0003,3.9986,3.9935,3.9918,3.9833,3.9764,3.9816,3.9694,3.959,3.9694,4.0385,4.0754,4.0754,4.0707,4.0449,4.0003,4.0449,4.0449,4.0003,4.0497,4.0707,4.0563,4.0689,4.0943,4.1237,4.1917,4.2163,4.1959,4.2145,4.2287,4.2269,4.2002,4.1892,4.1805,4.1631,4.156,4.1498,4.1346,4.1255,4.1255,4.1209,4.1318,4.1587,4.1839,4.218,4.2673,4.2996,4.3437,4.4072,4.424,4.4594,4.5113,4.4813,4.4208,4.3509,4.2655,4.1813,4.1078,4.0961,4.0913,4.0738,4.0776,4.0746,4.0582,4.0588,4.0446,4.0062,3.9985,4.0002,4.0041,3.9905,4.0385,4.1303,4.1317,4.1561,4.2314,4.2678,4.2582,4.1911,4.2635,4.3113,4.3485,4.4121,4.4612,4.4581,4.458,4.4599,4.4617,4.4617,4.4565,4.4681,4.4503,4.4515,4.4514,4.4378,4.4229,4.4098,4.3962,4.3837,4.3646,4.33,4.2941,4.2603,4.1961,4.1069,3.9755,3.9126,3.5069,2.9145,2.8093,2.366,4.0551,4.0436,4.0288,4.0205,4.0155,4.0087,3.9969,3.9935,3.9833,3.9833,3.9798,3.9694,3.9625,3.9642,3.9952,3.9986,3.985,3.985,3.9747,3.9609,3.9747,3.9747,3.9592,3.9747,3.985,3.9901,4.012,4.0497,4.096,4.122,4.1445,4.1596,4.1596,4.1744,4.1934,4.1805,4.1719,4.1675,4.1648,4.1604,4.1604,4.1498,4.1498,4.1613,4.1226,4.1088,4.1363,4.1596,4.1984,4.2516,4.2921,4.3373,4.3791,4.4299,4.4707,4.4965,4.4742,4.4195,4.3439,4.2705,4.1912,4.108,4.1019,4.1017,4.0929,4.0929,4.0929,4.0858,4.0779,4.0667,4.0578,4.0423,4.0578,4.1039,4.1154,4.1423,4.236,4.2885,4.3329,4.3652,4.3765,4.382,4.3938,4.4058,4.4172,4.4551,4.4911,4.5096,4.5129,4.5065,4.5,4.5045,4.5068,4.5065,4.4967,4.4636,4.443,4.4505,4.4408,4.4151,4.3949,4.3961,4.3873,4.3281,4.2978,4.2181,4.157,3.9928,3.9105,3.8572,3.8098,3.5621,3.0693,2.9395,2.6127,4.0648,4.0534,4.0436,4.0337,4.0337,4.0238,4.0188,4.0138,4.0054,3.9952,3.9935,3.9833,3.9781,3.9729,3.9729,3.9625,3.9432,3.9432,3.9379,3.9325,3.9325,3.9325,3.9325,3.9288,3.9288,3.9415,3.9969,4.0449,4.0802,4.1128,4.1445,4.1753,4.1596,4.1683,4.1977,4.1892,4.1823,4.1823,4.1805,4.1823,4.1805,4.1736,4.1744,4.1788,4.1408,4.1272,4.1525,4.1831,4.2169,4.2616,4.3087,4.3461,4.3744,4.4327,4.4751,4.4867,4.4858,4.4479,4.3776,4.3104,4.2357,4.1464,4.1207,4.1088,4.1,4.1006,4.1006,4.0935,4.0882,4.0858,4.0858,4.0759,4.0938,4.1454,4.1556,4.187,4.2686,4.3501,4.416,4.4646,4.4784,4.5028,4.536,4.5079,4.5067,4.5456,4.5468,4.5437,4.5457,4.536,4.5337,4.5359,4.5277,4.5173,4.5038,4.4732,4.4552,4.457,4.4371,4.4084,4.3677,4.3738,4.3513,4.2941,4.2142,4.1292,3.9933,3.8171,3.7219,3.668,3.5728,3.3867,3.1444,3.0364,2.722,4.0714,4.0697,4.0534,4.0468,4.0485,4.0337,4.0288,4.0255,4.0138,4.0087,4.0037,3.9935,3.9884,3.9901,3.9781,3.9729,3.9677,3.9677,3.9573,3.9395,3.9448,3.9432,3.9325,3.9325,3.9325,3.9379,4.0269,4.0754,4.0802,4.1578,4.2044,4.2187,4.2145,4.2103,4.2305,4.2246,4.2246,4.2246,4.2246,4.2246,4.2246,4.2019,4.1934,4.1934,4.1719,4.1823,4.2246,4.2436,4.2711,4.3123,4.3426,4.373,4.3986,4.4336,4.4572,4.4924,4.5189,4.5098,4.4555,4.3888,4.3049,4.2179,4.1542,4.1107,4.0994,4.1012,4.1035,4.0916,4.0901,4.0914,4.0909,4.0898,4.0956,4.0878,4.1098,4.1447,4.215,4.2834,4.3904,4.5137,4.5327,4.5636,4.5725,4.5531,4.5485,4.5674,4.5655,4.5536,4.5555,4.5437,4.536,4.5379,4.532,4.5241,4.5042,4.484,4.4756,4.4645,4.4371,4.4046,4.3232,4.2993,4.2609,4.2008,4.0503,3.9593,3.8698,3.6996,3.5586,3.482,3.3622,3.2778,3.1346,2.9973,2.8798,4.0948,4.084,4.0697,4.0631,4.0631,4.0485,4.0387,4.0305,4.0255,4.0205,4.0087,4.0087,4.002,4.0037,3.9986,3.9935,3.9833,3.9935,3.9816,3.9625,3.9642,3.9625,3.9573,3.9573,3.9573,3.9677,4.022,4.0497,4.0642,4.1094,4.1499,4.1796,4.1796,4.2002,4.2387,4.2346,4.2328,4.2405,4.2346,4.2287,4.2287,4.2205,4.2187,4.2163,4.2103,4.2163,4.2287,4.221,4.2494,4.3178,4.3373,4.3726,4.4277,4.4595,4.4838,4.5115,4.5381,4.5263,4.4628,4.3899,4.3104,4.229,4.1511,4.1108,4.1047,4.1054,4.1094,4.106,4.1058,4.1022,4.1037,4.0986,4.1162,4.168,4.1777,4.2021,4.2723,4.3199,4.3627,4.4054,4.4199,4.4656,4.5463,4.547,4.5226,4.5626,4.5648,4.5606,4.5617,4.5398,4.5507,4.5565,4.5436,4.5053,4.4649,4.4113,4.371,4.3596,4.3469,4.3064,4.239,4.2084,4.1686,4.0758,3.923,3.8048,3.7124,3.5975,3.4647,3.3667,3.302,3.184,3.0518,2.955,2.8701,4.1226,4.0995,4.0918,4.0823,4.0745,4.0648,4.0534,4.0453,4.0404,4.032,4.0238,4.0188,4.0188,4.0188,4.0138,4.0037,3.9986,4.0087,4.002,3.9867,3.9798,3.9729,3.9729,3.9677,3.9677,3.9764,4.017,4.04,4.0449,4.0984,4.1455,4.1648,4.1813,4.2061,4.2405,4.2346,4.2328,4.2387,4.2328,4.2287,4.2287,4.2287,4.2287,4.2287,4.2287,4.2287,4.2269,4.2163,4.2333,4.2957,4.3355,4.3823,4.4383,4.4632,4.4876,4.5101,4.5036,4.4816,4.4515,4.3576,4.2788,4.2155,4.144,4.1035,4.106,4.1065,4.1094,4.1129,4.1094,4.1069,4.1103,4.1065,4.13,4.1733,4.1713,4.2143,4.2804,4.3011,4.323,4.3447,4.3556,4.3981,4.4335,4.4642,4.4323,4.4712,4.484,4.4904,4.4899,4.4849,4.4886,4.4864,4.465,4.4306,4.4064,4.344,4.268,4.2455,4.2254,4.1622,4.0949,4.0962,4.0775,3.9603,3.8189,3.7469,3.6543,3.5184,3.3938,3.3185,3.27,3.176,3.0811,3.0209,2.9524,4.1453,4.1209,4.1209,4.1041,4.0871,4.0745,4.0697,4.0648,4.0583,4.0485,4.0436,4.0337,4.0305,4.0288,4.0188,4.0121,4.0087,4.0087,4.007,4.002,3.9935,3.9833,3.9781,3.9781,3.9781,3.9816,4.022,4.0466,4.0497,4.1276,4.1796,4.177,4.2061,4.2405,4.2346,4.2328,4.231,4.2346,4.2328,4.2287,4.2287,4.2328,4.2328,4.2328,4.2328,4.2328,4.2328,4.2328,4.2472,4.2826,4.3474,4.3949,4.4296,4.4458,4.4758,4.5027,4.4341,4.4246,4.4081,4.3106,4.2209,4.2062,4.1415,4.0989,4.1003,4.1013,4.1022,4.1088,4.1038,4.1047,4.1132,4.1113,4.1152,4.1171,4.1225,4.151,4.1993,4.2156,4.2409,4.3011,4.33,4.3276,4.2966,4.3254,4.328,4.3325,4.3497,4.3714,4.3676,4.3788,4.3532,4.3549,4.371,4.3541,4.3245,4.2541,4.182,4.1418,4.1107,4.0359,3.9688,3.968,3.9372,3.8259,3.7581,3.6854,3.6082,3.4961,3.4206,3.3878,3.3168,3.2176,3.1593,3.1298,3.0754,4.1453,4.1192,4.1041,4.0965,4.0871,4.084,4.0793,4.0697,4.0631,4.0583,4.0534,4.0468,4.0387,4.0305,4.0238,4.0188,4.0138,4.0087,4.0087,4.0087,4.007,4.0037,3.9969,3.9969,3.9986,4.007,4.0417,4.0707,4.0707,4.1185,4.1543,4.1839,4.1856,4.2079,4.2364,4.2346,4.2346,4.2405,4.2346,4.2287,4.2328,4.2405,4.2445,4.2463,4.249,4.253,4.253,4.253,4.2768,4.3195,4.367,4.4143,4.4532,4.4674,4.4621,4.44,4.4174,4.388,4.3482,4.2664,4.211,4.2024,4.1314,4.0898,4.0979,4.0961,4.0967,4.1018,4.1012,4.1012,4.1027,4.1026,4.1033,4.1058,4.1094,4.1203,4.1375,4.1409,4.1495,4.1698,4.1813,4.2003,4.2354,4.2538,4.2767,4.3098,4.3222,4.3248,4.2997,4.2738,4.251,4.2771,4.2898,4.268,4.2311,4.1651,4.1017,4.0496,3.9926,3.9132,3.859,3.8313,3.7685,3.6721,3.6784,3.629,3.5999,3.5347,3.4992,3.4911,3.4304,3.3627,3.3368,3.2995,3.2348,4.11,4.0849,4.0676,4.0566,4.0502,4.0583,4.06,4.06,4.068,4.0728,4.0631,4.0534,4.0468,4.0404,4.0288,4.0188,4.0138,4.0087,4.0087,4.0087,4.007,4.0087,4.007,4.007,4.0087,4.0171,4.0563,4.0754,4.0879,4.1321,4.1692,4.1881,4.1924,4.2127,4.2445,4.2445,4.2427,4.2508,4.2468,4.2427,4.245,4.2508,4.2526,4.2566,4.257,4.2609,4.2609,4.2609,4.2864,4.3353,4.3767,4.4154,4.4602,4.448,4.4277,4.398,4.3446,4.29,4.2628,4.1983,4.159,4.1488,4.102,4.0908,4.0902,4.0885,4.0882,4.0948,4.0948,4.0974,4.0992,4.0983,4.0992,4.0974,4.1046,4.108,4.1066,4.109,4.1074,4.1092,4.1144,4.1231,4.181,4.1798,4.2,4.2259,4.2159,4.2158,4.2059,4.1776,4.162,4.18,4.1682,4.1359,4.1171,4.0613,4.0263,3.976,3.9277,3.8419,3.7948,3.7504,3.7155,3.6627,3.6249,3.6057,3.6092,3.6261,3.6499,3.6272,3.5722,3.5199,3.4813,3.4412,3.3759,4.0611,4.04,4.0235,4.0087,4.0003,4.0138,4.0288,4.0355,4.0648,4.0823,4.0823,4.0614,4.0566,4.0534,4.0337,4.0171,4.0138,4.0138,4.0138,4.0138,4.0087,4.0087,4.0121,4.0221,4.0271,4.0303,4.0659,4.0879,4.1094,4.17,4.199,4.2008,4.2292,4.2472,4.2508,4.2486,4.2526,4.257,4.257,4.257,4.257,4.2609,4.2609,4.2609,4.2631,4.267,4.2649,4.267,4.2921,4.3539,4.3721,4.4039,4.4425,4.395,4.3605,4.3361,4.2432,4.1794,4.1594,4.117,4.0848,4.0873,4.0862,4.0804,4.0815,4.0818,4.0859,4.091,4.0887,4.0921,4.0928,4.0961,4.0929,4.0907,4.0949,4.0974,4.0974,4.0988,4.1007,4.1071,4.1112,4.1094,4.1089,4.1046,4.105,4.1571,4.145,4.1429,4.1318,4.1098,4.0835,4.0632,4.0348,3.9911,3.9741,3.9539,3.9359,3.9098,3.8774,3.8168,3.7809,3.7445,3.7253,3.6913,3.6339,3.6499,3.6995,3.7324,3.7616,3.7361,3.6613,3.6336,3.6137,3.5579,3.506,4.0449,4.0417,4.0121,3.9935,3.9884,3.9799,3.9952,4.0305,4.0387,4.0648,4.0823,4.0823,4.0728,4.0648,4.0551,4.0436,4.0288,4.0238,4.0188,4.0087,4.0087,4.0087,4.0221,4.0434,4.0611,4.0754,4.1094,4.1348,4.1437,4.1525,4.1717,4.2086,4.2169,4.2251,4.2548,4.2588,4.2588,4.2609,4.2609,4.2609,4.2649,4.2688,4.2745,4.2745,4.2786,4.2824,4.2824,4.2824,4.3142,4.3605,4.3775,4.3748,4.3823,4.3667,4.3088,4.2231,4.1741,4.1244,4.0873,4.068,4.0635,4.0759,4.08,4.0807,4.0796,4.0828,4.0869,4.0897,4.0898,4.0897,4.0868,4.0837,4.0834,4.0843,4.0848,4.0878,4.0902,4.0935,4.0992,4.1064,4.1052,4.1035,4.1066,4.1042,4.0978,4.094,4.0867,4.0828,4.0674,4.0554,4.037,4.0196,3.9981,3.9709,3.9402,3.92,3.8942,3.8707,3.8364,3.8119,3.7756,3.7392,3.7229,3.6859,3.6331,3.6804,3.7553,3.7733,3.7906,3.7643,3.7518,3.7329,3.704,3.6662,3.6258,4.007,3.9885,3.9799,3.9592,3.9398,3.9329,3.9487,3.9764,4.0138,4.0404,4.0583,4.0728,4.0745,4.0714,4.0648,4.0485,4.0436,4.0387,4.0387,4.0288,4.0288,4.0271,4.037,4.0724,4.096,4.0943,4.1499,4.1803,4.1846,4.1973,4.2239,4.2391,4.2333,4.249,4.2667,4.2688,4.2709,4.2747,4.2747,4.2747,4.2729,4.2786,4.2842,4.2842,4.29,4.29,4.29,4.29,4.303,4.3245,4.3305,4.3415,4.3347,4.2915,4.2117,4.1499,4.09,4.0712,4.0398,4.0431,4.054,4.0654,4.0732,4.0792,4.0815,4.0837,4.0858,4.0898,4.0895,4.0885,4.0822,4.0803,4.079,4.0771,4.08,4.0828,4.0869,4.0914,4.0978,4.1069,4.108,4.1071,4.1054,4.1033,4.1008,4.0954,4.0819,4.0757,4.0635,4.0504,4.0358,4.0196,3.9998,3.9717,3.9331,3.9008,3.8676,3.8446,3.8219,3.8036,3.7828,3.7502,3.7193,3.6876,3.6749,3.7246,3.7889,3.8094,3.8371,3.8418,3.8404,3.8206,3.7953,3.7589,3.7207,3.9644,3.9309,3.9523,3.9348,3.899,3.9115,3.9259,3.9418,3.9969,4.0337,4.0436,4.0648,4.0745,4.0697,4.0631,4.0583,4.0534,4.0485,4.0485,4.0485,4.0436,4.0419,4.0566,4.0884,4.1071,4.099,4.1778,4.2157,4.2279,4.2634,4.2691,4.2804,4.2804,4.2765,4.2804,4.2804,4.2824,4.2844,4.2862,4.2862,4.2882,4.29,4.29,4.29,4.2882,4.29,4.2846,4.2776,4.272,4.2687,4.247,4.2716,4.278,4.2166,4.1086,4.101,4.0437,4.0195,4.0215,4.03,4.0415,4.0462,4.0621,4.0688,4.0694,4.0713,4.0769,4.0834,4.0843,4.0866,4.0834,4.0834,4.0803,4.0764,4.0804,4.0878,4.0906,4.0964,4.105,4.1081,4.1085,4.1058,4.1074,4.1062,4.1027,4.0954,4.0809,4.0668,4.0569,4.0476,4.036,4.0196,4.0,3.9585,3.9181,3.911,3.8737,3.8382,3.8138,3.8036,3.7916,3.7539,3.7253,3.7369,3.7434,3.7854,3.8277,3.8682,3.8982,3.9224,3.9226,3.9049,3.8778,3.8518,3.8141,3.9362,3.9325,3.9594,3.9697,3.9645,3.9749,3.9935,4.0302,4.0254,4.0485,4.0776,4.0823,4.084,4.084,4.0823,4.0776,4.0631,4.0583,4.0534,4.0534,4.0534,4.0517,4.0614,4.0931,4.1071,4.1265,4.1821,4.2216,4.2338,4.2652,4.29,4.29,4.2862,4.2862,4.2862,4.2882,4.2862,4.2882,4.29,4.29,4.29,4.29,4.29,4.29,4.29,4.2846,4.2683,4.2285,4.2154,4.2563,4.1444,4.1241,4.1514,4.1358,4.084,4.0347,4.0106,4.0019,4.01,4.0139,4.023,4.0317,4.0431,4.0466,4.0446,4.0511,4.0615,4.0668,4.075,4.0831,4.0893,4.0839,4.0843,4.0826,4.0878,4.0971,4.0964,4.1019,4.1076,4.1097,4.1058,4.1052,4.1074,4.1058,4.1008,4.094,4.084,4.0725,4.0635,4.0534,4.0444,4.0251,4.0022,3.9505,3.8952,3.9064,3.8942,3.8491,3.8252,3.8086,3.788,3.7503,3.7367,3.7474,3.7633,3.7899,3.8426,3.9136,3.964,3.9982,3.9918,3.9834,3.942,3.9065,3.8974,3.9504,3.9325,3.9645,3.9783,3.9783,3.98,4.0036,4.0414,4.0466,4.0531,4.0724,4.0853,4.0871,4.0871,4.0871,4.0888,4.0793,4.0745,4.0728,4.0745,4.0728,4.0728,4.068,4.0948,4.0948,4.1071,4.1534,4.205,4.2257,4.2747,4.2938,4.29,4.29,4.29,4.29,4.29,4.29,4.29,4.29,4.29,4.29,4.29,4.29,4.29,4.2846,4.2683,4.2248,4.2013,4.1588,4.1359,4.069,4.0465,4.0518,4.0583,4.0409,4.0049,3.9973,3.9954,4.0,4.006,4.012,4.0194,4.0298,4.0364,4.0399,4.0466,4.0515,4.054,4.054,4.0635,4.0668,4.0713,4.0681,4.0688,4.0765,4.084,4.0896,4.0987,4.1037,4.1069,4.1064,4.1073,4.1072,4.1042,4.0986,4.091,4.0849,4.0765,4.0668,4.0545,4.046,4.0288,4.008,3.9705,3.9197,3.9154,3.911,3.8688,3.8428,3.83,3.8117,3.7879,3.7632,3.7522,3.7721,3.8214,3.8933,3.9765,4.0221,4.0578,4.059,4.0385,3.9969,3.9645,3.9542,3.9817,3.9609,3.9902,4.0036,4.0119,3.9986,4.0218,4.059,4.0767,4.0832,4.0832,4.0995,4.1059,4.1012,4.1012,4.0965,4.0965,4.0918,4.0888,4.0888,4.0888,4.0888,4.0888,4.0888,4.0888,4.0871,4.1463,4.1753,4.2092,4.2613,4.2862,4.29,4.29,4.2938,4.2938,4.2938,4.29,4.2938,4.29,4.29,4.29,4.29,4.29,4.2828,4.2755,4.2339,4.1905,4.1289,4.0857,4.0443,4.0067,3.9888,3.9849,3.9933,3.9975,3.9956,4.0015,3.9975,3.9996,4.0039,4.01,4.01,4.0233,4.0302,4.0317,4.0336,4.0441,4.0454,4.0469,4.0485,4.0564,4.0534,4.0549,4.0559,4.0604,4.066,4.0791,4.089,4.0983,4.1026,4.1052,4.1073,4.1084,4.1055,4.1013,4.091,4.084,4.075,4.0648,4.0519,4.0411,4.0308,4.0118,3.9854,3.9561,3.9383,3.9253,3.8905,3.8778,3.8658,3.8517,3.8373,3.8129,3.7948,3.8491,3.9035,3.9734,4.013,4.0403,4.0659,4.0995,4.0982,4.0628,4.0351,4.0252,4.0252,4.0611,4.0642,4.0926,4.1202,4.1036,4.1283,4.1622,4.1525,4.1498,4.1436,4.1471,4.1471,4.1426,4.1255,4.1163,4.1134,4.1088,4.1041,4.1041,4.1041,4.1041,4.0965,4.0871,4.1012,4.1041,4.1709,4.1864,4.2074,4.2436,4.2691,4.29,4.2938,4.2956,4.3012,4.2956,4.2956,4.3012,4.2956,4.2938,4.2938,4.2938,4.2938,4.2757,4.234,4.1887,4.156,4.076,3.994,4.0048,3.9396,3.9285,3.9508,3.9785,3.9848,3.9892,3.9954,4.0077,4.0076,4.0098,4.0078,4.0058,4.008,4.0019,4.008,4.0196,4.0304,4.0406,4.0422,4.0469,4.0534,4.0579,4.0588,4.0596,4.0617,4.0703,4.081,4.0866,4.0955,4.1007,4.1043,4.1074,4.1101,4.1074,4.1039,4.0928,4.081,4.073,4.064,4.0523,4.0413,4.0309,4.0177,3.9956,3.9807,3.9623,3.9433,3.9154,3.9091,3.9008,3.8923,3.8789,3.8621,3.8611,3.9166,3.9103,3.8862,3.9271,4.013,4.0894,4.1375,4.1426,4.1335,4.1117,4.0896,4.0136,4.0351,4.0351,4.0814,4.1445,4.1401,4.164,4.2019,4.1892,4.1762,4.1762,4.1648,4.1604,4.1587,4.1436,4.1453,4.1436,4.1463,4.1534,4.1534,4.1578,4.1692,4.1717,4.1648,4.1596,4.1622,4.1948,4.2257,4.2338,4.2673,4.3031,4.2994,4.2994,4.2994,4.3049,4.3012,4.3049,4.3104,4.3068,4.3069,4.3069,4.3087,4.3069,4.3014,4.225,4.1723,4.1067,4.0266,3.9497,3.9483,3.9101,3.9287,3.9623,3.9892,4.0057,4.0038,4.0138,4.0176,4.0117,4.0117,4.0077,4.0077,4.0057,4.0077,4.0077,4.0118,4.0196,4.0326,4.0325,4.0358,4.0425,4.0441,4.0438,4.0481,4.0582,4.0636,4.0746,4.0885,4.0935,4.0989,4.1026,4.1072,4.1108,4.1074,4.1039,4.0961,4.0857,4.078,4.0668,4.0523,4.0413,4.0329,4.0196,4.0058,3.9935,3.9785,3.967,3.9458,3.942,3.9343,3.929,3.9165,3.9008,3.905,3.9442,3.9052,3.8238,3.9242,4.0887,4.1434,4.1831,4.1762,4.1631,4.1515,4.1255,4.0153,4.0383,4.0252,4.072,4.1472,4.1534,4.1813,4.2228,4.2103,4.2002,4.1977,4.1849,4.178,4.1736,4.1719,4.1692,4.1657,4.1839,4.1948,4.2015,4.2139,4.2162,4.2121,4.218,4.2175,4.2216,4.2338,4.2498,4.2788,4.3123,4.3269,4.3141,4.3123,4.3105,4.3068,4.3049,4.3067,4.3031,4.305,4.3087,4.3142,4.3123,4.3032,4.2686,4.212,4.1318,4.0568,3.9728,3.9085,3.9135,3.9166,3.9305,3.9623,3.9892,4.0038,4.0098,4.0176,4.0253,4.0195,4.0176,4.0137,4.0137,4.0098,4.0098,4.0157,4.0137,4.0176,4.0272,4.0291,4.029,4.0289,4.0325,4.0377,4.0444,4.0473,4.0539,4.0621,4.08,4.0933,4.0986,4.1031,4.108,4.1094,4.106,4.1035,4.0998,4.0921,4.0829,4.0696,4.0545,4.0441,4.0362,4.0272,4.0177,4.0098,3.9956,3.9851,3.9739,3.9703,3.9631,3.9521,3.9471,3.9376,3.9525,3.9742,3.9386,3.8758,4.0256,4.1683,4.2024,4.2287,4.2061,4.1917,4.1805,4.1604,4.0577,4.1383,4.0926,4.1019,4.1534,4.1534,4.1813,4.2287,4.2287,4.2246,4.2246,4.2246,4.2205,4.2163,4.1977,4.1892,4.1892,4.1719,4.1881,4.199,4.2008,4.2262,4.2422,4.2422,4.232,4.236,4.2655,4.2844,4.2975,4.3304,4.3322,4.3196,4.3214,4.3269,4.3269,4.316,4.3123,4.3068,4.3032,4.3105,4.3123,4.3087,4.2868,4.2139,4.1355,4.055,3.9831,3.9163,3.8909,3.9101,3.9165,3.9272,3.9551,3.9781,3.9892,3.9996,4.0077,4.0176,4.0234,4.0273,4.0234,4.0196,4.0157,4.0137,4.0137,4.0176,4.0196,4.0234,4.0272,4.0308,4.0325,4.0362,4.0396,4.0463,4.0508,4.0579,4.0675,4.0807,4.0921,4.0987,4.1037,4.1091,4.1107,4.1073,4.1058,4.1035,4.1,4.0918,4.0761,4.0617,4.0526,4.0422,4.0326,4.0272,4.0253,4.0138,3.9996,3.9911,3.9845,3.9758,3.9693,3.9647,3.9594,3.9758,3.9866,3.9593,3.9793,4.1425,4.2571,4.2702,4.2724,4.2573,4.2356,4.2151,4.1917,4.0235,4.0607,4.1065,4.1534,4.2002,4.2002,4.2103,4.2287,4.2287,4.2287,4.2287,4.2287,4.2287,4.2287,4.2246,4.2145,4.2145,4.2274,4.2436,4.2711,4.2846,4.2995,4.3105,4.3069,4.3069,4.2995,4.3178,4.3268,4.3304,4.3463,4.3463,4.3393,4.3322,4.3286,4.3269,4.3305,4.3269,4.3286,4.325,4.3304,4.3322,4.3286,4.2973,4.2221,4.1415,4.0722,4.0099,3.9298,3.9194,3.9245,3.9305,3.9383,3.9458,3.9623,3.9739,3.9829,3.9892,3.9975,4.0234,4.0291,4.0272,4.0234,4.0215,4.0215,4.0176,4.0215,4.0253,4.0291,4.029,4.0307,4.0362,4.0394,4.0408,4.0492,4.0569,4.0621,4.0738,4.0859,4.0941,4.1013,4.1057,4.1108,4.1103,4.1112,4.1092,4.108,4.1042,4.0993,4.0839,4.0718,4.0623,4.0535,4.0438,4.0377,4.0342,4.0234,4.0098,4.0057,4.0015,3.9933,3.9807,3.9717,3.9703,3.99,4.0528,4.1031,4.1782,4.2861,4.3415,4.3442,4.3323,4.3196,4.2884,4.2537,4.2274,4.0186,4.0528,4.1202,4.1727,4.2061,4.2246,4.2287,4.2287,4.2287,4.2287,4.2287,4.2287,4.2287,4.2287,4.2287,4.2287,4.231,4.2454,4.2729,4.2957,4.3142,4.3479,4.3634,4.3634,4.3513,4.36,4.3566,4.3513,4.3479,4.3532,4.3497,4.3463,4.3463,4.3393,4.3358,4.3376,4.3411,4.3393,4.3428,4.3463,4.3428,4.3444,4.2821,4.2051,4.1317,4.0551,3.9877,3.915,3.9101,3.9237,3.935,3.9427,3.9458,3.9508,3.9604,3.9647,3.967,3.9712,3.9954,4.0234,4.0253,4.0253,4.0253,4.0253,4.0253,4.0272,4.031,4.0291,4.0326,4.0342,4.0415,4.0444,4.0476,4.0558,4.0626,4.0707,4.0776,4.0878,4.0964,4.105,4.1081,4.1108,4.1105,4.1112,4.1112,4.1084,4.1085,4.1042,4.0974,4.0857,4.0761,4.0672,4.0577,4.0511,4.0419,4.0321,4.0234,4.0195,4.0137,4.0057,3.9954,3.9867,3.9754,3.9792,4.0747,4.2429,4.3235,4.3587,4.3871,4.409,4.3892,4.36,4.3284,4.294,4.2732,4.0577,4.1428,4.1472,4.1561,4.1666,4.2086,4.2287,4.2287,4.2287,4.2287,4.2287,4.2287,4.2287,4.2287,4.2287,4.2287,4.2287,4.2369,4.2512,4.2788,4.305,4.325,4.3479,4.3667,4.3753,4.3771,4.3686,4.3634,4.3582,4.3566,4.3532,4.3479,4.3479,4.3444,4.3497,4.3411,4.334,4.3251,4.3251,4.3322,4.3393,4.3428,4.2693,4.1592,4.1222,4.0533,3.9386,3.9213,3.9276,3.948,3.9415,3.9552,3.9795,3.9626,3.9577,3.9608,3.959,3.9552,3.9551,3.9996,4.0157,4.0157,4.0117,4.0137,4.0234,4.0273,4.0215,4.0158,4.0252,4.0342,4.043,4.0495,4.0492,4.0603,4.0668,4.0738,4.0819,4.0904,4.0986,4.1056,4.109,4.1114,4.1108,4.1113,4.1111,4.1103,4.1114,4.1078,4.1042,4.0987,4.0882,4.0811,4.0715,4.0642,4.0549,4.0434,4.0358,4.0327,4.0349,4.0347,4.0307,4.0264,4.0079,3.9825,4.0844,4.244,4.3278,4.3962,4.4158,4.4325,4.4153,4.3906,4.3582,4.3371,4.3195,4.0926,4.1534,4.1899,4.2044,4.2044,4.2205,4.2287,4.2287,4.2287,4.2287,4.2287,4.2287,4.2287,4.2287,4.2287,4.2287,4.2287,4.2328,4.2432,4.2711,4.2957,4.3268,4.3497,4.3701,4.3818,4.3786,4.3719,4.3667,4.36,4.36,4.3532,4.3513,4.3479,4.3479,4.3479,4.3463,4.3428,4.341,4.341,4.3428,4.3463,4.3371,4.2748,4.1258,4.1185,4.0478,3.9261,3.9483,3.9814,3.9984,3.9956,4.0114,4.0375,4.0244,3.9816,3.9872,3.9872,3.9574,3.9424,3.9551,3.9758,3.9781,3.9826,3.9848,3.9826,3.9845,3.987,3.9916,4.0019,4.0119,4.0177,4.0267,4.0336,4.0588,4.0687,4.075,4.0829,4.0941,4.1026,4.1067,4.1117,4.1116,4.1108,4.1132,4.1131,4.1128,4.1123,4.1111,4.1085,4.1072,4.1013,4.0926,4.0839,4.077,4.0692,4.0577,4.045,4.0375,4.0595,4.0864,4.0787,4.0519,4.042,4.0138,4.1237,4.2351,4.3194,4.3964,4.4317,4.4425,4.4383,4.427,4.4017,4.3855,4.3726,4.0926,4.1534,4.1839,4.2145,4.2287,4.2287,4.2287,4.2287,4.2287,4.2287,4.2287,4.2287,4.2287,4.2287,4.2287,4.2287,4.2287,4.2287,4.2328,4.2613,4.2882,4.3105,4.3375,4.3682,4.38,4.3832,4.3818,4.3786,4.3734,4.3667,4.3634,4.3548,4.3513,4.3513,4.3513,4.3497,4.3497,4.3479,4.3479,4.3479,4.3479,4.3314,4.2873,4.1956,4.1456,4.1025,4.0295,4.0256,4.0667,4.0754,4.0818,4.0836,4.0979,4.0603,4.0062,4.005,3.9681,3.9326,3.9108,3.9129,3.9272,3.9272,3.9401,3.957,3.9599,3.9689,3.9717,3.9762,3.9758,3.9895,4.0041,4.0101,4.023,4.0457,4.0635,4.0699,4.0809,4.0896,4.102,4.1061,4.109,4.1094,4.111,4.1132,4.1151,4.115,4.1147,4.1119,4.1104,4.1094,4.1081,4.1031,4.0974,4.0902,4.0791,4.0696,4.0571,4.045,4.0718,4.107,4.075,4.0425,4.0443,4.0556,4.1335,4.2186,4.3263,4.3976,4.4478,4.4745,4.4813,4.4654,4.4402,4.4298,4.421,4.0625,4.1428,4.1534,4.1856,4.2246,4.2287,4.2287,4.2287,4.2287,4.2287,4.2287,4.2287,4.2287,4.2287,4.2287,4.2328,4.2328,4.2328,4.2409,4.249,4.2806,4.3032,4.3286,4.3563,4.3795,4.391,4.3929,4.3883,4.3883,4.3786,4.3701,4.3615,4.3615,4.3566,4.3532,4.3513,4.3513,4.3479,4.3479,4.3479,4.3479,4.3442,4.2947,4.2323,4.1992,4.1589,4.1103,4.108,4.1158,4.1227,4.1199,4.1236,4.0983,4.0377,4.0102,3.9803,3.9344,3.9081,3.9001,3.9132,3.8929,3.9044,3.9272,3.9477,3.9545,3.9502,3.9526,3.9599,3.9623,3.9788,3.9941,4.0002,4.0081,4.0281,4.0521,4.063,4.0734,4.084,4.0979,4.1031,4.1076,4.1085,4.1126,4.1151,4.1172,4.1171,4.115,4.1128,4.1099,4.1111,4.1104,4.1101,4.1037,4.1011,4.0914,4.0801,4.0699,4.0591,4.0776,4.0992,4.0645,4.0424,4.0559,4.0788,4.1208,4.2085,4.3354,4.422,4.4796,4.4995,4.5057,4.494,4.4674,4.47,4.4602,4.0926,4.1534,4.1899,4.2145,4.2269,4.2287,4.2287,4.2287,4.2287,4.2287,4.2287,4.2287,4.2287,4.2287,4.2287,4.2432,4.2472,4.2454,4.267,4.2824,4.2975,4.3214,4.3461,4.3679,4.3892,4.3974,4.3992,4.3961,4.3915,4.3818,4.3734,4.3615,4.3701,4.3634,4.36,4.3548,4.3532,4.3532,4.3513,4.3479,4.3479,4.3479,4.3002,4.2616,4.2433,4.1992,4.157,4.1787,4.1915,4.1956,4.2004,4.2169,4.2727,4.1589,4.0763,4.0749,4.0178,3.9676,3.9639,3.9681,3.9471,3.898,3.9129,3.9101,3.9183,3.9264,3.9317,3.9376,3.9427,3.9537,3.9724,3.9835,3.9962,4.0212,4.0415,4.0535,4.063,4.0746,4.0867,4.0906,4.0942,4.1074,4.1121,4.1151,4.1172,4.1172,4.1152,4.113,4.1108,4.1121,4.1116,4.1114,4.1104,4.1061,4.1031,4.0926,4.0837,4.0791,4.0912,4.0944,4.0673,4.0559,4.0722,4.1034,4.1495,4.245,4.367,4.4407,4.5068,4.5151,4.5208,4.5099,4.5005,4.4986,4.4919,4.1356,4.1813,4.2145,4.2287,4.2287,4.2287,4.2287,4.2287,4.2287,4.2287,4.2287,4.2287,4.2287,4.2287,4.2328,4.2432,4.2673,4.2573,4.2747,4.3068,4.3214,4.3356,4.3579,4.3763,4.386,4.3942,4.4005,4.3974,4.3929,4.3897,4.3814,4.3749,4.3818,4.3734,4.3686,4.3634,4.3582,4.36,4.3566,4.3513,4.3479,4.3479,4.3149,4.2873,4.2745,4.2396,4.2103,4.2662,4.2739,4.2745,4.2812,4.2827,4.2904,4.1581,4.0386,4.0154,3.9712,3.9381,3.9411,3.9877,3.9527,3.9261,3.9256,3.9342,3.9156,3.9129,3.9129,3.9156,3.9165,3.9219,3.9458,3.9656,3.9897,4.0158,4.0285,4.0434,4.054,4.0636,4.0703,4.0742,4.0852,4.1028,4.1111,4.1147,4.1172,4.1191,4.1172,4.1152,4.1131,4.1126,4.1125,4.1101,4.1114,4.1097,4.1052,4.1031,4.0935,4.0863,4.0937,4.0901,4.0688,4.0598,4.0627,4.1142,4.1781,4.2699,4.3541,4.4573,4.526,4.53,4.5319,4.5235,4.5167,4.5167,4.5103,4.177,4.2187,4.2305,4.2287,4.2287,4.2287,4.2287,4.2287,4.2287,4.2287,4.2287,4.2287,4.2287,4.2287,4.2287,4.2472,4.2634,4.2673,4.2864,4.3251,4.3322,4.3426,4.3631,4.3664,4.386,4.3974,4.4005,4.4005,4.4005,4.3974,4.391,4.3878,4.3712,4.3647,4.3734,4.348,4.348,4.3719,4.3652,4.3566,4.3532,4.3532,4.3513,4.3477,4.3458,4.3385,4.3422,4.3477,4.3477,4.344,4.3309,4.2993,4.1866,4.1046,3.9939,3.9515,3.9386,3.9534,3.9674,4.003,3.9782,3.9674,3.9769,3.9556,3.9259,3.9073,3.9101,3.9129,3.9156,3.9272,3.9458,3.9604,3.981,4.0039,4.0177,4.0304,4.0389,4.0515,4.059,4.0653,4.0772,4.0935,4.1042,4.1078,4.1084,4.1128,4.1171,4.1152,4.1171,4.115,4.1129,4.1108,4.1101,4.1114,4.1108,4.1055,4.1008,4.0974,4.1077,4.1002,4.0868,4.0687,4.0501,4.1039,4.1607,4.2366,4.3212,4.4384,4.5246,4.538,4.538,4.5339,4.5338,4.5277,4.5235,4.1578,4.1709,4.2145,4.2287,4.2287,4.2287,4.2287,4.2287,4.2287,4.2287,4.2287,4.2287,4.2287,4.2287,4.2287,4.2432,4.2634,4.2732,4.3032,4.3356,4.3479,4.3597,4.3828,4.386,4.3942,4.3974,4.4005,4.4005,4.4005,4.4005,4.3955,4.3836,4.3503,4.3317,4.3634,4.3268,4.3116,4.3615,4.359,4.3627,4.3701,4.3634,4.36,4.3686,4.3719,4.3686,4.3701,4.3697,4.331,4.2959,4.2881,4.2068,4.0708,4.0295,4.0067,3.9912,3.966,3.9863,4.0152,4.0219,4.0007,3.9777,3.9676,3.937,3.9157,3.912,3.9129,3.9156,3.9237,3.935,3.9458,3.958,3.9721,3.9935,4.0099,4.0196,4.029,4.0392,4.0496,4.0604,4.0707,4.081,4.0926,4.0986,4.0992,4.1035,4.1108,4.1132,4.1172,4.1171,4.1151,4.113,4.1108,4.1103,4.1103,4.1236,4.1238,4.1254,4.1335,4.1214,4.1101,4.0849,4.0684,4.0894,4.1376,4.2121,4.3104,4.4458,4.5131,4.5208,4.5419,4.54,4.538,4.5361,4.532,4.1856,4.1899,4.2187,4.2287,4.2287,4.2287,4.2287,4.2287,4.2287,4.2287,4.2287,4.2287,4.2287,4.2287,4.2287,4.2432,4.2634,4.2693,4.3069,4.3442,4.3594,4.3763,4.3892,4.3968,4.4005,4.4005,4.4005,4.4005,4.3949,4.4005,4.3955,4.3757,4.3194,4.2885,4.3235,4.2712,4.2619,4.3304,4.3356,4.3523,4.3777,4.3767,4.3719,4.3804,4.3786,4.3767,4.3619,4.3541,4.3005,4.2308,4.1983,4.1348,4.0318,3.9848,3.9645,3.9589,3.9608,3.9867,4.0248,4.0333,4.0102,3.9787,3.9898,3.9733,3.9184,3.9129,3.9192,3.9245,3.935,3.9477,3.9575,3.9693,3.9785,3.9975,4.0077,4.0157,4.0253,4.036,4.0425,4.0469,4.059,4.0688,4.081,4.0942,4.095,4.0972,4.1035,4.111,4.1151,4.1191,4.1152,4.121,4.1229,4.1168,4.1128,4.1361,4.1609,4.1609,4.1724,4.1855,4.1902,4.1237,4.0906,4.1092,4.1385,4.1873,4.2946,4.4055,4.4664,4.4744,4.5092,4.5438,4.5438,4.5419,4.54,4.2287,4.2287,4.2287,4.2287,4.2287,4.2287,4.2287,4.2287,4.2287,4.2287,4.2287,4.2287,4.2287,4.2287,4.2328,4.2472,4.2613,4.2673,4.3069,4.3283,4.3379,4.355,4.3698,4.3825,4.3856,4.3838,4.3801,4.3745,4.367,4.354,4.3336,4.3485,4.3113,4.2593,4.2451,4.2161,4.2094,4.2959,4.3299,4.3378,4.3619,4.3846,4.374,4.3707,4.367,4.3634,4.3301,4.2931,4.2432,4.1693,4.0922,4.0322,3.9925,3.949,3.9323,3.9202,3.9221,3.9351,3.9536,3.9851,3.9676,3.963,4.0067,3.9909,3.9305,3.9237,3.9298,3.9376,3.9477,3.9551,3.967,3.9758,3.987,3.9975,4.0077,4.0157,4.0253,4.0345,4.0379,4.0413,4.05,4.0597,4.0679,4.0816,4.0909,4.092,4.0996,4.106,4.111,4.113,4.1132,4.1308,4.1465,4.1367,4.1366,4.1676,4.2104,4.2396,4.255,4.2711,4.2631,4.1958,4.1474,4.1268,4.1597,4.1787,4.2247,4.3143,4.3651,4.4309,4.4696,4.5124,4.5514,4.5495,4.5476,4.2287,4.2287,4.2287,4.2287,4.2287,4.2287,4.2287,4.2287,4.2269,4.2287,4.2251,4.2269,4.2287,4.2269,4.2287,4.2297,4.2235,4.2429,4.2637,4.2847,4.2626,4.3048,4.3305,4.3219,4.3472,4.3466,4.328,4.3058,4.2965,4.2482,4.211,4.2166,4.1367,4.1497,4.2537,4.2192,4.2006,4.2841,4.3454,4.3677,4.3775,4.3831,4.3465,4.3262,4.2977,4.2581,4.2154,4.1883,4.1382,4.0707,4.002,3.9556,3.9352,3.924,3.9129,3.9073,3.9045,3.9333,3.9593,3.9537,3.9398,3.9788,3.9937,3.95,3.921,3.935,3.9401,3.9477,3.9575,3.9647,3.9739,3.9804,3.9911,4.0057,4.0157,4.0196,4.0291,4.0345,4.0398,4.043,4.0457,4.0511,4.0549,4.0688,4.0827,4.0889,4.1003,4.1052,4.1107,4.1108,4.111,4.1444,4.1737,4.2012,4.2168,4.2382,4.2751,4.3083,4.3356,4.3486,4.3283,4.2678,4.2249,4.1847,4.1461,4.1432,4.1975,4.2582,4.3305,4.3974,4.4346,4.4766,4.5269,4.5568,4.5532]}]]